<?xml version="1.0" encoding="UTF-8" standalone="no" ?>
<gpx xmlns="http://www.topografix.com/GPX/1/1" xmlns:xsi="http://www.w3.org/2001/XMLSchema-instance" xsi:schemaLocation="http://www.topografix.com/GPX/1/1 http://www.topografix.com/GPX/1/1/gpx.xsd" version="1.1" creator="VisuGPX - https://www.visugpx.com">
  <metadata>
    <name>CHEZINE - CENS</name>
    <desc><![CDATA[Balade bucolique, pas trop technique et plutôt roulante]]></desc>
  </metadata>
  <trk>
    <name><![CDATA[2013-09-08-03[1]]]></name>
    <trkseg>
      <trkpt lat="47.23161" lon="-1.60727">
        <ele>-299.369201</ele>
        <time>2013-09-08T08:11:11Z</time>
      </trkpt>
      <trkpt lat="47.23166" lon="-1.607">
        <ele>-299.726623</ele>
        <time>2013-09-08T08:11:12Z</time>
      </trkpt>
      <trkpt lat="47.23166" lon="-1.607">
        <ele>-299.7</ele>
        <time>2013-09-08T08:11:12Z</time>
      </trkpt>
      <trkpt lat="47.23159" lon="-1.60712">
        <ele>-315.1</ele>
        <time>2013-09-08T08:11:29Z</time>
      </trkpt>
      <trkpt lat="47.23152" lon="-1.6073">
        <ele>-314.5</ele>
        <time>2013-09-08T08:11:37Z</time>
      </trkpt>
      <trkpt lat="47.23137" lon="-1.60746">
        <ele>-234.4</ele>
        <time>2013-09-08T08:11:38Z</time>
      </trkpt>
      <trkpt lat="47.23134" lon="-1.60772">
        <ele>-150.2</ele>
        <time>2013-09-08T08:11:43Z</time>
      </trkpt>
      <trkpt lat="47.23139" lon="-1.60797">
        <ele>-168.4</ele>
        <time>2013-09-08T08:11:46Z</time>
      </trkpt>
      <trkpt lat="47.23143" lon="-1.60784">
        <ele>-147.3</ele>
        <time>2013-09-08T08:11:52Z</time>
      </trkpt>
      <trkpt lat="47.23171" lon="-1.60799">
        <ele>-147</ele>
        <time>2013-09-08T08:12:01Z</time>
      </trkpt>
      <trkpt lat="47.23183" lon="-1.60816">
        <ele>-147.7</ele>
        <time>2013-09-08T08:12:03Z</time>
      </trkpt>
      <trkpt lat="47.23191" lon="-1.60835">
        <ele>-148.4</ele>
        <time>2013-09-08T08:12:05Z</time>
      </trkpt>
      <trkpt lat="47.23197" lon="-1.60846">
        <ele>-149</ele>
        <time>2013-09-08T08:12:08Z</time>
      </trkpt>
      <trkpt lat="47.23205" lon="-1.60859">
        <ele>-149.2</ele>
        <time>2013-09-08T08:12:12Z</time>
      </trkpt>
      <trkpt lat="47.23205" lon="-1.60859">
        <ele>-149.2</ele>
        <time>2013-09-08T08:12:12Z</time>
      </trkpt>
      <trkpt lat="47.23211" lon="-1.60877">
        <ele>-149.2</ele>
        <time>2013-09-08T08:12:17Z</time>
      </trkpt>
      <trkpt lat="47.23216" lon="-1.60891">
        <ele>-149.2</ele>
        <time>2013-09-08T08:12:21Z</time>
      </trkpt>
      <trkpt lat="47.23221" lon="-1.60906">
        <ele>-149.2</ele>
        <time>2013-09-08T08:12:25Z</time>
      </trkpt>
      <trkpt lat="47.23226" lon="-1.6092">
        <ele>-149.2</ele>
        <time>2013-09-08T08:12:29Z</time>
      </trkpt>
      <trkpt lat="47.23231" lon="-1.60934">
        <ele>-149.2</ele>
        <time>2013-09-08T08:12:33Z</time>
      </trkpt>
      <trkpt lat="47.23216" lon="-1.60891">
        <ele>-145.6</ele>
        <time>2013-09-08T08:12:34Z</time>
      </trkpt>
      <trkpt lat="47.23207" lon="-1.60899">
        <ele>-138.5</ele>
        <time>2013-09-08T08:12:36Z</time>
      </trkpt>
      <trkpt lat="47.232" lon="-1.60912">
        <ele>-128.3</ele>
        <time>2013-09-08T08:12:39Z</time>
      </trkpt>
      <trkpt lat="47.23201" lon="-1.6093">
        <ele>-118.7</ele>
        <time>2013-09-08T08:12:42Z</time>
      </trkpt>
      <trkpt lat="47.23204" lon="-1.60947">
        <ele>-109.6</ele>
        <time>2013-09-08T08:12:45Z</time>
      </trkpt>
      <trkpt lat="47.23212" lon="-1.60963">
        <ele>-39.3</ele>
        <time>2013-09-08T08:12:48Z</time>
      </trkpt>
      <trkpt lat="47.23219" lon="-1.6098">
        <ele>-2.9</ele>
        <time>2013-09-08T08:12:51Z</time>
      </trkpt>
      <trkpt lat="47.23221" lon="-1.60994">
        <ele>10.9</ele>
        <time>2013-09-08T08:12:53Z</time>
      </trkpt>
      <trkpt lat="47.23221" lon="-1.61009">
        <ele>20.6</ele>
        <time>2013-09-08T08:12:55Z</time>
      </trkpt>
      <trkpt lat="47.23221" lon="-1.61024">
        <ele>26.7</ele>
        <time>2013-09-08T08:12:57Z</time>
      </trkpt>
      <trkpt lat="47.23219" lon="-1.61038">
        <ele>30.3</ele>
        <time>2013-09-08T08:12:59Z</time>
      </trkpt>
      <trkpt lat="47.23215" lon="-1.61051">
        <ele>31.9</ele>
        <time>2013-09-08T08:13:01Z</time>
      </trkpt>
      <trkpt lat="47.2321" lon="-1.61065">
        <ele>34.1</ele>
        <time>2013-09-08T08:13:03Z</time>
      </trkpt>
      <trkpt lat="47.23203" lon="-1.61078">
        <ele>35.3</ele>
        <time>2013-09-08T08:13:05Z</time>
      </trkpt>
      <trkpt lat="47.23194" lon="-1.61089">
        <ele>35.9</ele>
        <time>2013-09-08T08:13:07Z</time>
      </trkpt>
      <trkpt lat="47.23184" lon="-1.61097">
        <ele>37.1</ele>
        <time>2013-09-08T08:13:10Z</time>
      </trkpt>
      <trkpt lat="47.23173" lon="-1.61105">
        <ele>36.7</ele>
        <time>2013-09-08T08:13:12Z</time>
      </trkpt>
      <trkpt lat="47.23161" lon="-1.61112">
        <ele>37</ele>
        <time>2013-09-08T08:13:14Z</time>
      </trkpt>
      <trkpt lat="47.2315" lon="-1.61119">
        <ele>37</ele>
        <time>2013-09-08T08:13:16Z</time>
      </trkpt>
      <trkpt lat="47.23139" lon="-1.61126">
        <ele>37.7</ele>
        <time>2013-09-08T08:13:18Z</time>
      </trkpt>
      <trkpt lat="47.23129" lon="-1.61131">
        <ele>38.8</ele>
        <time>2013-09-08T08:13:20Z</time>
      </trkpt>
      <trkpt lat="47.23119" lon="-1.61138">
        <ele>39.2</ele>
        <time>2013-09-08T08:13:23Z</time>
      </trkpt>
      <trkpt lat="47.2311" lon="-1.61145">
        <ele>39.2</ele>
        <time>2013-09-08T08:13:26Z</time>
      </trkpt>
      <trkpt lat="47.23103" lon="-1.6116">
        <ele>39.4</ele>
        <time>2013-09-08T08:13:29Z</time>
      </trkpt>
      <trkpt lat="47.23099" lon="-1.61175">
        <ele>39.3</ele>
        <time>2013-09-08T08:13:32Z</time>
      </trkpt>
      <trkpt lat="47.23098" lon="-1.61193">
        <ele>39.3</ele>
        <time>2013-09-08T08:13:35Z</time>
      </trkpt>
      <trkpt lat="47.23104" lon="-1.61208">
        <ele>39.4</ele>
        <time>2013-09-08T08:13:38Z</time>
      </trkpt>
      <trkpt lat="47.23111" lon="-1.61226">
        <ele>39.3</ele>
        <time>2013-09-08T08:13:41Z</time>
      </trkpt>
      <trkpt lat="47.23118" lon="-1.61239">
        <ele>37.4</ele>
        <time>2013-09-08T08:13:43Z</time>
      </trkpt>
      <trkpt lat="47.23123" lon="-1.61252">
        <ele>35.7</ele>
        <time>2013-09-08T08:13:45Z</time>
      </trkpt>
      <trkpt lat="47.23128" lon="-1.6127">
        <ele>34</ele>
        <time>2013-09-08T08:13:48Z</time>
      </trkpt>
      <trkpt lat="47.23132" lon="-1.61284">
        <ele>33.5</ele>
        <time>2013-09-08T08:13:50Z</time>
      </trkpt>
      <trkpt lat="47.23136" lon="-1.61298">
        <ele>33.4</ele>
        <time>2013-09-08T08:13:52Z</time>
      </trkpt>
      <trkpt lat="47.2314" lon="-1.61314">
        <ele>33.6</ele>
        <time>2013-09-08T08:13:54Z</time>
      </trkpt>
      <trkpt lat="47.23144" lon="-1.61328">
        <ele>32.9</ele>
        <time>2013-09-08T08:13:56Z</time>
      </trkpt>
      <trkpt lat="47.23149" lon="-1.61342">
        <ele>31.9</ele>
        <time>2013-09-08T08:13:58Z</time>
      </trkpt>
      <trkpt lat="47.23154" lon="-1.61358">
        <ele>32.3</ele>
        <time>2013-09-08T08:14:00Z</time>
      </trkpt>
      <trkpt lat="47.2316" lon="-1.61373">
        <ele>33.2</ele>
        <time>2013-09-08T08:14:02Z</time>
      </trkpt>
      <trkpt lat="47.23165" lon="-1.61389">
        <ele>32.8</ele>
        <time>2013-09-08T08:14:04Z</time>
      </trkpt>
      <trkpt lat="47.23171" lon="-1.61401">
        <ele>32.1</ele>
        <time>2013-09-08T08:14:06Z</time>
      </trkpt>
      <trkpt lat="47.2318" lon="-1.61411">
        <ele>31.4</ele>
        <time>2013-09-08T08:14:09Z</time>
      </trkpt>
      <trkpt lat="47.2319" lon="-1.61416">
        <ele>31.4</ele>
        <time>2013-09-08T08:14:12Z</time>
      </trkpt>
      <trkpt lat="47.23203" lon="-1.61416">
        <ele>31.6</ele>
        <time>2013-09-08T08:14:15Z</time>
      </trkpt>
      <trkpt lat="47.23215" lon="-1.61417">
        <ele>33.6</ele>
        <time>2013-09-08T08:14:18Z</time>
      </trkpt>
      <trkpt lat="47.23227" lon="-1.61418">
        <ele>35.1</ele>
        <time>2013-09-08T08:14:21Z</time>
      </trkpt>
      <trkpt lat="47.23239" lon="-1.61419">
        <ele>35</ele>
        <time>2013-09-08T08:14:24Z</time>
      </trkpt>
      <trkpt lat="47.23249" lon="-1.61419">
        <ele>34.9</ele>
        <time>2013-09-08T08:14:27Z</time>
      </trkpt>
      <trkpt lat="47.23259" lon="-1.61416">
        <ele>34.8</ele>
        <time>2013-09-08T08:14:30Z</time>
      </trkpt>
      <trkpt lat="47.23266" lon="-1.61425">
        <ele>34.5</ele>
        <time>2013-09-08T08:14:34Z</time>
      </trkpt>
      <trkpt lat="47.23269" lon="-1.6144">
        <ele>34.5</ele>
        <time>2013-09-08T08:14:37Z</time>
      </trkpt>
      <trkpt lat="47.23272" lon="-1.61457">
        <ele>34.4</ele>
        <time>2013-09-08T08:14:40Z</time>
      </trkpt>
      <trkpt lat="47.23274" lon="-1.61472">
        <ele>34.3</ele>
        <time>2013-09-08T08:14:42Z</time>
      </trkpt>
      <trkpt lat="47.23277" lon="-1.61486">
        <ele>34.4</ele>
        <time>2013-09-08T08:14:44Z</time>
      </trkpt>
      <trkpt lat="47.23279" lon="-1.61501">
        <ele>34.4</ele>
        <time>2013-09-08T08:14:46Z</time>
      </trkpt>
      <trkpt lat="47.23282" lon="-1.6152">
        <ele>34.5</ele>
        <time>2013-09-08T08:14:49Z</time>
      </trkpt>
      <trkpt lat="47.23285" lon="-1.61537">
        <ele>34.7</ele>
        <time>2013-09-08T08:14:52Z</time>
      </trkpt>
      <trkpt lat="47.23288" lon="-1.61554">
        <ele>34.9</ele>
        <time>2013-09-08T08:14:55Z</time>
      </trkpt>
      <trkpt lat="47.2329" lon="-1.61567">
        <ele>35.1</ele>
        <time>2013-09-08T08:14:57Z</time>
      </trkpt>
      <trkpt lat="47.23295" lon="-1.61585">
        <ele>35.7</ele>
        <time>2013-09-08T08:15:00Z</time>
      </trkpt>
      <trkpt lat="47.233" lon="-1.61598">
        <ele>35.7</ele>
        <time>2013-09-08T08:15:02Z</time>
      </trkpt>
      <trkpt lat="47.23306" lon="-1.61613">
        <ele>36.1</ele>
        <time>2013-09-08T08:15:05Z</time>
      </trkpt>
      <trkpt lat="47.23313" lon="-1.61623">
        <ele>36.7</ele>
        <time>2013-09-08T08:15:07Z</time>
      </trkpt>
      <trkpt lat="47.23318" lon="-1.61634">
        <ele>37.8</ele>
        <time>2013-09-08T08:15:09Z</time>
      </trkpt>
      <trkpt lat="47.23326" lon="-1.61648">
        <ele>38.5</ele>
        <time>2013-09-08T08:15:12Z</time>
      </trkpt>
      <trkpt lat="47.23333" lon="-1.61658">
        <ele>39.3</ele>
        <time>2013-09-08T08:15:14Z</time>
      </trkpt>
      <trkpt lat="47.23339" lon="-1.61669">
        <ele>40.1</ele>
        <time>2013-09-08T08:15:16Z</time>
      </trkpt>
      <trkpt lat="47.23346" lon="-1.61685">
        <ele>40.9</ele>
        <time>2013-09-08T08:15:19Z</time>
      </trkpt>
      <trkpt lat="47.23354" lon="-1.617">
        <ele>41.5</ele>
        <time>2013-09-08T08:15:22Z</time>
      </trkpt>
      <trkpt lat="47.23362" lon="-1.61715">
        <ele>42.6</ele>
        <time>2013-09-08T08:15:25Z</time>
      </trkpt>
      <trkpt lat="47.23369" lon="-1.61728">
        <ele>43.4</ele>
        <time>2013-09-08T08:15:28Z</time>
      </trkpt>
      <trkpt lat="47.2338" lon="-1.61732">
        <ele>43.2</ele>
        <time>2013-09-08T08:15:32Z</time>
      </trkpt>
      <trkpt lat="47.23392" lon="-1.61721">
        <ele>41.8</ele>
        <time>2013-09-08T08:15:35Z</time>
      </trkpt>
      <trkpt lat="47.23404" lon="-1.61715">
        <ele>40.8</ele>
        <time>2013-09-08T08:15:37Z</time>
      </trkpt>
      <trkpt lat="47.23414" lon="-1.61713">
        <ele>40.1</ele>
        <time>2013-09-08T08:15:39Z</time>
      </trkpt>
      <trkpt lat="47.23424" lon="-1.61714">
        <ele>39.1</ele>
        <time>2013-09-08T08:15:41Z</time>
      </trkpt>
      <trkpt lat="47.23435" lon="-1.61716">
        <ele>38.4</ele>
        <time>2013-09-08T08:15:43Z</time>
      </trkpt>
      <trkpt lat="47.23444" lon="-1.61718">
        <ele>37.6</ele>
        <time>2013-09-08T08:15:45Z</time>
      </trkpt>
      <trkpt lat="47.23455" lon="-1.61723">
        <ele>37.2</ele>
        <time>2013-09-08T08:15:47Z</time>
      </trkpt>
      <trkpt lat="47.23464" lon="-1.61728">
        <ele>37.1</ele>
        <time>2013-09-08T08:15:49Z</time>
      </trkpt>
      <trkpt lat="47.23472" lon="-1.61737">
        <ele>36.9</ele>
        <time>2013-09-08T08:15:52Z</time>
      </trkpt>
      <trkpt lat="47.23478" lon="-1.61747">
        <ele>36.9</ele>
        <time>2013-09-08T08:15:59Z</time>
      </trkpt>
      <trkpt lat="47.23488" lon="-1.61745">
        <ele>37.5</ele>
        <time>2013-09-08T08:16:02Z</time>
      </trkpt>
      <trkpt lat="47.23497" lon="-1.61738">
        <ele>38.1</ele>
        <time>2013-09-08T08:16:04Z</time>
      </trkpt>
      <trkpt lat="47.23506" lon="-1.61729">
        <ele>39</ele>
        <time>2013-09-08T08:16:06Z</time>
      </trkpt>
      <trkpt lat="47.23515" lon="-1.61718">
        <ele>39.4</ele>
        <time>2013-09-08T08:16:08Z</time>
      </trkpt>
      <trkpt lat="47.23525" lon="-1.61709">
        <ele>39.9</ele>
        <time>2013-09-08T08:16:10Z</time>
      </trkpt>
      <trkpt lat="47.23534" lon="-1.617">
        <ele>39.5</ele>
        <time>2013-09-08T08:16:12Z</time>
      </trkpt>
      <trkpt lat="47.23545" lon="-1.61689">
        <ele>38.3</ele>
        <time>2013-09-08T08:16:14Z</time>
      </trkpt>
      <trkpt lat="47.23554" lon="-1.61679">
        <ele>37.3</ele>
        <time>2013-09-08T08:16:16Z</time>
      </trkpt>
      <trkpt lat="47.23565" lon="-1.61666">
        <ele>36.2</ele>
        <time>2013-09-08T08:16:18Z</time>
      </trkpt>
      <trkpt lat="47.23577" lon="-1.6165">
        <ele>35.5</ele>
        <time>2013-09-08T08:16:20Z</time>
      </trkpt>
      <trkpt lat="47.23585" lon="-1.61632">
        <ele>34.9</ele>
        <time>2013-09-08T08:16:22Z</time>
      </trkpt>
      <trkpt lat="47.23593" lon="-1.61618">
        <ele>34.1</ele>
        <time>2013-09-08T08:16:24Z</time>
      </trkpt>
      <trkpt lat="47.236" lon="-1.61605">
        <ele>33.9</ele>
        <time>2013-09-08T08:16:26Z</time>
      </trkpt>
      <trkpt lat="47.23606" lon="-1.61594">
        <ele>33.2</ele>
        <time>2013-09-08T08:16:28Z</time>
      </trkpt>
      <trkpt lat="47.23608" lon="-1.6158">
        <ele>31.7</ele>
        <time>2013-09-08T08:16:30Z</time>
      </trkpt>
      <trkpt lat="47.23613" lon="-1.61568">
        <ele>31.1</ele>
        <time>2013-09-08T08:16:32Z</time>
      </trkpt>
      <trkpt lat="47.23621" lon="-1.61555">
        <ele>30.2</ele>
        <time>2013-09-08T08:16:35Z</time>
      </trkpt>
      <trkpt lat="47.23624" lon="-1.6154">
        <ele>29.7</ele>
        <time>2013-09-08T08:16:38Z</time>
      </trkpt>
      <trkpt lat="47.23638" lon="-1.61531">
        <ele>29.3</ele>
        <time>2013-09-08T08:16:45Z</time>
      </trkpt>
      <trkpt lat="47.23651" lon="-1.61529">
        <ele>27.6</ele>
        <time>2013-09-08T08:16:47Z</time>
      </trkpt>
      <trkpt lat="47.23666" lon="-1.61527">
        <ele>25.9</ele>
        <time>2013-09-08T08:16:49Z</time>
      </trkpt>
      <trkpt lat="47.23678" lon="-1.61524">
        <ele>24.6</ele>
        <time>2013-09-08T08:16:51Z</time>
      </trkpt>
      <trkpt lat="47.23688" lon="-1.61516">
        <ele>23</ele>
        <time>2013-09-08T08:16:53Z</time>
      </trkpt>
      <trkpt lat="47.23701" lon="-1.61509">
        <ele>21.8</ele>
        <time>2013-09-08T08:16:56Z</time>
      </trkpt>
      <trkpt lat="47.23713" lon="-1.61504">
        <ele>21.2</ele>
        <time>2013-09-08T08:16:58Z</time>
      </trkpt>
      <trkpt lat="47.23724" lon="-1.615">
        <ele>20.6</ele>
        <time>2013-09-08T08:17:00Z</time>
      </trkpt>
      <trkpt lat="47.23733" lon="-1.61501">
        <ele>20.7</ele>
        <time>2013-09-08T08:17:02Z</time>
      </trkpt>
      <trkpt lat="47.23743" lon="-1.61511">
        <ele>20.5</ele>
        <time>2013-09-08T08:17:05Z</time>
      </trkpt>
      <trkpt lat="47.2375" lon="-1.61526">
        <ele>20.3</ele>
        <time>2013-09-08T08:17:08Z</time>
      </trkpt>
      <trkpt lat="47.23757" lon="-1.61536">
        <ele>20.2</ele>
        <time>2013-09-08T08:17:11Z</time>
      </trkpt>
      <trkpt lat="47.23766" lon="-1.61546">
        <ele>20</ele>
        <time>2013-09-08T08:17:14Z</time>
      </trkpt>
      <trkpt lat="47.23777" lon="-1.61554">
        <ele>19.4</ele>
        <time>2013-09-08T08:17:17Z</time>
      </trkpt>
      <trkpt lat="47.23783" lon="-1.61566">
        <ele>19</ele>
        <time>2013-09-08T08:17:20Z</time>
      </trkpt>
      <trkpt lat="47.23778" lon="-1.61581">
        <ele>18.7</ele>
        <time>2013-09-08T08:17:25Z</time>
      </trkpt>
      <trkpt lat="47.23774" lon="-1.61596">
        <ele>18.4</ele>
        <time>2013-09-08T08:17:28Z</time>
      </trkpt>
      <trkpt lat="47.2377" lon="-1.61609">
        <ele>18.1</ele>
        <time>2013-09-08T08:17:30Z</time>
      </trkpt>
      <trkpt lat="47.23767" lon="-1.61623">
        <ele>17.9</ele>
        <time>2013-09-08T08:17:32Z</time>
      </trkpt>
      <trkpt lat="47.23763" lon="-1.61639">
        <ele>17.6</ele>
        <time>2013-09-08T08:17:34Z</time>
      </trkpt>
      <trkpt lat="47.23758" lon="-1.61656">
        <ele>13.5</ele>
        <time>2013-09-08T08:17:36Z</time>
      </trkpt>
      <trkpt lat="47.23756" lon="-1.6167">
        <ele>10.7</ele>
        <time>2013-09-08T08:17:38Z</time>
      </trkpt>
      <trkpt lat="47.23753" lon="-1.61686">
        <ele>9.7</ele>
        <time>2013-09-08T08:17:40Z</time>
      </trkpt>
      <trkpt lat="47.23751" lon="-1.617">
        <ele>9.6</ele>
        <time>2013-09-08T08:17:42Z</time>
      </trkpt>
      <trkpt lat="47.23753" lon="-1.61719">
        <ele>10.5</ele>
        <time>2013-09-08T08:17:45Z</time>
      </trkpt>
      <trkpt lat="47.23756" lon="-1.61733">
        <ele>11.8</ele>
        <time>2013-09-08T08:17:47Z</time>
      </trkpt>
      <trkpt lat="47.23759" lon="-1.61746">
        <ele>13</ele>
        <time>2013-09-08T08:17:49Z</time>
      </trkpt>
      <trkpt lat="47.23766" lon="-1.61761">
        <ele>13.3</ele>
        <time>2013-09-08T08:17:52Z</time>
      </trkpt>
      <trkpt lat="47.23771" lon="-1.61774">
        <ele>13.4</ele>
        <time>2013-09-08T08:17:54Z</time>
      </trkpt>
      <trkpt lat="47.23779" lon="-1.61787">
        <ele>13.4</ele>
        <time>2013-09-08T08:17:56Z</time>
      </trkpt>
      <trkpt lat="47.23787" lon="-1.618">
        <ele>13.9</ele>
        <time>2013-09-08T08:17:58Z</time>
      </trkpt>
      <trkpt lat="47.23793" lon="-1.61813">
        <ele>13.9</ele>
        <time>2013-09-08T08:18:00Z</time>
      </trkpt>
      <trkpt lat="47.23801" lon="-1.61827">
        <ele>12.4</ele>
        <time>2013-09-08T08:18:02Z</time>
      </trkpt>
      <trkpt lat="47.2381" lon="-1.61844">
        <ele>11.6</ele>
        <time>2013-09-08T08:18:04Z</time>
      </trkpt>
      <trkpt lat="47.23819" lon="-1.61861">
        <ele>11.2</ele>
        <time>2013-09-08T08:18:06Z</time>
      </trkpt>
      <trkpt lat="47.23828" lon="-1.61877">
        <ele>10.5</ele>
        <time>2013-09-08T08:18:08Z</time>
      </trkpt>
      <trkpt lat="47.23836" lon="-1.6189">
        <ele>10</ele>
        <time>2013-09-08T08:18:10Z</time>
      </trkpt>
      <trkpt lat="47.23844" lon="-1.61901">
        <ele>9.5</ele>
        <time>2013-09-08T08:18:12Z</time>
      </trkpt>
      <trkpt lat="47.23852" lon="-1.61911">
        <ele>8.8</ele>
        <time>2013-09-08T08:18:14Z</time>
      </trkpt>
      <trkpt lat="47.23861" lon="-1.61923">
        <ele>8.5</ele>
        <time>2013-09-08T08:18:16Z</time>
      </trkpt>
      <trkpt lat="47.23869" lon="-1.61931">
        <ele>8.3</ele>
        <time>2013-09-08T08:18:18Z</time>
      </trkpt>
      <trkpt lat="47.2388" lon="-1.6194">
        <ele>7.7</ele>
        <time>2013-09-08T08:18:20Z</time>
      </trkpt>
      <trkpt lat="47.23891" lon="-1.61947">
        <ele>8.4</ele>
        <time>2013-09-08T08:18:22Z</time>
      </trkpt>
      <trkpt lat="47.23901" lon="-1.61952">
        <ele>8.5</ele>
        <time>2013-09-08T08:18:24Z</time>
      </trkpt>
      <trkpt lat="47.23911" lon="-1.61955">
        <ele>6.3</ele>
        <time>2013-09-08T08:18:26Z</time>
      </trkpt>
      <trkpt lat="47.23923" lon="-1.61956">
        <ele>4.7</ele>
        <time>2013-09-08T08:18:28Z</time>
      </trkpt>
      <trkpt lat="47.23932" lon="-1.61957">
        <ele>4.6</ele>
        <time>2013-09-08T08:18:30Z</time>
      </trkpt>
      <trkpt lat="47.23945" lon="-1.61963">
        <ele>5.6</ele>
        <time>2013-09-08T08:18:33Z</time>
      </trkpt>
      <trkpt lat="47.23956" lon="-1.61969">
        <ele>7.6</ele>
        <time>2013-09-08T08:18:35Z</time>
      </trkpt>
      <trkpt lat="47.23969" lon="-1.61978">
        <ele>9.1</ele>
        <time>2013-09-08T08:18:37Z</time>
      </trkpt>
      <trkpt lat="47.23979" lon="-1.61987">
        <ele>10.2</ele>
        <time>2013-09-08T08:18:39Z</time>
      </trkpt>
      <trkpt lat="47.23988" lon="-1.61995">
        <ele>10.5</ele>
        <time>2013-09-08T08:18:41Z</time>
      </trkpt>
      <trkpt lat="47.23996" lon="-1.62004">
        <ele>12.4</ele>
        <time>2013-09-08T08:18:43Z</time>
      </trkpt>
      <trkpt lat="47.24005" lon="-1.62018">
        <ele>12.7</ele>
        <time>2013-09-08T08:18:46Z</time>
      </trkpt>
      <trkpt lat="47.24012" lon="-1.62037">
        <ele>12.9</ele>
        <time>2013-09-08T08:18:49Z</time>
      </trkpt>
      <trkpt lat="47.24015" lon="-1.6205">
        <ele>13.1</ele>
        <time>2013-09-08T08:18:51Z</time>
      </trkpt>
      <trkpt lat="47.24017" lon="-1.62067">
        <ele>13.4</ele>
        <time>2013-09-08T08:18:54Z</time>
      </trkpt>
      <trkpt lat="47.24018" lon="-1.62087">
        <ele>13.8</ele>
        <time>2013-09-08T08:18:57Z</time>
      </trkpt>
      <trkpt lat="47.24019" lon="-1.621">
        <ele>14</ele>
        <time>2013-09-08T08:18:59Z</time>
      </trkpt>
      <trkpt lat="47.24018" lon="-1.62115">
        <ele>14.1</ele>
        <time>2013-09-08T08:19:01Z</time>
      </trkpt>
      <trkpt lat="47.24018" lon="-1.62132">
        <ele>14.3</ele>
        <time>2013-09-08T08:19:03Z</time>
      </trkpt>
      <trkpt lat="47.24017" lon="-1.62147">
        <ele>14.3</ele>
        <time>2013-09-08T08:19:05Z</time>
      </trkpt>
      <trkpt lat="47.24016" lon="-1.62168">
        <ele>14.8</ele>
        <time>2013-09-08T08:19:08Z</time>
      </trkpt>
      <trkpt lat="47.24014" lon="-1.62182">
        <ele>16</ele>
        <time>2013-09-08T08:19:10Z</time>
      </trkpt>
      <trkpt lat="47.24014" lon="-1.622">
        <ele>17</ele>
        <time>2013-09-08T08:19:13Z</time>
      </trkpt>
      <trkpt lat="47.24014" lon="-1.62214">
        <ele>17</ele>
        <time>2013-09-08T08:19:15Z</time>
      </trkpt>
      <trkpt lat="47.24013" lon="-1.62233">
        <ele>17.2</ele>
        <time>2013-09-08T08:19:18Z</time>
      </trkpt>
      <trkpt lat="47.24013" lon="-1.62248">
        <ele>17.4</ele>
        <time>2013-09-08T08:19:21Z</time>
      </trkpt>
      <trkpt lat="47.24013" lon="-1.62265">
        <ele>17.4</ele>
        <time>2013-09-08T08:19:24Z</time>
      </trkpt>
      <trkpt lat="47.24013" lon="-1.62283">
        <ele>17.6</ele>
        <time>2013-09-08T08:19:27Z</time>
      </trkpt>
      <trkpt lat="47.24014" lon="-1.62299">
        <ele>17.8</ele>
        <time>2013-09-08T08:19:30Z</time>
      </trkpt>
      <trkpt lat="47.24014" lon="-1.62314">
        <ele>18.7</ele>
        <time>2013-09-08T08:19:32Z</time>
      </trkpt>
      <trkpt lat="47.24013" lon="-1.6233">
        <ele>20.2</ele>
        <time>2013-09-08T08:19:34Z</time>
      </trkpt>
      <trkpt lat="47.24011" lon="-1.62346">
        <ele>21.1</ele>
        <time>2013-09-08T08:19:36Z</time>
      </trkpt>
      <trkpt lat="47.2401" lon="-1.6236">
        <ele>19.7</ele>
        <time>2013-09-08T08:19:38Z</time>
      </trkpt>
      <trkpt lat="47.2401" lon="-1.62374">
        <ele>19.1</ele>
        <time>2013-09-08T08:19:40Z</time>
      </trkpt>
      <trkpt lat="47.24011" lon="-1.62388">
        <ele>18.6</ele>
        <time>2013-09-08T08:19:42Z</time>
      </trkpt>
      <trkpt lat="47.24013" lon="-1.62401">
        <ele>17.2</ele>
        <time>2013-09-08T08:19:44Z</time>
      </trkpt>
      <trkpt lat="47.24015" lon="-1.62417">
        <ele>17.1</ele>
        <time>2013-09-08T08:19:47Z</time>
      </trkpt>
      <trkpt lat="47.24009" lon="-1.6243">
        <ele>16.9</ele>
        <time>2013-09-08T08:19:50Z</time>
      </trkpt>
      <trkpt lat="47.24009" lon="-1.62445">
        <ele>16.9</ele>
        <time>2013-09-08T08:19:53Z</time>
      </trkpt>
      <trkpt lat="47.24016" lon="-1.62455">
        <ele>16.6</ele>
        <time>2013-09-08T08:19:56Z</time>
      </trkpt>
      <trkpt lat="47.24023" lon="-1.62464">
        <ele>14.4</ele>
        <time>2013-09-08T08:19:58Z</time>
      </trkpt>
      <trkpt lat="47.24032" lon="-1.62476">
        <ele>14.4</ele>
        <time>2013-09-08T08:20:00Z</time>
      </trkpt>
      <trkpt lat="47.24039" lon="-1.62489">
        <ele>14.5</ele>
        <time>2013-09-08T08:20:02Z</time>
      </trkpt>
      <trkpt lat="47.24046" lon="-1.625">
        <ele>14.5</ele>
        <time>2013-09-08T08:20:04Z</time>
      </trkpt>
      <trkpt lat="47.24053" lon="-1.6251">
        <ele>14.7</ele>
        <time>2013-09-08T08:20:06Z</time>
      </trkpt>
      <trkpt lat="47.24062" lon="-1.62524">
        <ele>15</ele>
        <time>2013-09-08T08:20:09Z</time>
      </trkpt>
      <trkpt lat="47.24069" lon="-1.62534">
        <ele>15</ele>
        <time>2013-09-08T08:20:11Z</time>
      </trkpt>
      <trkpt lat="47.24081" lon="-1.62544">
        <ele>15</ele>
        <time>2013-09-08T08:20:14Z</time>
      </trkpt>
      <trkpt lat="47.24093" lon="-1.62547">
        <ele>15</ele>
        <time>2013-09-08T08:20:17Z</time>
      </trkpt>
      <trkpt lat="47.24102" lon="-1.62555">
        <ele>14.9</ele>
        <time>2013-09-08T08:20:20Z</time>
      </trkpt>
      <trkpt lat="47.24106" lon="-1.6257">
        <ele>14.7</ele>
        <time>2013-09-08T08:20:23Z</time>
      </trkpt>
      <trkpt lat="47.24102" lon="-1.62583">
        <ele>14.5</ele>
        <time>2013-09-08T08:20:26Z</time>
      </trkpt>
      <trkpt lat="47.24095" lon="-1.62599">
        <ele>14.4</ele>
        <time>2013-09-08T08:20:29Z</time>
      </trkpt>
      <trkpt lat="47.24087" lon="-1.62613">
        <ele>14.4</ele>
        <time>2013-09-08T08:20:31Z</time>
      </trkpt>
      <trkpt lat="47.2408" lon="-1.62626">
        <ele>14.3</ele>
        <time>2013-09-08T08:20:33Z</time>
      </trkpt>
      <trkpt lat="47.24072" lon="-1.6264">
        <ele>14.3</ele>
        <time>2013-09-08T08:20:35Z</time>
      </trkpt>
      <trkpt lat="47.24066" lon="-1.62652">
        <ele>14.6</ele>
        <time>2013-09-08T08:20:37Z</time>
      </trkpt>
      <trkpt lat="47.24061" lon="-1.62666">
        <ele>14.6</ele>
        <time>2013-09-08T08:20:41Z</time>
      </trkpt>
      <trkpt lat="47.24062" lon="-1.62679">
        <ele>14.8</ele>
        <time>2013-09-08T08:20:46Z</time>
      </trkpt>
      <trkpt lat="47.24066" lon="-1.62695">
        <ele>15.4</ele>
        <time>2013-09-08T08:20:53Z</time>
      </trkpt>
      <trkpt lat="47.24076" lon="-1.62711">
        <ele>13.4</ele>
        <time>2013-09-08T08:21:05Z</time>
      </trkpt>
      <trkpt lat="47.24084" lon="-1.62719">
        <ele>12.7</ele>
        <time>2013-09-08T08:21:12Z</time>
      </trkpt>
      <trkpt lat="47.24093" lon="-1.62734">
        <ele>12.7</ele>
        <time>2013-09-08T08:21:16Z</time>
      </trkpt>
      <trkpt lat="47.24097" lon="-1.62749">
        <ele>12.9</ele>
        <time>2013-09-08T08:21:18Z</time>
      </trkpt>
      <trkpt lat="47.24106" lon="-1.62765">
        <ele>13</ele>
        <time>2013-09-08T08:21:21Z</time>
      </trkpt>
      <trkpt lat="47.24115" lon="-1.62778">
        <ele>13.1</ele>
        <time>2013-09-08T08:21:24Z</time>
      </trkpt>
      <trkpt lat="47.24123" lon="-1.62789">
        <ele>13.1</ele>
        <time>2013-09-08T08:21:27Z</time>
      </trkpt>
      <trkpt lat="47.2413" lon="-1.62802">
        <ele>13.2</ele>
        <time>2013-09-08T08:21:31Z</time>
      </trkpt>
      <trkpt lat="47.24135" lon="-1.62814">
        <ele>13.1</ele>
        <time>2013-09-08T08:21:37Z</time>
      </trkpt>
      <trkpt lat="47.24142" lon="-1.62826">
        <ele>12.2</ele>
        <time>2013-09-08T08:21:46Z</time>
      </trkpt>
      <trkpt lat="47.2415" lon="-1.62834">
        <ele>11.5</ele>
        <time>2013-09-08T08:21:59Z</time>
      </trkpt>
      <trkpt lat="47.24158" lon="-1.62844">
        <ele>10.4</ele>
        <time>2013-09-08T08:22:04Z</time>
      </trkpt>
      <trkpt lat="47.24164" lon="-1.62856">
        <ele>10</ele>
        <time>2013-09-08T08:22:07Z</time>
      </trkpt>
      <trkpt lat="47.2417" lon="-1.62869">
        <ele>9.6</ele>
        <time>2013-09-08T08:22:10Z</time>
      </trkpt>
      <trkpt lat="47.24175" lon="-1.6288">
        <ele>9.2</ele>
        <time>2013-09-08T08:22:12Z</time>
      </trkpt>
      <trkpt lat="47.24182" lon="-1.62894">
        <ele>8.8</ele>
        <time>2013-09-08T08:22:15Z</time>
      </trkpt>
      <trkpt lat="47.24189" lon="-1.62907">
        <ele>8.6</ele>
        <time>2013-09-08T08:22:18Z</time>
      </trkpt>
      <trkpt lat="47.24195" lon="-1.62924">
        <ele>8.6</ele>
        <time>2013-09-08T08:22:21Z</time>
      </trkpt>
      <trkpt lat="47.24199" lon="-1.6294">
        <ele>8.3</ele>
        <time>2013-09-08T08:22:24Z</time>
      </trkpt>
      <trkpt lat="47.24203" lon="-1.62953">
        <ele>8</ele>
        <time>2013-09-08T08:22:27Z</time>
      </trkpt>
      <trkpt lat="47.24207" lon="-1.62966">
        <ele>8</ele>
        <time>2013-09-08T08:22:31Z</time>
      </trkpt>
      <trkpt lat="47.24208" lon="-1.62981">
        <ele>7.9</ele>
        <time>2013-09-08T08:22:34Z</time>
      </trkpt>
      <trkpt lat="47.24208" lon="-1.62997">
        <ele>7.9</ele>
        <time>2013-09-08T08:22:36Z</time>
      </trkpt>
      <trkpt lat="47.24207" lon="-1.63015">
        <ele>8.1</ele>
        <time>2013-09-08T08:22:38Z</time>
      </trkpt>
      <trkpt lat="47.24207" lon="-1.63035">
        <ele>8.7</ele>
        <time>2013-09-08T08:22:40Z</time>
      </trkpt>
      <trkpt lat="47.24205" lon="-1.63054">
        <ele>12.9</ele>
        <time>2013-09-08T08:22:42Z</time>
      </trkpt>
      <trkpt lat="47.24205" lon="-1.63068">
        <ele>18.2</ele>
        <time>2013-09-08T08:22:44Z</time>
      </trkpt>
      <trkpt lat="47.24207" lon="-1.63083">
        <ele>20.1</ele>
        <time>2013-09-08T08:22:46Z</time>
      </trkpt>
      <trkpt lat="47.24209" lon="-1.63099">
        <ele>21.2</ele>
        <time>2013-09-08T08:22:48Z</time>
      </trkpt>
      <trkpt lat="47.24212" lon="-1.63116">
        <ele>21.9</ele>
        <time>2013-09-08T08:22:50Z</time>
      </trkpt>
      <trkpt lat="47.24215" lon="-1.6313">
        <ele>21.8</ele>
        <time>2013-09-08T08:22:52Z</time>
      </trkpt>
      <trkpt lat="47.24221" lon="-1.63142">
        <ele>21.8</ele>
        <time>2013-09-08T08:22:55Z</time>
      </trkpt>
      <trkpt lat="47.2423" lon="-1.63155">
        <ele>20.3</ele>
        <time>2013-09-08T08:22:58Z</time>
      </trkpt>
      <trkpt lat="47.24238" lon="-1.63165">
        <ele>18.9</ele>
        <time>2013-09-08T08:23:00Z</time>
      </trkpt>
      <trkpt lat="47.24244" lon="-1.63174">
        <ele>18.1</ele>
        <time>2013-09-08T08:23:02Z</time>
      </trkpt>
      <trkpt lat="47.24251" lon="-1.63183">
        <ele>17.7</ele>
        <time>2013-09-08T08:23:04Z</time>
      </trkpt>
      <trkpt lat="47.24262" lon="-1.63193">
        <ele>16.4</ele>
        <time>2013-09-08T08:23:07Z</time>
      </trkpt>
      <trkpt lat="47.24272" lon="-1.63199">
        <ele>16.3</ele>
        <time>2013-09-08T08:23:10Z</time>
      </trkpt>
      <trkpt lat="47.24282" lon="-1.63204">
        <ele>16.5</ele>
        <time>2013-09-08T08:23:13Z</time>
      </trkpt>
      <trkpt lat="47.24292" lon="-1.63213">
        <ele>16.1</ele>
        <time>2013-09-08T08:23:16Z</time>
      </trkpt>
      <trkpt lat="47.24298" lon="-1.63226">
        <ele>16.3</ele>
        <time>2013-09-08T08:23:19Z</time>
      </trkpt>
      <trkpt lat="47.24304" lon="-1.63239">
        <ele>16.6</ele>
        <time>2013-09-08T08:23:22Z</time>
      </trkpt>
      <trkpt lat="47.24312" lon="-1.63251">
        <ele>16.6</ele>
        <time>2013-09-08T08:23:25Z</time>
      </trkpt>
      <trkpt lat="47.24321" lon="-1.63262">
        <ele>16.5</ele>
        <time>2013-09-08T08:23:29Z</time>
      </trkpt>
      <trkpt lat="47.2433" lon="-1.63271">
        <ele>16.2</ele>
        <time>2013-09-08T08:23:33Z</time>
      </trkpt>
      <trkpt lat="47.2434" lon="-1.63278">
        <ele>15.8</ele>
        <time>2013-09-08T08:23:37Z</time>
      </trkpt>
      <trkpt lat="47.24349" lon="-1.63286">
        <ele>15.2</ele>
        <time>2013-09-08T08:23:40Z</time>
      </trkpt>
      <trkpt lat="47.24359" lon="-1.63299">
        <ele>12</ele>
        <time>2013-09-08T08:23:43Z</time>
      </trkpt>
      <trkpt lat="47.24365" lon="-1.63308">
        <ele>7.8</ele>
        <time>2013-09-08T08:23:45Z</time>
      </trkpt>
      <trkpt lat="47.24372" lon="-1.63325">
        <ele>5.8</ele>
        <time>2013-09-08T08:23:48Z</time>
      </trkpt>
      <trkpt lat="47.24375" lon="-1.63341">
        <ele>5.8</ele>
        <time>2013-09-08T08:23:50Z</time>
      </trkpt>
      <trkpt lat="47.24376" lon="-1.63355">
        <ele>5.7</ele>
        <time>2013-09-08T08:23:52Z</time>
      </trkpt>
      <trkpt lat="47.24371" lon="-1.63371">
        <ele>4.1</ele>
        <time>2013-09-08T08:23:55Z</time>
      </trkpt>
      <trkpt lat="47.24368" lon="-1.63384">
        <ele>3.9</ele>
        <time>2013-09-08T08:23:58Z</time>
      </trkpt>
      <trkpt lat="47.24376" lon="-1.63392">
        <ele>3.6</ele>
        <time>2013-09-08T08:24:02Z</time>
      </trkpt>
      <trkpt lat="47.24384" lon="-1.63401">
        <ele>3.9</ele>
        <time>2013-09-08T08:24:06Z</time>
      </trkpt>
      <trkpt lat="47.24387" lon="-1.63419">
        <ele>4.9</ele>
        <time>2013-09-08T08:24:10Z</time>
      </trkpt>
      <trkpt lat="47.24389" lon="-1.63432">
        <ele>5.6</ele>
        <time>2013-09-08T08:24:12Z</time>
      </trkpt>
      <trkpt lat="47.24392" lon="-1.63449">
        <ele>6.7</ele>
        <time>2013-09-08T08:24:15Z</time>
      </trkpt>
      <trkpt lat="47.24394" lon="-1.63464">
        <ele>7.8</ele>
        <time>2013-09-08T08:24:18Z</time>
      </trkpt>
      <trkpt lat="47.24398" lon="-1.63481">
        <ele>8.8</ele>
        <time>2013-09-08T08:24:21Z</time>
      </trkpt>
      <trkpt lat="47.244" lon="-1.63499">
        <ele>9.6</ele>
        <time>2013-09-08T08:24:24Z</time>
      </trkpt>
      <trkpt lat="47.24398" lon="-1.63514">
        <ele>10.3</ele>
        <time>2013-09-08T08:24:27Z</time>
      </trkpt>
      <trkpt lat="47.2439" lon="-1.63525">
        <ele>14.9</ele>
        <time>2013-09-08T08:24:29Z</time>
      </trkpt>
      <trkpt lat="47.24383" lon="-1.63537">
        <ele>17.2</ele>
        <time>2013-09-08T08:24:31Z</time>
      </trkpt>
      <trkpt lat="47.2438" lon="-1.63554">
        <ele>19.2</ele>
        <time>2013-09-08T08:24:33Z</time>
      </trkpt>
      <trkpt lat="47.2438" lon="-1.63569">
        <ele>21.8</ele>
        <time>2013-09-08T08:24:35Z</time>
      </trkpt>
      <trkpt lat="47.24383" lon="-1.63584">
        <ele>21.9</ele>
        <time>2013-09-08T08:24:38Z</time>
      </trkpt>
      <trkpt lat="47.24385" lon="-1.63601">
        <ele>21.6</ele>
        <time>2013-09-08T08:24:41Z</time>
      </trkpt>
      <trkpt lat="47.24389" lon="-1.63616">
        <ele>21.5</ele>
        <time>2013-09-08T08:24:44Z</time>
      </trkpt>
      <trkpt lat="47.24395" lon="-1.63632">
        <ele>21.7</ele>
        <time>2013-09-08T08:24:47Z</time>
      </trkpt>
      <trkpt lat="47.24397" lon="-1.63645">
        <ele>22.1</ele>
        <time>2013-09-08T08:24:50Z</time>
      </trkpt>
      <trkpt lat="47.24399" lon="-1.63663">
        <ele>22.4</ele>
        <time>2013-09-08T08:24:53Z</time>
      </trkpt>
      <trkpt lat="47.24398" lon="-1.63678">
        <ele>22.6</ele>
        <time>2013-09-08T08:24:56Z</time>
      </trkpt>
      <trkpt lat="47.24397" lon="-1.63696">
        <ele>23</ele>
        <time>2013-09-08T08:25:00Z</time>
      </trkpt>
      <trkpt lat="47.24395" lon="-1.6371">
        <ele>23.4</ele>
        <time>2013-09-08T08:25:03Z</time>
      </trkpt>
      <trkpt lat="47.24392" lon="-1.63729">
        <ele>23.7</ele>
        <time>2013-09-08T08:25:06Z</time>
      </trkpt>
      <trkpt lat="47.24392" lon="-1.63744">
        <ele>23.8</ele>
        <time>2013-09-08T08:25:08Z</time>
      </trkpt>
      <trkpt lat="47.24397" lon="-1.63756">
        <ele>24.3</ele>
        <time>2013-09-08T08:25:11Z</time>
      </trkpt>
      <trkpt lat="47.24405" lon="-1.63747">
        <ele>24.6</ele>
        <time>2013-09-08T08:25:18Z</time>
      </trkpt>
      <trkpt lat="47.24414" lon="-1.63745">
        <ele>24.7</ele>
        <time>2013-09-08T08:25:28Z</time>
      </trkpt>
      <trkpt lat="47.24405" lon="-1.63744">
        <ele>24.8</ele>
        <time>2013-09-08T08:26:06Z</time>
      </trkpt>
      <trkpt lat="47.24415" lon="-1.63744">
        <ele>24.4</ele>
        <time>2013-09-08T08:26:13Z</time>
      </trkpt>
      <trkpt lat="47.24425" lon="-1.63743">
        <ele>24.5</ele>
        <time>2013-09-08T08:26:17Z</time>
      </trkpt>
      <trkpt lat="47.24436" lon="-1.63746">
        <ele>24.8</ele>
        <time>2013-09-08T08:26:21Z</time>
      </trkpt>
      <trkpt lat="47.24445" lon="-1.6375">
        <ele>25</ele>
        <time>2013-09-08T08:26:24Z</time>
      </trkpt>
      <trkpt lat="47.24453" lon="-1.63757">
        <ele>25.2</ele>
        <time>2013-09-08T08:26:27Z</time>
      </trkpt>
      <trkpt lat="47.24465" lon="-1.63765">
        <ele>25.4</ele>
        <time>2013-09-08T08:26:30Z</time>
      </trkpt>
      <trkpt lat="47.24474" lon="-1.63772">
        <ele>25.7</ele>
        <time>2013-09-08T08:26:33Z</time>
      </trkpt>
      <trkpt lat="47.24483" lon="-1.63779">
        <ele>25.7</ele>
        <time>2013-09-08T08:26:36Z</time>
      </trkpt>
      <trkpt lat="47.24493" lon="-1.63785">
        <ele>25.4</ele>
        <time>2013-09-08T08:26:39Z</time>
      </trkpt>
      <trkpt lat="47.24502" lon="-1.63794">
        <ele>24.9</ele>
        <time>2013-09-08T08:26:42Z</time>
      </trkpt>
      <trkpt lat="47.24512" lon="-1.63803">
        <ele>24.2</ele>
        <time>2013-09-08T08:26:45Z</time>
      </trkpt>
      <trkpt lat="47.24523" lon="-1.63808">
        <ele>23.6</ele>
        <time>2013-09-08T08:26:48Z</time>
      </trkpt>
      <trkpt lat="47.24535" lon="-1.63809">
        <ele>23.3</ele>
        <time>2013-09-08T08:26:51Z</time>
      </trkpt>
      <trkpt lat="47.24547" lon="-1.63807">
        <ele>23.4</ele>
        <time>2013-09-08T08:26:54Z</time>
      </trkpt>
      <trkpt lat="47.24559" lon="-1.63801">
        <ele>25</ele>
        <time>2013-09-08T08:26:57Z</time>
      </trkpt>
      <trkpt lat="47.24569" lon="-1.63794">
        <ele>26.3</ele>
        <time>2013-09-08T08:27:00Z</time>
      </trkpt>
      <trkpt lat="47.24581" lon="-1.63787">
        <ele>29.3</ele>
        <time>2013-09-08T08:27:03Z</time>
      </trkpt>
      <trkpt lat="47.24591" lon="-1.63779">
        <ele>29.6</ele>
        <time>2013-09-08T08:27:06Z</time>
      </trkpt>
      <trkpt lat="47.24601" lon="-1.63773">
        <ele>29.8</ele>
        <time>2013-09-08T08:27:09Z</time>
      </trkpt>
      <trkpt lat="47.24611" lon="-1.63768">
        <ele>29.7</ele>
        <time>2013-09-08T08:27:13Z</time>
      </trkpt>
      <trkpt lat="47.2462" lon="-1.63764">
        <ele>30</ele>
        <time>2013-09-08T08:27:16Z</time>
      </trkpt>
      <trkpt lat="47.24632" lon="-1.63766">
        <ele>30.4</ele>
        <time>2013-09-08T08:27:19Z</time>
      </trkpt>
      <trkpt lat="47.24644" lon="-1.63773">
        <ele>30.8</ele>
        <time>2013-09-08T08:27:22Z</time>
      </trkpt>
      <trkpt lat="47.24654" lon="-1.63783">
        <ele>31.9</ele>
        <time>2013-09-08T08:27:25Z</time>
      </trkpt>
      <trkpt lat="47.24664" lon="-1.63794">
        <ele>34.4</ele>
        <time>2013-09-08T08:27:28Z</time>
      </trkpt>
      <trkpt lat="47.24674" lon="-1.638">
        <ele>34.5</ele>
        <time>2013-09-08T08:27:31Z</time>
      </trkpt>
      <trkpt lat="47.24686" lon="-1.63796">
        <ele>35</ele>
        <time>2013-09-08T08:27:34Z</time>
      </trkpt>
      <trkpt lat="47.24698" lon="-1.63787">
        <ele>35</ele>
        <time>2013-09-08T08:27:37Z</time>
      </trkpt>
      <trkpt lat="47.24705" lon="-1.63777">
        <ele>34.7</ele>
        <time>2013-09-08T08:27:40Z</time>
      </trkpt>
      <trkpt lat="47.24711" lon="-1.63766">
        <ele>34.7</ele>
        <time>2013-09-08T08:27:42Z</time>
      </trkpt>
      <trkpt lat="47.24718" lon="-1.63757">
        <ele>34.6</ele>
        <time>2013-09-08T08:27:44Z</time>
      </trkpt>
      <trkpt lat="47.24725" lon="-1.63742">
        <ele>34.7</ele>
        <time>2013-09-08T08:27:47Z</time>
      </trkpt>
      <trkpt lat="47.24732" lon="-1.6373">
        <ele>34.8</ele>
        <time>2013-09-08T08:27:51Z</time>
      </trkpt>
      <trkpt lat="47.24739" lon="-1.63722">
        <ele>35.4</ele>
        <time>2013-09-08T08:27:58Z</time>
      </trkpt>
      <trkpt lat="47.24749" lon="-1.63721">
        <ele>36.5</ele>
        <time>2013-09-08T08:28:04Z</time>
      </trkpt>
      <trkpt lat="47.24758" lon="-1.63723">
        <ele>37</ele>
        <time>2013-09-08T08:28:09Z</time>
      </trkpt>
      <trkpt lat="47.24768" lon="-1.63727">
        <ele>36.8</ele>
        <time>2013-09-08T08:28:13Z</time>
      </trkpt>
      <trkpt lat="47.24778" lon="-1.63728">
        <ele>36.7</ele>
        <time>2013-09-08T08:28:18Z</time>
      </trkpt>
      <trkpt lat="47.24786" lon="-1.63733">
        <ele>36.3</ele>
        <time>2013-09-08T08:28:23Z</time>
      </trkpt>
      <trkpt lat="47.24796" lon="-1.63734">
        <ele>36.2</ele>
        <time>2013-09-08T08:28:28Z</time>
      </trkpt>
      <trkpt lat="47.24805" lon="-1.63738">
        <ele>35.9</ele>
        <time>2013-09-08T08:28:31Z</time>
      </trkpt>
      <trkpt lat="47.24814" lon="-1.63742">
        <ele>35.9</ele>
        <time>2013-09-08T08:28:34Z</time>
      </trkpt>
      <trkpt lat="47.24825" lon="-1.63747">
        <ele>36.2</ele>
        <time>2013-09-08T08:28:38Z</time>
      </trkpt>
      <trkpt lat="47.24835" lon="-1.63753">
        <ele>36.2</ele>
        <time>2013-09-08T08:28:41Z</time>
      </trkpt>
      <trkpt lat="47.24845" lon="-1.63757">
        <ele>36.3</ele>
        <time>2013-09-08T08:28:44Z</time>
      </trkpt>
      <trkpt lat="47.24858" lon="-1.63763">
        <ele>35.9</ele>
        <time>2013-09-08T08:28:47Z</time>
      </trkpt>
      <trkpt lat="47.24871" lon="-1.63769">
        <ele>35.3</ele>
        <time>2013-09-08T08:28:50Z</time>
      </trkpt>
      <trkpt lat="47.24882" lon="-1.63774">
        <ele>34.5</ele>
        <time>2013-09-08T08:28:53Z</time>
      </trkpt>
      <trkpt lat="47.24894" lon="-1.63776">
        <ele>34.1</ele>
        <time>2013-09-08T08:28:56Z</time>
      </trkpt>
      <trkpt lat="47.24904" lon="-1.63778">
        <ele>34</ele>
        <time>2013-09-08T08:28:58Z</time>
      </trkpt>
      <trkpt lat="47.24913" lon="-1.6378">
        <ele>34</ele>
        <time>2013-09-08T08:29:00Z</time>
      </trkpt>
      <trkpt lat="47.24923" lon="-1.63783">
        <ele>34.1</ele>
        <time>2013-09-08T08:29:02Z</time>
      </trkpt>
      <trkpt lat="47.24932" lon="-1.63788">
        <ele>34.3</ele>
        <time>2013-09-08T08:29:04Z</time>
      </trkpt>
      <trkpt lat="47.24941" lon="-1.638">
        <ele>36.1</ele>
        <time>2013-09-08T08:29:06Z</time>
      </trkpt>
      <trkpt lat="47.24951" lon="-1.63818">
        <ele>39.6</ele>
        <time>2013-09-08T08:29:08Z</time>
      </trkpt>
      <trkpt lat="47.24957" lon="-1.63832">
        <ele>42.7</ele>
        <time>2013-09-08T08:29:10Z</time>
      </trkpt>
      <trkpt lat="47.24963" lon="-1.63844">
        <ele>45.8</ele>
        <time>2013-09-08T08:29:12Z</time>
      </trkpt>
      <trkpt lat="47.24969" lon="-1.63859">
        <ele>47.5</ele>
        <time>2013-09-08T08:29:15Z</time>
      </trkpt>
      <trkpt lat="47.24973" lon="-1.63872">
        <ele>47.9</ele>
        <time>2013-09-08T08:29:18Z</time>
      </trkpt>
      <trkpt lat="47.24978" lon="-1.63886">
        <ele>48.2</ele>
        <time>2013-09-08T08:29:21Z</time>
      </trkpt>
      <trkpt lat="47.24983" lon="-1.639">
        <ele>48.5</ele>
        <time>2013-09-08T08:29:24Z</time>
      </trkpt>
      <trkpt lat="47.24989" lon="-1.63913">
        <ele>49</ele>
        <time>2013-09-08T08:29:27Z</time>
      </trkpt>
      <trkpt lat="47.24993" lon="-1.63928">
        <ele>49.5</ele>
        <time>2013-09-08T08:29:31Z</time>
      </trkpt>
      <trkpt lat="47.25" lon="-1.6394">
        <ele>49.6</ele>
        <time>2013-09-08T08:29:34Z</time>
      </trkpt>
      <trkpt lat="47.25009" lon="-1.63947">
        <ele>49.6</ele>
        <time>2013-09-08T08:29:37Z</time>
      </trkpt>
      <trkpt lat="47.25018" lon="-1.63946">
        <ele>49.8</ele>
        <time>2013-09-08T08:29:40Z</time>
      </trkpt>
      <trkpt lat="47.25029" lon="-1.63938">
        <ele>49.9</ele>
        <time>2013-09-08T08:29:43Z</time>
      </trkpt>
      <trkpt lat="47.2504" lon="-1.63928">
        <ele>50</ele>
        <time>2013-09-08T08:29:46Z</time>
      </trkpt>
      <trkpt lat="47.25049" lon="-1.63921">
        <ele>50.6</ele>
        <time>2013-09-08T08:29:48Z</time>
      </trkpt>
      <trkpt lat="47.25059" lon="-1.63913">
        <ele>50.7</ele>
        <time>2013-09-08T08:29:51Z</time>
      </trkpt>
      <trkpt lat="47.25069" lon="-1.63905">
        <ele>50.9</ele>
        <time>2013-09-08T08:29:54Z</time>
      </trkpt>
      <trkpt lat="47.25078" lon="-1.63897">
        <ele>51</ele>
        <time>2013-09-08T08:29:56Z</time>
      </trkpt>
      <trkpt lat="47.25085" lon="-1.63889">
        <ele>52</ele>
        <time>2013-09-08T08:29:58Z</time>
      </trkpt>
      <trkpt lat="47.25095" lon="-1.63876">
        <ele>52</ele>
        <time>2013-09-08T08:30:01Z</time>
      </trkpt>
      <trkpt lat="47.25103" lon="-1.63865">
        <ele>51.1</ele>
        <time>2013-09-08T08:30:03Z</time>
      </trkpt>
      <trkpt lat="47.25111" lon="-1.63851">
        <ele>50.5</ele>
        <time>2013-09-08T08:30:06Z</time>
      </trkpt>
      <trkpt lat="47.25118" lon="-1.63838">
        <ele>50.7</ele>
        <time>2013-09-08T08:30:08Z</time>
      </trkpt>
      <trkpt lat="47.25124" lon="-1.63829">
        <ele>50.7</ele>
        <time>2013-09-08T08:30:10Z</time>
      </trkpt>
      <trkpt lat="47.25132" lon="-1.63818">
        <ele>50.8</ele>
        <time>2013-09-08T08:30:13Z</time>
      </trkpt>
      <trkpt lat="47.25142" lon="-1.63809">
        <ele>50.4</ele>
        <time>2013-09-08T08:30:16Z</time>
      </trkpt>
      <trkpt lat="47.25151" lon="-1.63805">
        <ele>48.2</ele>
        <time>2013-09-08T08:30:18Z</time>
      </trkpt>
      <trkpt lat="47.25163" lon="-1.638">
        <ele>45.9</ele>
        <time>2013-09-08T08:30:20Z</time>
      </trkpt>
      <trkpt lat="47.25173" lon="-1.63798">
        <ele>45.8</ele>
        <time>2013-09-08T08:30:22Z</time>
      </trkpt>
      <trkpt lat="47.25183" lon="-1.63798">
        <ele>45.7</ele>
        <time>2013-09-08T08:30:24Z</time>
      </trkpt>
      <trkpt lat="47.25192" lon="-1.638">
        <ele>46</ele>
        <time>2013-09-08T08:30:26Z</time>
      </trkpt>
      <trkpt lat="47.25202" lon="-1.63806">
        <ele>46.4</ele>
        <time>2013-09-08T08:30:28Z</time>
      </trkpt>
      <trkpt lat="47.25211" lon="-1.63814">
        <ele>47.3</ele>
        <time>2013-09-08T08:30:30Z</time>
      </trkpt>
      <trkpt lat="47.25219" lon="-1.63822">
        <ele>46.9</ele>
        <time>2013-09-08T08:30:32Z</time>
      </trkpt>
      <trkpt lat="47.25231" lon="-1.63828">
        <ele>44.3</ele>
        <time>2013-09-08T08:30:35Z</time>
      </trkpt>
      <trkpt lat="47.25242" lon="-1.63827">
        <ele>44.2</ele>
        <time>2013-09-08T08:30:38Z</time>
      </trkpt>
      <trkpt lat="47.25253" lon="-1.63823">
        <ele>44.2</ele>
        <time>2013-09-08T08:30:41Z</time>
      </trkpt>
      <trkpt lat="47.25264" lon="-1.63814">
        <ele>44.1</ele>
        <time>2013-09-08T08:30:44Z</time>
      </trkpt>
      <trkpt lat="47.25272" lon="-1.63804">
        <ele>43.9</ele>
        <time>2013-09-08T08:30:47Z</time>
      </trkpt>
      <trkpt lat="47.25281" lon="-1.63796">
        <ele>43.5</ele>
        <time>2013-09-08T08:30:50Z</time>
      </trkpt>
      <trkpt lat="47.25287" lon="-1.63785">
        <ele>43.5</ele>
        <time>2013-09-08T08:30:52Z</time>
      </trkpt>
      <trkpt lat="47.25289" lon="-1.6377">
        <ele>43.4</ele>
        <time>2013-09-08T08:30:55Z</time>
      </trkpt>
      <trkpt lat="47.25291" lon="-1.63751">
        <ele>43.4</ele>
        <time>2013-09-08T08:30:58Z</time>
      </trkpt>
      <trkpt lat="47.25295" lon="-1.63735">
        <ele>43.5</ele>
        <time>2013-09-08T08:31:01Z</time>
      </trkpt>
      <trkpt lat="47.25298" lon="-1.63723">
        <ele>43.7</ele>
        <time>2013-09-08T08:31:04Z</time>
      </trkpt>
      <trkpt lat="47.25291" lon="-1.63713">
        <ele>44.3</ele>
        <time>2013-09-08T08:31:11Z</time>
      </trkpt>
      <trkpt lat="47.25281" lon="-1.63713">
        <ele>44.6</ele>
        <time>2013-09-08T08:31:15Z</time>
      </trkpt>
      <trkpt lat="47.2527" lon="-1.63717">
        <ele>45.1</ele>
        <time>2013-09-08T08:31:19Z</time>
      </trkpt>
      <trkpt lat="47.2526" lon="-1.63714">
        <ele>45.7</ele>
        <time>2013-09-08T08:31:23Z</time>
      </trkpt>
      <trkpt lat="47.25249" lon="-1.63716">
        <ele>46.4</ele>
        <time>2013-09-08T08:31:29Z</time>
      </trkpt>
      <trkpt lat="47.25241" lon="-1.6371">
        <ele>47.1</ele>
        <time>2013-09-08T08:31:33Z</time>
      </trkpt>
      <trkpt lat="47.25232" lon="-1.63704">
        <ele>47.5</ele>
        <time>2013-09-08T08:31:37Z</time>
      </trkpt>
      <trkpt lat="47.25221" lon="-1.63701">
        <ele>47.2</ele>
        <time>2013-09-08T08:31:41Z</time>
      </trkpt>
      <trkpt lat="47.25211" lon="-1.63695">
        <ele>47</ele>
        <time>2013-09-08T08:31:44Z</time>
      </trkpt>
      <trkpt lat="47.25203" lon="-1.63688">
        <ele>47.4</ele>
        <time>2013-09-08T08:31:48Z</time>
      </trkpt>
      <trkpt lat="47.25195" lon="-1.63678">
        <ele>47.1</ele>
        <time>2013-09-08T08:31:53Z</time>
      </trkpt>
      <trkpt lat="47.25189" lon="-1.63667">
        <ele>46.5</ele>
        <time>2013-09-08T08:31:57Z</time>
      </trkpt>
      <trkpt lat="47.25179" lon="-1.63669">
        <ele>45.3</ele>
        <time>2013-09-08T08:32:03Z</time>
      </trkpt>
      <trkpt lat="47.25169" lon="-1.63667">
        <ele>43.6</ele>
        <time>2013-09-08T08:32:09Z</time>
      </trkpt>
      <trkpt lat="47.25166" lon="-1.63653">
        <ele>42.9</ele>
        <time>2013-09-08T08:32:17Z</time>
      </trkpt>
      <trkpt lat="47.25162" lon="-1.6364">
        <ele>45</ele>
        <time>2013-09-08T08:32:47Z</time>
      </trkpt>
      <trkpt lat="47.25157" lon="-1.63622">
        <ele>46.2</ele>
        <time>2013-09-08T08:32:51Z</time>
      </trkpt>
      <trkpt lat="47.25155" lon="-1.63609">
        <ele>47.7</ele>
        <time>2013-09-08T08:32:54Z</time>
      </trkpt>
      <trkpt lat="47.2515" lon="-1.63593">
        <ele>49</ele>
        <time>2013-09-08T08:32:58Z</time>
      </trkpt>
      <trkpt lat="47.25147" lon="-1.63578">
        <ele>49.8</ele>
        <time>2013-09-08T08:33:02Z</time>
      </trkpt>
      <trkpt lat="47.25145" lon="-1.63564">
        <ele>50.3</ele>
        <time>2013-09-08T08:33:06Z</time>
      </trkpt>
      <trkpt lat="47.25145" lon="-1.63551">
        <ele>50.6</ele>
        <time>2013-09-08T08:33:10Z</time>
      </trkpt>
      <trkpt lat="47.2515" lon="-1.63539">
        <ele>50.8</ele>
        <time>2013-09-08T08:33:14Z</time>
      </trkpt>
      <trkpt lat="47.25159" lon="-1.63528">
        <ele>50.5</ele>
        <time>2013-09-08T08:33:17Z</time>
      </trkpt>
      <trkpt lat="47.25168" lon="-1.63521">
        <ele>50.3</ele>
        <time>2013-09-08T08:33:20Z</time>
      </trkpt>
      <trkpt lat="47.2518" lon="-1.63513">
        <ele>49.5</ele>
        <time>2013-09-08T08:33:23Z</time>
      </trkpt>
      <trkpt lat="47.2519" lon="-1.6351">
        <ele>49.2</ele>
        <time>2013-09-08T08:33:25Z</time>
      </trkpt>
      <trkpt lat="47.252" lon="-1.63513">
        <ele>49.1</ele>
        <time>2013-09-08T08:33:27Z</time>
      </trkpt>
      <trkpt lat="47.25212" lon="-1.6352">
        <ele>49.2</ele>
        <time>2013-09-08T08:33:30Z</time>
      </trkpt>
      <trkpt lat="47.25222" lon="-1.63529">
        <ele>49</ele>
        <time>2013-09-08T08:33:33Z</time>
      </trkpt>
      <trkpt lat="47.25231" lon="-1.63536">
        <ele>48.9</ele>
        <time>2013-09-08T08:33:35Z</time>
      </trkpt>
      <trkpt lat="47.25244" lon="-1.6355">
        <ele>48.6</ele>
        <time>2013-09-08T08:33:38Z</time>
      </trkpt>
      <trkpt lat="47.25252" lon="-1.63558">
        <ele>48.3</ele>
        <time>2013-09-08T08:33:40Z</time>
      </trkpt>
      <trkpt lat="47.25262" lon="-1.63565">
        <ele>47.6</ele>
        <time>2013-09-08T08:33:42Z</time>
      </trkpt>
      <trkpt lat="47.25271" lon="-1.63574">
        <ele>46.9</ele>
        <time>2013-09-08T08:33:44Z</time>
      </trkpt>
      <trkpt lat="47.25281" lon="-1.63581">
        <ele>47.9</ele>
        <time>2013-09-08T08:33:46Z</time>
      </trkpt>
      <trkpt lat="47.25291" lon="-1.63591">
        <ele>47.6</ele>
        <time>2013-09-08T08:33:48Z</time>
      </trkpt>
      <trkpt lat="47.25301" lon="-1.63601">
        <ele>47</ele>
        <time>2013-09-08T08:33:50Z</time>
      </trkpt>
      <trkpt lat="47.25309" lon="-1.63608">
        <ele>46.1</ele>
        <time>2013-09-08T08:33:52Z</time>
      </trkpt>
      <trkpt lat="47.2532" lon="-1.63615">
        <ele>45.8</ele>
        <time>2013-09-08T08:33:55Z</time>
      </trkpt>
      <trkpt lat="47.25332" lon="-1.63624">
        <ele>45.9</ele>
        <time>2013-09-08T08:33:58Z</time>
      </trkpt>
      <trkpt lat="47.25343" lon="-1.63631">
        <ele>46.1</ele>
        <time>2013-09-08T08:34:00Z</time>
      </trkpt>
      <trkpt lat="47.25354" lon="-1.6364">
        <ele>46.5</ele>
        <time>2013-09-08T08:34:02Z</time>
      </trkpt>
      <trkpt lat="47.25364" lon="-1.63647">
        <ele>46.4</ele>
        <time>2013-09-08T08:34:04Z</time>
      </trkpt>
      <trkpt lat="47.25373" lon="-1.63653">
        <ele>47.1</ele>
        <time>2013-09-08T08:34:06Z</time>
      </trkpt>
      <trkpt lat="47.25383" lon="-1.63657">
        <ele>47.5</ele>
        <time>2013-09-08T08:34:08Z</time>
      </trkpt>
      <trkpt lat="47.25394" lon="-1.63663">
        <ele>47.9</ele>
        <time>2013-09-08T08:34:10Z</time>
      </trkpt>
      <trkpt lat="47.25405" lon="-1.63668">
        <ele>47.9</ele>
        <time>2013-09-08T08:34:12Z</time>
      </trkpt>
      <trkpt lat="47.25417" lon="-1.6367">
        <ele>47.4</ele>
        <time>2013-09-08T08:34:15Z</time>
      </trkpt>
      <trkpt lat="47.25429" lon="-1.63671">
        <ele>47.4</ele>
        <time>2013-09-08T08:34:18Z</time>
      </trkpt>
      <trkpt lat="47.25438" lon="-1.63669">
        <ele>47.8</ele>
        <time>2013-09-08T08:34:21Z</time>
      </trkpt>
      <trkpt lat="47.25449" lon="-1.63666">
        <ele>47.9</ele>
        <time>2013-09-08T08:34:24Z</time>
      </trkpt>
      <trkpt lat="47.25458" lon="-1.63662">
        <ele>48.4</ele>
        <time>2013-09-08T08:34:26Z</time>
      </trkpt>
      <trkpt lat="47.25467" lon="-1.63657">
        <ele>48.6</ele>
        <time>2013-09-08T08:34:28Z</time>
      </trkpt>
      <trkpt lat="47.25476" lon="-1.63651">
        <ele>48.4</ele>
        <time>2013-09-08T08:34:30Z</time>
      </trkpt>
      <trkpt lat="47.25487" lon="-1.63645">
        <ele>48.6</ele>
        <time>2013-09-08T08:34:32Z</time>
      </trkpt>
      <trkpt lat="47.255" lon="-1.63638">
        <ele>49</ele>
        <time>2013-09-08T08:34:34Z</time>
      </trkpt>
      <trkpt lat="47.2551" lon="-1.63633">
        <ele>49.5</ele>
        <time>2013-09-08T08:34:36Z</time>
      </trkpt>
      <trkpt lat="47.25521" lon="-1.63627">
        <ele>50.1</ele>
        <time>2013-09-08T08:34:38Z</time>
      </trkpt>
      <trkpt lat="47.2553" lon="-1.63619">
        <ele>50.3</ele>
        <time>2013-09-08T08:34:40Z</time>
      </trkpt>
      <trkpt lat="47.25536" lon="-1.63607">
        <ele>50.3</ele>
        <time>2013-09-08T08:34:42Z</time>
      </trkpt>
      <trkpt lat="47.2554" lon="-1.63592">
        <ele>50.3</ele>
        <time>2013-09-08T08:34:44Z</time>
      </trkpt>
      <trkpt lat="47.25538" lon="-1.63575">
        <ele>50.4</ele>
        <time>2013-09-08T08:34:47Z</time>
      </trkpt>
      <trkpt lat="47.25535" lon="-1.63556">
        <ele>50.7</ele>
        <time>2013-09-08T08:34:50Z</time>
      </trkpt>
      <trkpt lat="47.25533" lon="-1.63539">
        <ele>50.9</ele>
        <time>2013-09-08T08:34:53Z</time>
      </trkpt>
      <trkpt lat="47.2553" lon="-1.63521">
        <ele>51.2</ele>
        <time>2013-09-08T08:34:56Z</time>
      </trkpt>
      <trkpt lat="47.25529" lon="-1.63508">
        <ele>51.3</ele>
        <time>2013-09-08T08:34:58Z</time>
      </trkpt>
      <trkpt lat="47.25529" lon="-1.63493">
        <ele>51.6</ele>
        <time>2013-09-08T08:35:00Z</time>
      </trkpt>
      <trkpt lat="47.2553" lon="-1.63477">
        <ele>51.9</ele>
        <time>2013-09-08T08:35:02Z</time>
      </trkpt>
      <trkpt lat="47.25531" lon="-1.63459">
        <ele>52.3</ele>
        <time>2013-09-08T08:35:05Z</time>
      </trkpt>
      <trkpt lat="47.25532" lon="-1.6344">
        <ele>52.6</ele>
        <time>2013-09-08T08:35:08Z</time>
      </trkpt>
      <trkpt lat="47.25531" lon="-1.63421">
        <ele>53</ele>
        <time>2013-09-08T08:35:11Z</time>
      </trkpt>
      <trkpt lat="47.25529" lon="-1.63406">
        <ele>53.5</ele>
        <time>2013-09-08T08:35:14Z</time>
      </trkpt>
      <trkpt lat="47.25526" lon="-1.63388">
        <ele>54.4</ele>
        <time>2013-09-08T08:35:18Z</time>
      </trkpt>
      <trkpt lat="47.25521" lon="-1.63372">
        <ele>55.1</ele>
        <time>2013-09-08T08:35:22Z</time>
      </trkpt>
      <trkpt lat="47.25513" lon="-1.63359">
        <ele>55.7</ele>
        <time>2013-09-08T08:35:26Z</time>
      </trkpt>
      <trkpt lat="47.25506" lon="-1.63349">
        <ele>55.8</ele>
        <time>2013-09-08T08:35:29Z</time>
      </trkpt>
      <trkpt lat="47.25499" lon="-1.63336">
        <ele>55.8</ele>
        <time>2013-09-08T08:35:32Z</time>
      </trkpt>
      <trkpt lat="47.25492" lon="-1.63323">
        <ele>55.8</ele>
        <time>2013-09-08T08:35:35Z</time>
      </trkpt>
      <trkpt lat="47.25485" lon="-1.6331">
        <ele>55.7</ele>
        <time>2013-09-08T08:35:38Z</time>
      </trkpt>
      <trkpt lat="47.25479" lon="-1.63295">
        <ele>55.7</ele>
        <time>2013-09-08T08:35:41Z</time>
      </trkpt>
      <trkpt lat="47.25474" lon="-1.6328">
        <ele>55.7</ele>
        <time>2013-09-08T08:35:44Z</time>
      </trkpt>
      <trkpt lat="47.25472" lon="-1.63264">
        <ele>56.2</ele>
        <time>2013-09-08T08:35:47Z</time>
      </trkpt>
      <trkpt lat="47.25466" lon="-1.63246">
        <ele>56.4</ele>
        <time>2013-09-08T08:35:50Z</time>
      </trkpt>
      <trkpt lat="47.25461" lon="-1.63233">
        <ele>55.7</ele>
        <time>2013-09-08T08:35:52Z</time>
      </trkpt>
      <trkpt lat="47.25456" lon="-1.63218">
        <ele>55</ele>
        <time>2013-09-08T08:35:54Z</time>
      </trkpt>
      <trkpt lat="47.25453" lon="-1.63202">
        <ele>55.2</ele>
        <time>2013-09-08T08:35:56Z</time>
      </trkpt>
      <trkpt lat="47.25449" lon="-1.63186">
        <ele>54.1</ele>
        <time>2013-09-08T08:35:58Z</time>
      </trkpt>
      <trkpt lat="47.25444" lon="-1.63172">
        <ele>53.2</ele>
        <time>2013-09-08T08:36:00Z</time>
      </trkpt>
      <trkpt lat="47.2544" lon="-1.63159">
        <ele>52.7</ele>
        <time>2013-09-08T08:36:02Z</time>
      </trkpt>
      <trkpt lat="47.25436" lon="-1.63145">
        <ele>52.4</ele>
        <time>2013-09-08T08:36:04Z</time>
      </trkpt>
      <trkpt lat="47.25432" lon="-1.6313">
        <ele>50.5</ele>
        <time>2013-09-08T08:36:06Z</time>
      </trkpt>
      <trkpt lat="47.25429" lon="-1.63116">
        <ele>48.8</ele>
        <time>2013-09-08T08:36:08Z</time>
      </trkpt>
      <trkpt lat="47.25429" lon="-1.63101">
        <ele>48.4</ele>
        <time>2013-09-08T08:36:10Z</time>
      </trkpt>
      <trkpt lat="47.25436" lon="-1.63085">
        <ele>48.1</ele>
        <time>2013-09-08T08:36:13Z</time>
      </trkpt>
      <trkpt lat="47.25446" lon="-1.63075">
        <ele>48.1</ele>
        <time>2013-09-08T08:36:16Z</time>
      </trkpt>
      <trkpt lat="47.25453" lon="-1.63062">
        <ele>48.1</ele>
        <time>2013-09-08T08:36:19Z</time>
      </trkpt>
      <trkpt lat="47.25461" lon="-1.63053">
        <ele>48.2</ele>
        <time>2013-09-08T08:36:23Z</time>
      </trkpt>
      <trkpt lat="47.25472" lon="-1.63047">
        <ele>48.5</ele>
        <time>2013-09-08T08:36:28Z</time>
      </trkpt>
      <trkpt lat="47.2548" lon="-1.6304">
        <ele>48.1</ele>
        <time>2013-09-08T08:36:31Z</time>
      </trkpt>
      <trkpt lat="47.25489" lon="-1.63038">
        <ele>48.1</ele>
        <time>2013-09-08T08:36:41Z</time>
      </trkpt>
      <trkpt lat="47.25497" lon="-1.6303">
        <ele>52.1</ele>
        <time>2013-09-08T08:37:10Z</time>
      </trkpt>
      <trkpt lat="47.25504" lon="-1.63019">
        <ele>53.2</ele>
        <time>2013-09-08T08:37:16Z</time>
      </trkpt>
      <trkpt lat="47.25504" lon="-1.63006">
        <ele>53.6</ele>
        <time>2013-09-08T08:37:19Z</time>
      </trkpt>
      <trkpt lat="47.255" lon="-1.6299">
        <ele>54.3</ele>
        <time>2013-09-08T08:37:23Z</time>
      </trkpt>
      <trkpt lat="47.25495" lon="-1.62975">
        <ele>56.8</ele>
        <time>2013-09-08T08:37:26Z</time>
      </trkpt>
      <trkpt lat="47.2549" lon="-1.62963">
        <ele>58.3</ele>
        <time>2013-09-08T08:37:28Z</time>
      </trkpt>
      <trkpt lat="47.25485" lon="-1.62948">
        <ele>59.9</ele>
        <time>2013-09-08T08:37:30Z</time>
      </trkpt>
      <trkpt lat="47.25481" lon="-1.62935">
        <ele>61.3</ele>
        <time>2013-09-08T08:37:32Z</time>
      </trkpt>
      <trkpt lat="47.25483" lon="-1.62918">
        <ele>62.1</ele>
        <time>2013-09-08T08:37:35Z</time>
      </trkpt>
      <trkpt lat="47.25494" lon="-1.62905">
        <ele>61.5</ele>
        <time>2013-09-08T08:37:38Z</time>
      </trkpt>
      <trkpt lat="47.25504" lon="-1.62897">
        <ele>61</ele>
        <time>2013-09-08T08:37:40Z</time>
      </trkpt>
      <trkpt lat="47.25514" lon="-1.6289">
        <ele>61.7</ele>
        <time>2013-09-08T08:37:42Z</time>
      </trkpt>
      <trkpt lat="47.25524" lon="-1.62883">
        <ele>62.4</ele>
        <time>2013-09-08T08:37:44Z</time>
      </trkpt>
      <trkpt lat="47.25533" lon="-1.62876">
        <ele>62.6</ele>
        <time>2013-09-08T08:37:46Z</time>
      </trkpt>
      <trkpt lat="47.25543" lon="-1.6287">
        <ele>62.4</ele>
        <time>2013-09-08T08:37:48Z</time>
      </trkpt>
      <trkpt lat="47.25552" lon="-1.62863">
        <ele>61.9</ele>
        <time>2013-09-08T08:37:50Z</time>
      </trkpt>
      <trkpt lat="47.25561" lon="-1.62854">
        <ele>61.5</ele>
        <time>2013-09-08T08:37:52Z</time>
      </trkpt>
      <trkpt lat="47.25571" lon="-1.62846">
        <ele>61.5</ele>
        <time>2013-09-08T08:37:54Z</time>
      </trkpt>
      <trkpt lat="47.2558" lon="-1.62845">
        <ele>61.5</ele>
        <time>2013-09-08T08:37:58Z</time>
      </trkpt>
      <trkpt lat="47.25588" lon="-1.62833">
        <ele>61.4</ele>
        <time>2013-09-08T08:38:02Z</time>
      </trkpt>
      <trkpt lat="47.25598" lon="-1.62823">
        <ele>60.9</ele>
        <time>2013-09-08T08:38:05Z</time>
      </trkpt>
      <trkpt lat="47.25608" lon="-1.62815">
        <ele>60.3</ele>
        <time>2013-09-08T08:38:07Z</time>
      </trkpt>
      <trkpt lat="47.25618" lon="-1.62806">
        <ele>58.1</ele>
        <time>2013-09-08T08:38:09Z</time>
      </trkpt>
      <trkpt lat="47.25628" lon="-1.62796">
        <ele>56.5</ele>
        <time>2013-09-08T08:38:11Z</time>
      </trkpt>
      <trkpt lat="47.25638" lon="-1.62784">
        <ele>56.3</ele>
        <time>2013-09-08T08:38:13Z</time>
      </trkpt>
      <trkpt lat="47.25647" lon="-1.62771">
        <ele>56.6</ele>
        <time>2013-09-08T08:38:15Z</time>
      </trkpt>
      <trkpt lat="47.25656" lon="-1.62761">
        <ele>56.9</ele>
        <time>2013-09-08T08:38:17Z</time>
      </trkpt>
      <trkpt lat="47.25664" lon="-1.62752">
        <ele>58</ele>
        <time>2013-09-08T08:38:19Z</time>
      </trkpt>
      <trkpt lat="47.25673" lon="-1.62745">
        <ele>59</ele>
        <time>2013-09-08T08:38:21Z</time>
      </trkpt>
      <trkpt lat="47.25679" lon="-1.62733">
        <ele>59.6</ele>
        <time>2013-09-08T08:38:23Z</time>
      </trkpt>
      <trkpt lat="47.25683" lon="-1.6272">
        <ele>59.8</ele>
        <time>2013-09-08T08:38:25Z</time>
      </trkpt>
      <trkpt lat="47.25688" lon="-1.62706">
        <ele>61</ele>
        <time>2013-09-08T08:38:27Z</time>
      </trkpt>
      <trkpt lat="47.25693" lon="-1.62694">
        <ele>61.4</ele>
        <time>2013-09-08T08:38:29Z</time>
      </trkpt>
      <trkpt lat="47.257" lon="-1.6268">
        <ele>61.8</ele>
        <time>2013-09-08T08:38:31Z</time>
      </trkpt>
      <trkpt lat="47.25708" lon="-1.62668">
        <ele>61.9</ele>
        <time>2013-09-08T08:38:33Z</time>
      </trkpt>
      <trkpt lat="47.25715" lon="-1.62654">
        <ele>61.9</ele>
        <time>2013-09-08T08:38:35Z</time>
      </trkpt>
      <trkpt lat="47.25723" lon="-1.6264">
        <ele>61.8</ele>
        <time>2013-09-08T08:38:37Z</time>
      </trkpt>
      <trkpt lat="47.25732" lon="-1.62625">
        <ele>61.7</ele>
        <time>2013-09-08T08:38:39Z</time>
      </trkpt>
      <trkpt lat="47.2574" lon="-1.62611">
        <ele>61.4</ele>
        <time>2013-09-08T08:38:41Z</time>
      </trkpt>
      <trkpt lat="47.25748" lon="-1.62596">
        <ele>61</ele>
        <time>2013-09-08T08:38:43Z</time>
      </trkpt>
      <trkpt lat="47.25756" lon="-1.62581">
        <ele>60.7</ele>
        <time>2013-09-08T08:38:45Z</time>
      </trkpt>
      <trkpt lat="47.25765" lon="-1.62565">
        <ele>60.5</ele>
        <time>2013-09-08T08:38:47Z</time>
      </trkpt>
      <trkpt lat="47.25773" lon="-1.6255">
        <ele>60.8</ele>
        <time>2013-09-08T08:38:49Z</time>
      </trkpt>
      <trkpt lat="47.25781" lon="-1.62537">
        <ele>60.1</ele>
        <time>2013-09-08T08:38:51Z</time>
      </trkpt>
      <trkpt lat="47.25788" lon="-1.62524">
        <ele>59.3</ele>
        <time>2013-09-08T08:38:53Z</time>
      </trkpt>
      <trkpt lat="47.25795" lon="-1.6251">
        <ele>58.8</ele>
        <time>2013-09-08T08:38:55Z</time>
      </trkpt>
      <trkpt lat="47.25801" lon="-1.62497">
        <ele>58.5</ele>
        <time>2013-09-08T08:38:57Z</time>
      </trkpt>
      <trkpt lat="47.25808" lon="-1.62486">
        <ele>58.1</ele>
        <time>2013-09-08T08:38:59Z</time>
      </trkpt>
      <trkpt lat="47.25818" lon="-1.62476">
        <ele>58.4</ele>
        <time>2013-09-08T08:39:02Z</time>
      </trkpt>
      <trkpt lat="47.25828" lon="-1.62486">
        <ele>58.3</ele>
        <time>2013-09-08T08:39:05Z</time>
      </trkpt>
      <trkpt lat="47.25833" lon="-1.62502">
        <ele>57.8</ele>
        <time>2013-09-08T08:39:07Z</time>
      </trkpt>
      <trkpt lat="47.25837" lon="-1.62516">
        <ele>58.5</ele>
        <time>2013-09-08T08:39:09Z</time>
      </trkpt>
      <trkpt lat="47.25841" lon="-1.6253">
        <ele>59.8</ele>
        <time>2013-09-08T08:39:11Z</time>
      </trkpt>
      <trkpt lat="47.25844" lon="-1.62543">
        <ele>61.3</ele>
        <time>2013-09-08T08:39:13Z</time>
      </trkpt>
      <trkpt lat="47.25848" lon="-1.62555">
        <ele>62.2</ele>
        <time>2013-09-08T08:39:15Z</time>
      </trkpt>
      <trkpt lat="47.25852" lon="-1.62568">
        <ele>62.3</ele>
        <time>2013-09-08T08:39:17Z</time>
      </trkpt>
      <trkpt lat="47.25863" lon="-1.62577">
        <ele>62</ele>
        <time>2013-09-08T08:39:20Z</time>
      </trkpt>
      <trkpt lat="47.25873" lon="-1.62582">
        <ele>61.9</ele>
        <time>2013-09-08T08:39:23Z</time>
      </trkpt>
      <trkpt lat="47.25883" lon="-1.62587">
        <ele>61.6</ele>
        <time>2013-09-08T08:39:26Z</time>
      </trkpt>
      <trkpt lat="47.25892" lon="-1.62591">
        <ele>61.5</ele>
        <time>2013-09-08T08:39:29Z</time>
      </trkpt>
      <trkpt lat="47.25904" lon="-1.62595">
        <ele>60.5</ele>
        <time>2013-09-08T08:39:32Z</time>
      </trkpt>
      <trkpt lat="47.25917" lon="-1.62594">
        <ele>59.8</ele>
        <time>2013-09-08T08:39:35Z</time>
      </trkpt>
      <trkpt lat="47.25928" lon="-1.62583">
        <ele>60.2</ele>
        <time>2013-09-08T08:39:37Z</time>
      </trkpt>
      <trkpt lat="47.25938" lon="-1.62573">
        <ele>60.7</ele>
        <time>2013-09-08T08:39:39Z</time>
      </trkpt>
      <trkpt lat="47.25946" lon="-1.62565">
        <ele>60.9</ele>
        <time>2013-09-08T08:39:41Z</time>
      </trkpt>
      <trkpt lat="47.25955" lon="-1.62557">
        <ele>60.9</ele>
        <time>2013-09-08T08:39:43Z</time>
      </trkpt>
      <trkpt lat="47.25963" lon="-1.6255">
        <ele>60.6</ele>
        <time>2013-09-08T08:39:45Z</time>
      </trkpt>
      <trkpt lat="47.25973" lon="-1.62541">
        <ele>60.6</ele>
        <time>2013-09-08T08:39:47Z</time>
      </trkpt>
      <trkpt lat="47.25983" lon="-1.62532">
        <ele>60.1</ele>
        <time>2013-09-08T08:39:49Z</time>
      </trkpt>
      <trkpt lat="47.25993" lon="-1.62523">
        <ele>60.5</ele>
        <time>2013-09-08T08:39:51Z</time>
      </trkpt>
      <trkpt lat="47.26003" lon="-1.62514">
        <ele>61.3</ele>
        <time>2013-09-08T08:39:53Z</time>
      </trkpt>
      <trkpt lat="47.26013" lon="-1.62506">
        <ele>61.8</ele>
        <time>2013-09-08T08:39:55Z</time>
      </trkpt>
      <trkpt lat="47.26024" lon="-1.62497">
        <ele>62</ele>
        <time>2013-09-08T08:39:57Z</time>
      </trkpt>
      <trkpt lat="47.26033" lon="-1.62488">
        <ele>61.6</ele>
        <time>2013-09-08T08:39:59Z</time>
      </trkpt>
      <trkpt lat="47.26044" lon="-1.62479">
        <ele>60.6</ele>
        <time>2013-09-08T08:40:01Z</time>
      </trkpt>
      <trkpt lat="47.26054" lon="-1.6247">
        <ele>60.9</ele>
        <time>2013-09-08T08:40:03Z</time>
      </trkpt>
      <trkpt lat="47.26063" lon="-1.6246">
        <ele>61.2</ele>
        <time>2013-09-08T08:40:05Z</time>
      </trkpt>
      <trkpt lat="47.26071" lon="-1.62451">
        <ele>61.9</ele>
        <time>2013-09-08T08:40:07Z</time>
      </trkpt>
      <trkpt lat="47.26078" lon="-1.62443">
        <ele>61.4</ele>
        <time>2013-09-08T08:40:09Z</time>
      </trkpt>
      <trkpt lat="47.26089" lon="-1.62433">
        <ele>60.1</ele>
        <time>2013-09-08T08:40:12Z</time>
      </trkpt>
      <trkpt lat="47.26097" lon="-1.62428">
        <ele>60</ele>
        <time>2013-09-08T08:40:16Z</time>
      </trkpt>
      <trkpt lat="47.26103" lon="-1.62443">
        <ele>60</ele>
        <time>2013-09-08T08:40:21Z</time>
      </trkpt>
      <trkpt lat="47.26105" lon="-1.62459">
        <ele>59.8</ele>
        <time>2013-09-08T08:40:24Z</time>
      </trkpt>
      <trkpt lat="47.26105" lon="-1.62475">
        <ele>59.4</ele>
        <time>2013-09-08T08:40:26Z</time>
      </trkpt>
      <trkpt lat="47.26105" lon="-1.62491">
        <ele>59</ele>
        <time>2013-09-08T08:40:28Z</time>
      </trkpt>
      <trkpt lat="47.26105" lon="-1.62506">
        <ele>58.7</ele>
        <time>2013-09-08T08:40:30Z</time>
      </trkpt>
      <trkpt lat="47.26104" lon="-1.62522">
        <ele>58.5</ele>
        <time>2013-09-08T08:40:32Z</time>
      </trkpt>
      <trkpt lat="47.26102" lon="-1.6254">
        <ele>59.1</ele>
        <time>2013-09-08T08:40:34Z</time>
      </trkpt>
      <trkpt lat="47.261" lon="-1.62557">
        <ele>60</ele>
        <time>2013-09-08T08:40:36Z</time>
      </trkpt>
      <trkpt lat="47.26099" lon="-1.62573">
        <ele>60.6</ele>
        <time>2013-09-08T08:40:38Z</time>
      </trkpt>
      <trkpt lat="47.26098" lon="-1.6259">
        <ele>59.7</ele>
        <time>2013-09-08T08:40:40Z</time>
      </trkpt>
      <trkpt lat="47.26097" lon="-1.62608">
        <ele>59.8</ele>
        <time>2013-09-08T08:40:42Z</time>
      </trkpt>
      <trkpt lat="47.26096" lon="-1.62626">
        <ele>60.3</ele>
        <time>2013-09-08T08:40:44Z</time>
      </trkpt>
      <trkpt lat="47.26095" lon="-1.62641">
        <ele>60</ele>
        <time>2013-09-08T08:40:46Z</time>
      </trkpt>
      <trkpt lat="47.26087" lon="-1.62651">
        <ele>59.7</ele>
        <time>2013-09-08T08:40:49Z</time>
      </trkpt>
      <trkpt lat="47.26083" lon="-1.62663">
        <ele>59.6</ele>
        <time>2013-09-08T08:40:52Z</time>
      </trkpt>
      <trkpt lat="47.26087" lon="-1.62676">
        <ele>58.5</ele>
        <time>2013-09-08T08:40:54Z</time>
      </trkpt>
      <trkpt lat="47.26092" lon="-1.6269">
        <ele>58.4</ele>
        <time>2013-09-08T08:40:56Z</time>
      </trkpt>
      <trkpt lat="47.26094" lon="-1.62707">
        <ele>58.5</ele>
        <time>2013-09-08T08:40:58Z</time>
      </trkpt>
      <trkpt lat="47.26094" lon="-1.62726">
        <ele>57.8</ele>
        <time>2013-09-08T08:41:00Z</time>
      </trkpt>
      <trkpt lat="47.26094" lon="-1.62746">
        <ele>57.2</ele>
        <time>2013-09-08T08:41:02Z</time>
      </trkpt>
      <trkpt lat="47.26093" lon="-1.62765">
        <ele>56.7</ele>
        <time>2013-09-08T08:41:04Z</time>
      </trkpt>
      <trkpt lat="47.26091" lon="-1.62788">
        <ele>56.7</ele>
        <time>2013-09-08T08:41:06Z</time>
      </trkpt>
      <trkpt lat="47.2609" lon="-1.62813">
        <ele>56.4</ele>
        <time>2013-09-08T08:41:08Z</time>
      </trkpt>
      <trkpt lat="47.26088" lon="-1.62836">
        <ele>55.6</ele>
        <time>2013-09-08T08:41:10Z</time>
      </trkpt>
      <trkpt lat="47.26085" lon="-1.62857">
        <ele>55.2</ele>
        <time>2013-09-08T08:41:12Z</time>
      </trkpt>
      <trkpt lat="47.26084" lon="-1.62875">
        <ele>54.7</ele>
        <time>2013-09-08T08:41:14Z</time>
      </trkpt>
      <trkpt lat="47.26082" lon="-1.62896">
        <ele>55.3</ele>
        <time>2013-09-08T08:41:16Z</time>
      </trkpt>
      <trkpt lat="47.26081" lon="-1.62914">
        <ele>54.5</ele>
        <time>2013-09-08T08:41:18Z</time>
      </trkpt>
      <trkpt lat="47.2608" lon="-1.62931">
        <ele>52.9</ele>
        <time>2013-09-08T08:41:20Z</time>
      </trkpt>
      <trkpt lat="47.26079" lon="-1.62948">
        <ele>50</ele>
        <time>2013-09-08T08:41:22Z</time>
      </trkpt>
      <trkpt lat="47.26078" lon="-1.62965">
        <ele>48.4</ele>
        <time>2013-09-08T08:41:24Z</time>
      </trkpt>
      <trkpt lat="47.26076" lon="-1.62986">
        <ele>47.1</ele>
        <time>2013-09-08T08:41:26Z</time>
      </trkpt>
      <trkpt lat="47.26075" lon="-1.63006">
        <ele>46.7</ele>
        <time>2013-09-08T08:41:28Z</time>
      </trkpt>
      <trkpt lat="47.26074" lon="-1.63025">
        <ele>46.4</ele>
        <time>2013-09-08T08:41:30Z</time>
      </trkpt>
      <trkpt lat="47.26073" lon="-1.63041">
        <ele>46.8</ele>
        <time>2013-09-08T08:41:32Z</time>
      </trkpt>
      <trkpt lat="47.26073" lon="-1.63055">
        <ele>48.6</ele>
        <time>2013-09-08T08:41:34Z</time>
      </trkpt>
      <trkpt lat="47.26075" lon="-1.6307">
        <ele>49.6</ele>
        <time>2013-09-08T08:41:36Z</time>
      </trkpt>
      <trkpt lat="47.26074" lon="-1.63087">
        <ele>50.2</ele>
        <time>2013-09-08T08:41:38Z</time>
      </trkpt>
      <trkpt lat="47.26071" lon="-1.63106">
        <ele>50</ele>
        <time>2013-09-08T08:41:40Z</time>
      </trkpt>
      <trkpt lat="47.26068" lon="-1.63126">
        <ele>49.3</ele>
        <time>2013-09-08T08:41:42Z</time>
      </trkpt>
      <trkpt lat="47.26065" lon="-1.63148">
        <ele>49.1</ele>
        <time>2013-09-08T08:41:44Z</time>
      </trkpt>
      <trkpt lat="47.26063" lon="-1.63168">
        <ele>49.8</ele>
        <time>2013-09-08T08:41:46Z</time>
      </trkpt>
      <trkpt lat="47.26072" lon="-1.63183">
        <ele>49.8</ele>
        <time>2013-09-08T08:41:48Z</time>
      </trkpt>
      <trkpt lat="47.26086" lon="-1.63189">
        <ele>49.4</ele>
        <time>2013-09-08T08:41:50Z</time>
      </trkpt>
      <trkpt lat="47.26102" lon="-1.63195">
        <ele>49.3</ele>
        <time>2013-09-08T08:41:52Z</time>
      </trkpt>
      <trkpt lat="47.26119" lon="-1.63202">
        <ele>49.5</ele>
        <time>2013-09-08T08:41:54Z</time>
      </trkpt>
      <trkpt lat="47.26128" lon="-1.63205">
        <ele>49.9</ele>
        <time>2013-09-08T08:41:55Z</time>
      </trkpt>
      <trkpt lat="47.26145" lon="-1.63212">
        <ele>50.3</ele>
        <time>2013-09-08T08:41:57Z</time>
      </trkpt>
      <trkpt lat="47.26163" lon="-1.63217">
        <ele>49.7</ele>
        <time>2013-09-08T08:41:59Z</time>
      </trkpt>
      <trkpt lat="47.2618" lon="-1.63219">
        <ele>49.4</ele>
        <time>2013-09-08T08:42:01Z</time>
      </trkpt>
      <trkpt lat="47.26197" lon="-1.63218">
        <ele>48.6</ele>
        <time>2013-09-08T08:42:03Z</time>
      </trkpt>
      <trkpt lat="47.26212" lon="-1.63216">
        <ele>47.2</ele>
        <time>2013-09-08T08:42:05Z</time>
      </trkpt>
      <trkpt lat="47.26224" lon="-1.63215">
        <ele>45.8</ele>
        <time>2013-09-08T08:42:07Z</time>
      </trkpt>
      <trkpt lat="47.26235" lon="-1.63214">
        <ele>44.8</ele>
        <time>2013-09-08T08:42:10Z</time>
      </trkpt>
      <trkpt lat="47.26243" lon="-1.63226">
        <ele>44.8</ele>
        <time>2013-09-08T08:42:14Z</time>
      </trkpt>
      <trkpt lat="47.26244" lon="-1.63245">
        <ele>45.5</ele>
        <time>2013-09-08T08:42:17Z</time>
      </trkpt>
      <trkpt lat="47.26243" lon="-1.63265">
        <ele>46.5</ele>
        <time>2013-09-08T08:42:20Z</time>
      </trkpt>
      <trkpt lat="47.26241" lon="-1.6328">
        <ele>46.2</ele>
        <time>2013-09-08T08:42:22Z</time>
      </trkpt>
      <trkpt lat="47.2624" lon="-1.63299">
        <ele>43.8</ele>
        <time>2013-09-08T08:42:25Z</time>
      </trkpt>
      <trkpt lat="47.26239" lon="-1.63314">
        <ele>43.1</ele>
        <time>2013-09-08T08:42:27Z</time>
      </trkpt>
      <trkpt lat="47.26239" lon="-1.63329">
        <ele>42.6</ele>
        <time>2013-09-08T08:42:29Z</time>
      </trkpt>
      <trkpt lat="47.26246" lon="-1.63343">
        <ele>42.3</ele>
        <time>2013-09-08T08:42:32Z</time>
      </trkpt>
      <trkpt lat="47.26256" lon="-1.63345">
        <ele>41.6</ele>
        <time>2013-09-08T08:42:34Z</time>
      </trkpt>
      <trkpt lat="47.26267" lon="-1.63347">
        <ele>41</ele>
        <time>2013-09-08T08:42:36Z</time>
      </trkpt>
      <trkpt lat="47.26278" lon="-1.63353">
        <ele>39.7</ele>
        <time>2013-09-08T08:42:39Z</time>
      </trkpt>
      <trkpt lat="47.26285" lon="-1.63364">
        <ele>37.6</ele>
        <time>2013-09-08T08:42:41Z</time>
      </trkpt>
      <trkpt lat="47.26292" lon="-1.63379">
        <ele>36</ele>
        <time>2013-09-08T08:42:43Z</time>
      </trkpt>
      <trkpt lat="47.26295" lon="-1.63393">
        <ele>35.5</ele>
        <time>2013-09-08T08:42:45Z</time>
      </trkpt>
      <trkpt lat="47.26301" lon="-1.63409">
        <ele>35</ele>
        <time>2013-09-08T08:42:47Z</time>
      </trkpt>
      <trkpt lat="47.26306" lon="-1.63422">
        <ele>34.7</ele>
        <time>2013-09-08T08:42:49Z</time>
      </trkpt>
      <trkpt lat="47.26301" lon="-1.63435">
        <ele>34.8</ele>
        <time>2013-09-08T08:42:53Z</time>
      </trkpt>
      <trkpt lat="47.26293" lon="-1.6344">
        <ele>36.2</ele>
        <time>2013-09-08T08:42:55Z</time>
      </trkpt>
      <trkpt lat="47.26285" lon="-1.63447">
        <ele>36.2</ele>
        <time>2013-09-08T08:42:58Z</time>
      </trkpt>
      <trkpt lat="47.26285" lon="-1.63465">
        <ele>35.4</ele>
        <time>2013-09-08T08:43:02Z</time>
      </trkpt>
      <trkpt lat="47.26285" lon="-1.6348">
        <ele>33.3</ele>
        <time>2013-09-08T08:43:04Z</time>
      </trkpt>
      <trkpt lat="47.26285" lon="-1.63499">
        <ele>31.8</ele>
        <time>2013-09-08T08:43:06Z</time>
      </trkpt>
      <trkpt lat="47.26289" lon="-1.63514">
        <ele>31.3</ele>
        <time>2013-09-08T08:43:09Z</time>
      </trkpt>
      <trkpt lat="47.26297" lon="-1.63528">
        <ele>31.8</ele>
        <time>2013-09-08T08:43:12Z</time>
      </trkpt>
      <trkpt lat="47.26304" lon="-1.63541">
        <ele>32.1</ele>
        <time>2013-09-08T08:43:14Z</time>
      </trkpt>
      <trkpt lat="47.26312" lon="-1.63551">
        <ele>34.4</ele>
        <time>2013-09-08T08:43:16Z</time>
      </trkpt>
      <trkpt lat="47.26319" lon="-1.63562">
        <ele>36.2</ele>
        <time>2013-09-08T08:43:18Z</time>
      </trkpt>
      <trkpt lat="47.26322" lon="-1.63579">
        <ele>36.3</ele>
        <time>2013-09-08T08:43:21Z</time>
      </trkpt>
      <trkpt lat="47.2632" lon="-1.63596">
        <ele>36.1</ele>
        <time>2013-09-08T08:43:23Z</time>
      </trkpt>
      <trkpt lat="47.26316" lon="-1.63612">
        <ele>35</ele>
        <time>2013-09-08T08:43:25Z</time>
      </trkpt>
      <trkpt lat="47.26312" lon="-1.63626">
        <ele>34</ele>
        <time>2013-09-08T08:43:27Z</time>
      </trkpt>
      <trkpt lat="47.26309" lon="-1.63638">
        <ele>33.6</ele>
        <time>2013-09-08T08:43:29Z</time>
      </trkpt>
      <trkpt lat="47.263" lon="-1.63651">
        <ele>34</ele>
        <time>2013-09-08T08:43:32Z</time>
      </trkpt>
      <trkpt lat="47.26292" lon="-1.63657">
        <ele>35.2</ele>
        <time>2013-09-08T08:43:34Z</time>
      </trkpt>
      <trkpt lat="47.26283" lon="-1.63661">
        <ele>36</ele>
        <time>2013-09-08T08:43:36Z</time>
      </trkpt>
      <trkpt lat="47.26274" lon="-1.63663">
        <ele>36.9</ele>
        <time>2013-09-08T08:43:38Z</time>
      </trkpt>
      <trkpt lat="47.26261" lon="-1.63665">
        <ele>38</ele>
        <time>2013-09-08T08:43:41Z</time>
      </trkpt>
      <trkpt lat="47.26249" lon="-1.63667">
        <ele>38.6</ele>
        <time>2013-09-08T08:43:44Z</time>
      </trkpt>
      <trkpt lat="47.2624" lon="-1.63674">
        <ele>39.1</ele>
        <time>2013-09-08T08:43:49Z</time>
      </trkpt>
      <trkpt lat="47.26228" lon="-1.6367">
        <ele>39.4</ele>
        <time>2013-09-08T08:43:57Z</time>
      </trkpt>
      <trkpt lat="47.26217" lon="-1.63671">
        <ele>39.5</ele>
        <time>2013-09-08T08:44:00Z</time>
      </trkpt>
      <trkpt lat="47.26207" lon="-1.63674">
        <ele>39.7</ele>
        <time>2013-09-08T08:44:03Z</time>
      </trkpt>
      <trkpt lat="47.26197" lon="-1.63676">
        <ele>40</ele>
        <time>2013-09-08T08:44:06Z</time>
      </trkpt>
      <trkpt lat="47.26184" lon="-1.6368">
        <ele>40.3</ele>
        <time>2013-09-08T08:44:09Z</time>
      </trkpt>
      <trkpt lat="47.26175" lon="-1.63681">
        <ele>40.7</ele>
        <time>2013-09-08T08:44:13Z</time>
      </trkpt>
      <trkpt lat="47.26163" lon="-1.63677">
        <ele>41.1</ele>
        <time>2013-09-08T08:44:17Z</time>
      </trkpt>
      <trkpt lat="47.26151" lon="-1.63675">
        <ele>41.4</ele>
        <time>2013-09-08T08:44:20Z</time>
      </trkpt>
      <trkpt lat="47.26141" lon="-1.63674">
        <ele>41.6</ele>
        <time>2013-09-08T08:44:23Z</time>
      </trkpt>
      <trkpt lat="47.26129" lon="-1.63672">
        <ele>41.7</ele>
        <time>2013-09-08T08:44:26Z</time>
      </trkpt>
      <trkpt lat="47.26119" lon="-1.6367">
        <ele>41.8</ele>
        <time>2013-09-08T08:44:29Z</time>
      </trkpt>
      <trkpt lat="47.26109" lon="-1.63669">
        <ele>41.9</ele>
        <time>2013-09-08T08:44:45Z</time>
      </trkpt>
      <trkpt lat="47.26101" lon="-1.63674">
        <ele>42.4</ele>
        <time>2013-09-08T08:44:49Z</time>
      </trkpt>
      <trkpt lat="47.2609" lon="-1.63681">
        <ele>43.8</ele>
        <time>2013-09-08T08:44:52Z</time>
      </trkpt>
      <trkpt lat="47.26081" lon="-1.63685">
        <ele>45.3</ele>
        <time>2013-09-08T08:44:54Z</time>
      </trkpt>
      <trkpt lat="47.26071" lon="-1.63687">
        <ele>46.3</ele>
        <time>2013-09-08T08:44:56Z</time>
      </trkpt>
      <trkpt lat="47.26062" lon="-1.63689">
        <ele>47.6</ele>
        <time>2013-09-08T08:44:59Z</time>
      </trkpt>
      <trkpt lat="47.26049" lon="-1.63692">
        <ele>47.7</ele>
        <time>2013-09-08T08:45:02Z</time>
      </trkpt>
      <trkpt lat="47.26042" lon="-1.63702">
        <ele>47.7</ele>
        <time>2013-09-08T08:45:05Z</time>
      </trkpt>
      <trkpt lat="47.2604" lon="-1.63717">
        <ele>47.6</ele>
        <time>2013-09-08T08:45:08Z</time>
      </trkpt>
      <trkpt lat="47.26038" lon="-1.63733">
        <ele>47.5</ele>
        <time>2013-09-08T08:45:12Z</time>
      </trkpt>
      <trkpt lat="47.2603" lon="-1.63739">
        <ele>47.3</ele>
        <time>2013-09-08T08:45:16Z</time>
      </trkpt>
      <trkpt lat="47.2602" lon="-1.63742">
        <ele>47</ele>
        <time>2013-09-08T08:45:19Z</time>
      </trkpt>
      <trkpt lat="47.26009" lon="-1.63746">
        <ele>46.9</ele>
        <time>2013-09-08T08:45:23Z</time>
      </trkpt>
      <trkpt lat="47.26005" lon="-1.63758">
        <ele>47.2</ele>
        <time>2013-09-08T08:45:29Z</time>
      </trkpt>
      <trkpt lat="47.26007" lon="-1.63773">
        <ele>47.5</ele>
        <time>2013-09-08T08:45:33Z</time>
      </trkpt>
      <trkpt lat="47.26008" lon="-1.63787">
        <ele>47.6</ele>
        <time>2013-09-08T08:45:36Z</time>
      </trkpt>
      <trkpt lat="47.2601" lon="-1.63801">
        <ele>47.9</ele>
        <time>2013-09-08T08:45:40Z</time>
      </trkpt>
      <trkpt lat="47.26012" lon="-1.63814">
        <ele>48.3</ele>
        <time>2013-09-08T08:45:44Z</time>
      </trkpt>
      <trkpt lat="47.26012" lon="-1.63829">
        <ele>48.6</ele>
        <time>2013-09-08T08:45:49Z</time>
      </trkpt>
      <trkpt lat="47.26018" lon="-1.63839">
        <ele>48.6</ele>
        <time>2013-09-08T08:45:53Z</time>
      </trkpt>
      <trkpt lat="47.26026" lon="-1.63846">
        <ele>54.3</ele>
        <time>2013-09-08T08:50:34Z</time>
      </trkpt>
      <trkpt lat="47.26018" lon="-1.63836">
        <ele>53.4</ele>
        <time>2013-09-08T08:51:10Z</time>
      </trkpt>
      <trkpt lat="47.26013" lon="-1.63825">
        <ele>53.4</ele>
        <time>2013-09-08T08:51:14Z</time>
      </trkpt>
      <trkpt lat="47.2601" lon="-1.6381">
        <ele>53</ele>
        <time>2013-09-08T08:51:17Z</time>
      </trkpt>
      <trkpt lat="47.26008" lon="-1.63792">
        <ele>51.5</ele>
        <time>2013-09-08T08:51:20Z</time>
      </trkpt>
      <trkpt lat="47.26006" lon="-1.63778">
        <ele>50.6</ele>
        <time>2013-09-08T08:51:22Z</time>
      </trkpt>
      <trkpt lat="47.26005" lon="-1.63763">
        <ele>49.4</ele>
        <time>2013-09-08T08:51:24Z</time>
      </trkpt>
      <trkpt lat="47.26004" lon="-1.63746">
        <ele>48.5</ele>
        <time>2013-09-08T08:51:26Z</time>
      </trkpt>
      <trkpt lat="47.26003" lon="-1.63727">
        <ele>47.9</ele>
        <time>2013-09-08T08:51:28Z</time>
      </trkpt>
      <trkpt lat="47.26002" lon="-1.63706">
        <ele>47.5</ele>
        <time>2013-09-08T08:51:30Z</time>
      </trkpt>
      <trkpt lat="47.26001" lon="-1.63685">
        <ele>46.8</ele>
        <time>2013-09-08T08:51:32Z</time>
      </trkpt>
      <trkpt lat="47.26" lon="-1.63667">
        <ele>46</ele>
        <time>2013-09-08T08:51:34Z</time>
      </trkpt>
      <trkpt lat="47.26" lon="-1.63648">
        <ele>45</ele>
        <time>2013-09-08T08:51:36Z</time>
      </trkpt>
      <trkpt lat="47.25999" lon="-1.6363">
        <ele>44.3</ele>
        <time>2013-09-08T08:51:38Z</time>
      </trkpt>
      <trkpt lat="47.25998" lon="-1.63617">
        <ele>43.9</ele>
        <time>2013-09-08T08:51:40Z</time>
      </trkpt>
      <trkpt lat="47.2599" lon="-1.63602">
        <ele>44</ele>
        <time>2013-09-08T08:51:43Z</time>
      </trkpt>
      <trkpt lat="47.25985" lon="-1.63584">
        <ele>44.2</ele>
        <time>2013-09-08T08:51:46Z</time>
      </trkpt>
      <trkpt lat="47.25986" lon="-1.6357">
        <ele>44.1</ele>
        <time>2013-09-08T08:51:48Z</time>
      </trkpt>
      <trkpt lat="47.25987" lon="-1.63556">
        <ele>43.8</ele>
        <time>2013-09-08T08:51:50Z</time>
      </trkpt>
      <trkpt lat="47.25989" lon="-1.63543">
        <ele>43.8</ele>
        <time>2013-09-08T08:51:52Z</time>
      </trkpt>
      <trkpt lat="47.25992" lon="-1.63524">
        <ele>44.2</ele>
        <time>2013-09-08T08:51:55Z</time>
      </trkpt>
      <trkpt lat="47.25994" lon="-1.63509">
        <ele>44.3</ele>
        <time>2013-09-08T08:51:58Z</time>
      </trkpt>
      <trkpt lat="47.25996" lon="-1.63492">
        <ele>44.5</ele>
        <time>2013-09-08T08:52:01Z</time>
      </trkpt>
      <trkpt lat="47.25999" lon="-1.63474">
        <ele>46</ele>
        <time>2013-09-08T08:52:04Z</time>
      </trkpt>
      <trkpt lat="47.26001" lon="-1.6346">
        <ele>46.7</ele>
        <time>2013-09-08T08:52:06Z</time>
      </trkpt>
      <trkpt lat="47.26004" lon="-1.63447">
        <ele>47.3</ele>
        <time>2013-09-08T08:52:08Z</time>
      </trkpt>
      <trkpt lat="47.26007" lon="-1.63434">
        <ele>48.1</ele>
        <time>2013-09-08T08:52:10Z</time>
      </trkpt>
      <trkpt lat="47.26011" lon="-1.63421">
        <ele>48.3</ele>
        <time>2013-09-08T08:52:12Z</time>
      </trkpt>
      <trkpt lat="47.26015" lon="-1.63407">
        <ele>48.6</ele>
        <time>2013-09-08T08:52:14Z</time>
      </trkpt>
      <trkpt lat="47.26019" lon="-1.63394">
        <ele>49</ele>
        <time>2013-09-08T08:52:16Z</time>
      </trkpt>
      <trkpt lat="47.26022" lon="-1.63381">
        <ele>49.3</ele>
        <time>2013-09-08T08:52:18Z</time>
      </trkpt>
      <trkpt lat="47.26025" lon="-1.63362">
        <ele>50</ele>
        <time>2013-09-08T08:52:21Z</time>
      </trkpt>
      <trkpt lat="47.26028" lon="-1.63345">
        <ele>50.9</ele>
        <time>2013-09-08T08:52:24Z</time>
      </trkpt>
      <trkpt lat="47.26031" lon="-1.63328">
        <ele>51.4</ele>
        <time>2013-09-08T08:52:27Z</time>
      </trkpt>
      <trkpt lat="47.26033" lon="-1.63312">
        <ele>50.4</ele>
        <time>2013-09-08T08:52:30Z</time>
      </trkpt>
      <trkpt lat="47.26035" lon="-1.63296">
        <ele>49.6</ele>
        <time>2013-09-08T08:52:33Z</time>
      </trkpt>
      <trkpt lat="47.26037" lon="-1.6328">
        <ele>46.7</ele>
        <time>2013-09-08T08:52:36Z</time>
      </trkpt>
      <trkpt lat="47.2604" lon="-1.63263">
        <ele>41.5</ele>
        <time>2013-09-08T08:52:39Z</time>
      </trkpt>
      <trkpt lat="47.26044" lon="-1.63244">
        <ele>41</ele>
        <time>2013-09-08T08:52:42Z</time>
      </trkpt>
      <trkpt lat="47.26047" lon="-1.63226">
        <ele>42.1</ele>
        <time>2013-09-08T08:52:45Z</time>
      </trkpt>
      <trkpt lat="47.26051" lon="-1.63208">
        <ele>43.6</ele>
        <time>2013-09-08T08:52:48Z</time>
      </trkpt>
      <trkpt lat="47.26055" lon="-1.63193">
        <ele>43.8</ele>
        <time>2013-09-08T08:52:51Z</time>
      </trkpt>
      <trkpt lat="47.2606" lon="-1.63181">
        <ele>44</ele>
        <time>2013-09-08T08:52:54Z</time>
      </trkpt>
      <trkpt lat="47.26068" lon="-1.63178">
        <ele>44.6</ele>
        <time>2013-09-08T08:52:59Z</time>
      </trkpt>
      <trkpt lat="47.26079" lon="-1.63183">
        <ele>44.9</ele>
        <time>2013-09-08T08:53:02Z</time>
      </trkpt>
      <trkpt lat="47.26088" lon="-1.63187">
        <ele>46.8</ele>
        <time>2013-09-08T08:53:04Z</time>
      </trkpt>
      <trkpt lat="47.26098" lon="-1.6319">
        <ele>47.4</ele>
        <time>2013-09-08T08:53:06Z</time>
      </trkpt>
      <trkpt lat="47.26107" lon="-1.63195">
        <ele>48.2</ele>
        <time>2013-09-08T08:53:08Z</time>
      </trkpt>
      <trkpt lat="47.26116" lon="-1.63199">
        <ele>48.2</ele>
        <time>2013-09-08T08:53:10Z</time>
      </trkpt>
      <trkpt lat="47.26126" lon="-1.63202">
        <ele>48.1</ele>
        <time>2013-09-08T08:53:12Z</time>
      </trkpt>
      <trkpt lat="47.26136" lon="-1.63207">
        <ele>48.5</ele>
        <time>2013-09-08T08:53:14Z</time>
      </trkpt>
      <trkpt lat="47.26147" lon="-1.63211">
        <ele>48.6</ele>
        <time>2013-09-08T08:53:16Z</time>
      </trkpt>
      <trkpt lat="47.26157" lon="-1.63215">
        <ele>48.7</ele>
        <time>2013-09-08T08:53:18Z</time>
      </trkpt>
      <trkpt lat="47.26169" lon="-1.63217">
        <ele>48.3</ele>
        <time>2013-09-08T08:53:20Z</time>
      </trkpt>
      <trkpt lat="47.26181" lon="-1.63217">
        <ele>47.6</ele>
        <time>2013-09-08T08:53:22Z</time>
      </trkpt>
      <trkpt lat="47.26192" lon="-1.63216">
        <ele>46.8</ele>
        <time>2013-09-08T08:53:24Z</time>
      </trkpt>
      <trkpt lat="47.26204" lon="-1.63215">
        <ele>46.1</ele>
        <time>2013-09-08T08:53:26Z</time>
      </trkpt>
      <trkpt lat="47.26215" lon="-1.63214">
        <ele>45.7</ele>
        <time>2013-09-08T08:53:28Z</time>
      </trkpt>
      <trkpt lat="47.26226" lon="-1.63213">
        <ele>45.2</ele>
        <time>2013-09-08T08:53:30Z</time>
      </trkpt>
      <trkpt lat="47.26235" lon="-1.63212">
        <ele>44.6</ele>
        <time>2013-09-08T08:53:32Z</time>
      </trkpt>
      <trkpt lat="47.26245" lon="-1.63208">
        <ele>44.4</ele>
        <time>2013-09-08T08:53:36Z</time>
      </trkpt>
      <trkpt lat="47.26255" lon="-1.6321">
        <ele>45.4</ele>
        <time>2013-09-08T08:55:23Z</time>
      </trkpt>
      <trkpt lat="47.26266" lon="-1.63212">
        <ele>45.4</ele>
        <time>2013-09-08T08:55:26Z</time>
      </trkpt>
      <trkpt lat="47.26275" lon="-1.63211">
        <ele>44.4</ele>
        <time>2013-09-08T08:55:28Z</time>
      </trkpt>
      <trkpt lat="47.26288" lon="-1.63209">
        <ele>43</ele>
        <time>2013-09-08T08:55:30Z</time>
      </trkpt>
      <trkpt lat="47.26304" lon="-1.63208">
        <ele>41.7</ele>
        <time>2013-09-08T08:55:32Z</time>
      </trkpt>
      <trkpt lat="47.26319" lon="-1.63207">
        <ele>39.9</ele>
        <time>2013-09-08T08:55:34Z</time>
      </trkpt>
      <trkpt lat="47.26337" lon="-1.63206">
        <ele>38.6</ele>
        <time>2013-09-08T08:55:36Z</time>
      </trkpt>
      <trkpt lat="47.26346" lon="-1.63206">
        <ele>38</ele>
        <time>2013-09-08T08:55:37Z</time>
      </trkpt>
      <trkpt lat="47.26364" lon="-1.63205">
        <ele>37.2</ele>
        <time>2013-09-08T08:55:39Z</time>
      </trkpt>
      <trkpt lat="47.26373" lon="-1.63204">
        <ele>36.9</ele>
        <time>2013-09-08T08:55:40Z</time>
      </trkpt>
      <trkpt lat="47.26389" lon="-1.63202">
        <ele>36.4</ele>
        <time>2013-09-08T08:55:42Z</time>
      </trkpt>
      <trkpt lat="47.26406" lon="-1.63199">
        <ele>35.8</ele>
        <time>2013-09-08T08:55:44Z</time>
      </trkpt>
      <trkpt lat="47.2642" lon="-1.63194">
        <ele>35.5</ele>
        <time>2013-09-08T08:55:46Z</time>
      </trkpt>
      <trkpt lat="47.26432" lon="-1.63188">
        <ele>34.6</ele>
        <time>2013-09-08T08:55:48Z</time>
      </trkpt>
      <trkpt lat="47.26444" lon="-1.63181">
        <ele>33.3</ele>
        <time>2013-09-08T08:55:50Z</time>
      </trkpt>
      <trkpt lat="47.26456" lon="-1.63175">
        <ele>32.6</ele>
        <time>2013-09-08T08:55:52Z</time>
      </trkpt>
      <trkpt lat="47.26468" lon="-1.63168">
        <ele>32.2</ele>
        <time>2013-09-08T08:55:54Z</time>
      </trkpt>
      <trkpt lat="47.26481" lon="-1.63161">
        <ele>31.6</ele>
        <time>2013-09-08T08:55:56Z</time>
      </trkpt>
      <trkpt lat="47.26494" lon="-1.63153">
        <ele>31</ele>
        <time>2013-09-08T08:55:58Z</time>
      </trkpt>
      <trkpt lat="47.26507" lon="-1.63146">
        <ele>31.2</ele>
        <time>2013-09-08T08:56:00Z</time>
      </trkpt>
      <trkpt lat="47.26519" lon="-1.6314">
        <ele>30.9</ele>
        <time>2013-09-08T08:56:02Z</time>
      </trkpt>
      <trkpt lat="47.26527" lon="-1.63133">
        <ele>29.7</ele>
        <time>2013-09-08T08:56:06Z</time>
      </trkpt>
      <trkpt lat="47.26538" lon="-1.63131">
        <ele>30.9</ele>
        <time>2013-09-08T08:56:51Z</time>
      </trkpt>
      <trkpt lat="47.26547" lon="-1.63122">
        <ele>32.2</ele>
        <time>2013-09-08T08:58:57Z</time>
      </trkpt>
      <trkpt lat="47.26557" lon="-1.63117">
        <ele>31.9</ele>
        <time>2013-09-08T08:59:02Z</time>
      </trkpt>
      <trkpt lat="47.26567" lon="-1.63111">
        <ele>31.5</ele>
        <time>2013-09-08T08:59:06Z</time>
      </trkpt>
      <trkpt lat="47.26577" lon="-1.63106">
        <ele>31</ele>
        <time>2013-09-08T08:59:10Z</time>
      </trkpt>
      <trkpt lat="47.26587" lon="-1.63102">
        <ele>30.2</ele>
        <time>2013-09-08T08:59:14Z</time>
      </trkpt>
      <trkpt lat="47.26596" lon="-1.63098">
        <ele>29.7</ele>
        <time>2013-09-08T08:59:18Z</time>
      </trkpt>
      <trkpt lat="47.26607" lon="-1.63094">
        <ele>29.8</ele>
        <time>2013-09-08T08:59:21Z</time>
      </trkpt>
      <trkpt lat="47.26616" lon="-1.63091">
        <ele>29.9</ele>
        <time>2013-09-08T08:59:23Z</time>
      </trkpt>
      <trkpt lat="47.26626" lon="-1.6309">
        <ele>30.1</ele>
        <time>2013-09-08T08:59:26Z</time>
      </trkpt>
      <trkpt lat="47.26636" lon="-1.63087">
        <ele>30.3</ele>
        <time>2013-09-08T08:59:29Z</time>
      </trkpt>
      <trkpt lat="47.26646" lon="-1.63083">
        <ele>30.5</ele>
        <time>2013-09-08T08:59:33Z</time>
      </trkpt>
      <trkpt lat="47.26654" lon="-1.63076">
        <ele>30.4</ele>
        <time>2013-09-08T08:59:36Z</time>
      </trkpt>
      <trkpt lat="47.26662" lon="-1.63069">
        <ele>30.2</ele>
        <time>2013-09-08T08:59:38Z</time>
      </trkpt>
      <trkpt lat="47.26672" lon="-1.63058">
        <ele>30.1</ele>
        <time>2013-09-08T08:59:40Z</time>
      </trkpt>
      <trkpt lat="47.26678" lon="-1.63045">
        <ele>30.5</ele>
        <time>2013-09-08T08:59:46Z</time>
      </trkpt>
      <trkpt lat="47.26685" lon="-1.63035">
        <ele>30.4</ele>
        <time>2013-09-08T08:59:50Z</time>
      </trkpt>
      <trkpt lat="47.26695" lon="-1.63043">
        <ele>29.9</ele>
        <time>2013-09-08T08:59:56Z</time>
      </trkpt>
      <trkpt lat="47.26701" lon="-1.63058">
        <ele>29.8</ele>
        <time>2013-09-08T08:59:59Z</time>
      </trkpt>
      <trkpt lat="47.26707" lon="-1.63071">
        <ele>29.6</ele>
        <time>2013-09-08T09:00:02Z</time>
      </trkpt>
      <trkpt lat="47.26713" lon="-1.63084">
        <ele>29.5</ele>
        <time>2013-09-08T09:00:05Z</time>
      </trkpt>
      <trkpt lat="47.26721" lon="-1.63093">
        <ele>29.4</ele>
        <time>2013-09-08T09:00:08Z</time>
      </trkpt>
      <trkpt lat="47.26729" lon="-1.63106">
        <ele>29.3</ele>
        <time>2013-09-08T09:00:11Z</time>
      </trkpt>
      <trkpt lat="47.2674" lon="-1.63114">
        <ele>29.1</ele>
        <time>2013-09-08T09:00:14Z</time>
      </trkpt>
      <trkpt lat="47.26751" lon="-1.63119">
        <ele>28.6</ele>
        <time>2013-09-08T09:00:17Z</time>
      </trkpt>
      <trkpt lat="47.26763" lon="-1.6312">
        <ele>27.8</ele>
        <time>2013-09-08T09:00:21Z</time>
      </trkpt>
      <trkpt lat="47.26774" lon="-1.63124">
        <ele>27.1</ele>
        <time>2013-09-08T09:00:24Z</time>
      </trkpt>
      <trkpt lat="47.26784" lon="-1.63127">
        <ele>26.5</ele>
        <time>2013-09-08T09:00:26Z</time>
      </trkpt>
      <trkpt lat="47.26795" lon="-1.63132">
        <ele>25.8</ele>
        <time>2013-09-08T09:00:29Z</time>
      </trkpt>
      <trkpt lat="47.26805" lon="-1.63139">
        <ele>25</ele>
        <time>2013-09-08T09:00:32Z</time>
      </trkpt>
      <trkpt lat="47.26815" lon="-1.63144">
        <ele>18.4</ele>
        <time>2013-09-08T09:00:34Z</time>
      </trkpt>
      <trkpt lat="47.26825" lon="-1.63146">
        <ele>15.1</ele>
        <time>2013-09-08T09:00:36Z</time>
      </trkpt>
      <trkpt lat="47.26834" lon="-1.63155">
        <ele>14.6</ele>
        <time>2013-09-08T09:00:39Z</time>
      </trkpt>
      <trkpt lat="47.26845" lon="-1.63164">
        <ele>13.9</ele>
        <time>2013-09-08T09:00:42Z</time>
      </trkpt>
      <trkpt lat="47.26855" lon="-1.63171">
        <ele>13.2</ele>
        <time>2013-09-08T09:00:45Z</time>
      </trkpt>
      <trkpt lat="47.26862" lon="-1.6318">
        <ele>11.7</ele>
        <time>2013-09-08T09:00:50Z</time>
      </trkpt>
      <trkpt lat="47.26866" lon="-1.63195">
        <ele>11.9</ele>
        <time>2013-09-08T09:00:53Z</time>
      </trkpt>
      <trkpt lat="47.26869" lon="-1.63211">
        <ele>12.3</ele>
        <time>2013-09-08T09:00:56Z</time>
      </trkpt>
      <trkpt lat="47.26877" lon="-1.63219">
        <ele>13.1</ele>
        <time>2013-09-08T09:01:28Z</time>
      </trkpt>
      <trkpt lat="47.26884" lon="-1.63227">
        <ele>14.6</ele>
        <time>2013-09-08T09:01:34Z</time>
      </trkpt>
      <trkpt lat="47.26891" lon="-1.63237">
        <ele>18.1</ele>
        <time>2013-09-08T09:02:21Z</time>
      </trkpt>
      <trkpt lat="47.26893" lon="-1.63253">
        <ele>19.1</ele>
        <time>2013-09-08T09:02:27Z</time>
      </trkpt>
      <trkpt lat="47.26893" lon="-1.63266">
        <ele>19.4</ele>
        <time>2013-09-08T09:02:31Z</time>
      </trkpt>
      <trkpt lat="47.26892" lon="-1.6328">
        <ele>19.4</ele>
        <time>2013-09-08T09:02:35Z</time>
      </trkpt>
      <trkpt lat="47.26891" lon="-1.63296">
        <ele>19.4</ele>
        <time>2013-09-08T09:02:38Z</time>
      </trkpt>
      <trkpt lat="47.26886" lon="-1.63313">
        <ele>19.3</ele>
        <time>2013-09-08T09:02:41Z</time>
      </trkpt>
      <trkpt lat="47.26884" lon="-1.63327">
        <ele>19.5</ele>
        <time>2013-09-08T09:02:44Z</time>
      </trkpt>
      <trkpt lat="47.26885" lon="-1.63342">
        <ele>19.6</ele>
        <time>2013-09-08T09:02:48Z</time>
      </trkpt>
      <trkpt lat="47.26886" lon="-1.63356">
        <ele>20</ele>
        <time>2013-09-08T09:02:53Z</time>
      </trkpt>
      <trkpt lat="47.26877" lon="-1.63366">
        <ele>20.3</ele>
        <time>2013-09-08T09:02:58Z</time>
      </trkpt>
      <trkpt lat="47.26871" lon="-1.63377">
        <ele>20.4</ele>
        <time>2013-09-08T09:03:00Z</time>
      </trkpt>
      <trkpt lat="47.2687" lon="-1.63391">
        <ele>20.5</ele>
        <time>2013-09-08T09:03:02Z</time>
      </trkpt>
      <trkpt lat="47.2687" lon="-1.63407">
        <ele>20.6</ele>
        <time>2013-09-08T09:03:05Z</time>
      </trkpt>
      <trkpt lat="47.26869" lon="-1.63424">
        <ele>21.5</ele>
        <time>2013-09-08T09:03:08Z</time>
      </trkpt>
      <trkpt lat="47.26865" lon="-1.63442">
        <ele>21.6</ele>
        <time>2013-09-08T09:03:11Z</time>
      </trkpt>
      <trkpt lat="47.26862" lon="-1.63456">
        <ele>21.6</ele>
        <time>2013-09-08T09:03:14Z</time>
      </trkpt>
      <trkpt lat="47.26858" lon="-1.63471">
        <ele>21.8</ele>
        <time>2013-09-08T09:03:17Z</time>
      </trkpt>
      <trkpt lat="47.26853" lon="-1.63485">
        <ele>22.1</ele>
        <time>2013-09-08T09:03:20Z</time>
      </trkpt>
      <trkpt lat="47.26849" lon="-1.63499">
        <ele>22</ele>
        <time>2013-09-08T09:03:23Z</time>
      </trkpt>
      <trkpt lat="47.26843" lon="-1.63515">
        <ele>21.7</ele>
        <time>2013-09-08T09:03:26Z</time>
      </trkpt>
      <trkpt lat="47.26837" lon="-1.63531">
        <ele>20.2</ele>
        <time>2013-09-08T09:03:29Z</time>
      </trkpt>
      <trkpt lat="47.2683" lon="-1.63546">
        <ele>21.8</ele>
        <time>2013-09-08T09:03:32Z</time>
      </trkpt>
      <trkpt lat="47.26824" lon="-1.63561">
        <ele>23.8</ele>
        <time>2013-09-08T09:03:35Z</time>
      </trkpt>
      <trkpt lat="47.26816" lon="-1.63576">
        <ele>25.4</ele>
        <time>2013-09-08T09:03:38Z</time>
      </trkpt>
      <trkpt lat="47.26811" lon="-1.63587">
        <ele>26.3</ele>
        <time>2013-09-08T09:03:40Z</time>
      </trkpt>
      <trkpt lat="47.26801" lon="-1.63601">
        <ele>28.3</ele>
        <time>2013-09-08T09:03:43Z</time>
      </trkpt>
      <trkpt lat="47.26792" lon="-1.63607">
        <ele>27.5</ele>
        <time>2013-09-08T09:03:45Z</time>
      </trkpt>
      <trkpt lat="47.26783" lon="-1.63613">
        <ele>27.5</ele>
        <time>2013-09-08T09:03:47Z</time>
      </trkpt>
      <trkpt lat="47.26776" lon="-1.6362">
        <ele>27.8</ele>
        <time>2013-09-08T09:03:49Z</time>
      </trkpt>
      <trkpt lat="47.26769" lon="-1.63635">
        <ele>27.3</ele>
        <time>2013-09-08T09:03:52Z</time>
      </trkpt>
      <trkpt lat="47.26768" lon="-1.63654">
        <ele>27.2</ele>
        <time>2013-09-08T09:03:55Z</time>
      </trkpt>
      <trkpt lat="47.26761" lon="-1.63671">
        <ele>24.7</ele>
        <time>2013-09-08T09:03:58Z</time>
      </trkpt>
      <trkpt lat="47.26753" lon="-1.63689">
        <ele>23.3</ele>
        <time>2013-09-08T09:04:00Z</time>
      </trkpt>
      <trkpt lat="47.26747" lon="-1.63712">
        <ele>23.7</ele>
        <time>2013-09-08T09:04:02Z</time>
      </trkpt>
      <trkpt lat="47.26741" lon="-1.63732">
        <ele>24.6</ele>
        <time>2013-09-08T09:04:04Z</time>
      </trkpt>
      <trkpt lat="47.26738" lon="-1.6375">
        <ele>24</ele>
        <time>2013-09-08T09:04:06Z</time>
      </trkpt>
      <trkpt lat="47.26736" lon="-1.6377">
        <ele>22.4</ele>
        <time>2013-09-08T09:04:08Z</time>
      </trkpt>
      <trkpt lat="47.26734" lon="-1.63787">
        <ele>21.8</ele>
        <time>2013-09-08T09:04:10Z</time>
      </trkpt>
      <trkpt lat="47.26734" lon="-1.63802">
        <ele>21.8</ele>
        <time>2013-09-08T09:04:12Z</time>
      </trkpt>
      <trkpt lat="47.26733" lon="-1.63818">
        <ele>21.9</ele>
        <time>2013-09-08T09:04:14Z</time>
      </trkpt>
      <trkpt lat="47.26733" lon="-1.63834">
        <ele>21</ele>
        <time>2013-09-08T09:04:16Z</time>
      </trkpt>
      <trkpt lat="47.26731" lon="-1.63849">
        <ele>20.8</ele>
        <time>2013-09-08T09:04:18Z</time>
      </trkpt>
      <trkpt lat="47.26729" lon="-1.63865">
        <ele>19.8</ele>
        <time>2013-09-08T09:04:20Z</time>
      </trkpt>
      <trkpt lat="47.26725" lon="-1.63882">
        <ele>20.1</ele>
        <time>2013-09-08T09:04:22Z</time>
      </trkpt>
      <trkpt lat="47.26722" lon="-1.63897">
        <ele>20.9</ele>
        <time>2013-09-08T09:04:24Z</time>
      </trkpt>
      <trkpt lat="47.26718" lon="-1.63912">
        <ele>21.8</ele>
        <time>2013-09-08T09:04:26Z</time>
      </trkpt>
      <trkpt lat="47.26716" lon="-1.63925">
        <ele>22.5</ele>
        <time>2013-09-08T09:04:28Z</time>
      </trkpt>
      <trkpt lat="47.26715" lon="-1.63939">
        <ele>22.8</ele>
        <time>2013-09-08T09:04:30Z</time>
      </trkpt>
      <trkpt lat="47.26714" lon="-1.63954">
        <ele>22.2</ele>
        <time>2013-09-08T09:04:32Z</time>
      </trkpt>
      <trkpt lat="47.26715" lon="-1.6397">
        <ele>21.8</ele>
        <time>2013-09-08T09:04:34Z</time>
      </trkpt>
      <trkpt lat="47.26715" lon="-1.63985">
        <ele>19.5</ele>
        <time>2013-09-08T09:04:36Z</time>
      </trkpt>
      <trkpt lat="47.26723" lon="-1.63992">
        <ele>17.7</ele>
        <time>2013-09-08T09:04:42Z</time>
      </trkpt>
      <trkpt lat="47.26726" lon="-1.64009">
        <ele>15.5</ele>
        <time>2013-09-08T09:05:08Z</time>
      </trkpt>
      <trkpt lat="47.26722" lon="-1.64022">
        <ele>15.7</ele>
        <time>2013-09-08T09:05:11Z</time>
      </trkpt>
      <trkpt lat="47.26718" lon="-1.64039">
        <ele>16.7</ele>
        <time>2013-09-08T09:05:16Z</time>
      </trkpt>
      <trkpt lat="47.26715" lon="-1.64053">
        <ele>17.6</ele>
        <time>2013-09-08T09:05:20Z</time>
      </trkpt>
      <trkpt lat="47.2671" lon="-1.64067">
        <ele>18.8</ele>
        <time>2013-09-08T09:05:24Z</time>
      </trkpt>
      <trkpt lat="47.26705" lon="-1.6408">
        <ele>19.5</ele>
        <time>2013-09-08T09:05:27Z</time>
      </trkpt>
      <trkpt lat="47.26699" lon="-1.64093">
        <ele>20.1</ele>
        <time>2013-09-08T09:05:32Z</time>
      </trkpt>
      <trkpt lat="47.26691" lon="-1.64103">
        <ele>20.5</ele>
        <time>2013-09-08T09:05:37Z</time>
      </trkpt>
      <trkpt lat="47.26683" lon="-1.64113">
        <ele>20.9</ele>
        <time>2013-09-08T09:05:42Z</time>
      </trkpt>
      <trkpt lat="47.26673" lon="-1.64121">
        <ele>21.4</ele>
        <time>2013-09-08T09:05:48Z</time>
      </trkpt>
      <trkpt lat="47.26665" lon="-1.64125">
        <ele>22.8</ele>
        <time>2013-09-08T09:05:54Z</time>
      </trkpt>
      <trkpt lat="47.26655" lon="-1.64128">
        <ele>23.6</ele>
        <time>2013-09-08T09:05:58Z</time>
      </trkpt>
      <trkpt lat="47.26646" lon="-1.6413">
        <ele>24.7</ele>
        <time>2013-09-08T09:06:03Z</time>
      </trkpt>
      <trkpt lat="47.26637" lon="-1.64128">
        <ele>25.7</ele>
        <time>2013-09-08T09:06:09Z</time>
      </trkpt>
      <trkpt lat="47.26621" lon="-1.64127">
        <ele>28.2</ele>
        <time>2013-09-08T09:06:21Z</time>
      </trkpt>
      <trkpt lat="47.26608" lon="-1.64125">
        <ele>29.3</ele>
        <time>2013-09-08T09:06:29Z</time>
      </trkpt>
      <trkpt lat="47.26599" lon="-1.64125">
        <ele>30.5</ele>
        <time>2013-09-08T09:06:37Z</time>
      </trkpt>
      <trkpt lat="47.2659" lon="-1.64122">
        <ele>31.2</ele>
        <time>2013-09-08T09:06:42Z</time>
      </trkpt>
      <trkpt lat="47.2658" lon="-1.64119">
        <ele>31.9</ele>
        <time>2013-09-08T09:06:47Z</time>
      </trkpt>
      <trkpt lat="47.26571" lon="-1.64117">
        <ele>32.7</ele>
        <time>2013-09-08T09:06:52Z</time>
      </trkpt>
      <trkpt lat="47.26562" lon="-1.64112">
        <ele>33.8</ele>
        <time>2013-09-08T09:06:56Z</time>
      </trkpt>
      <trkpt lat="47.26553" lon="-1.64102">
        <ele>35.2</ele>
        <time>2013-09-08T09:07:00Z</time>
      </trkpt>
      <trkpt lat="47.26545" lon="-1.64094">
        <ele>37.2</ele>
        <time>2013-09-08T09:07:06Z</time>
      </trkpt>
      <trkpt lat="47.26535" lon="-1.64091">
        <ele>39</ele>
        <time>2013-09-08T09:07:14Z</time>
      </trkpt>
      <trkpt lat="47.26525" lon="-1.6409">
        <ele>41.1</ele>
        <time>2013-09-08T09:07:22Z</time>
      </trkpt>
      <trkpt lat="47.26515" lon="-1.64087">
        <ele>42</ele>
        <time>2013-09-08T09:07:27Z</time>
      </trkpt>
      <trkpt lat="47.26506" lon="-1.6408">
        <ele>42.2</ele>
        <time>2013-09-08T09:07:31Z</time>
      </trkpt>
      <trkpt lat="47.26497" lon="-1.6407">
        <ele>42.1</ele>
        <time>2013-09-08T09:07:36Z</time>
      </trkpt>
      <trkpt lat="47.2649" lon="-1.64061">
        <ele>42.5</ele>
        <time>2013-09-08T09:07:40Z</time>
      </trkpt>
      <trkpt lat="47.26483" lon="-1.64052">
        <ele>43.3</ele>
        <time>2013-09-08T09:07:46Z</time>
      </trkpt>
      <trkpt lat="47.26475" lon="-1.64044">
        <ele>43</ele>
        <time>2013-09-08T09:10:05Z</time>
      </trkpt>
      <trkpt lat="47.26467" lon="-1.6405">
        <ele>43.7</ele>
        <time>2013-09-08T09:10:40Z</time>
      </trkpt>
      <trkpt lat="47.2646" lon="-1.64062">
        <ele>44.4</ele>
        <time>2013-09-08T09:10:45Z</time>
      </trkpt>
      <trkpt lat="47.26453" lon="-1.64075">
        <ele>45.1</ele>
        <time>2013-09-08T09:10:51Z</time>
      </trkpt>
      <trkpt lat="47.26447" lon="-1.64086">
        <ele>45.4</ele>
        <time>2013-09-08T09:10:54Z</time>
      </trkpt>
      <trkpt lat="47.26439" lon="-1.64098">
        <ele>45.7</ele>
        <time>2013-09-08T09:10:57Z</time>
      </trkpt>
      <trkpt lat="47.26431" lon="-1.6411">
        <ele>46.2</ele>
        <time>2013-09-08T09:11:00Z</time>
      </trkpt>
      <trkpt lat="47.26425" lon="-1.6412">
        <ele>46.8</ele>
        <time>2013-09-08T09:11:03Z</time>
      </trkpt>
      <trkpt lat="47.26418" lon="-1.64131">
        <ele>47.2</ele>
        <time>2013-09-08T09:11:06Z</time>
      </trkpt>
      <trkpt lat="47.26411" lon="-1.64143">
        <ele>47.3</ele>
        <time>2013-09-08T09:11:09Z</time>
      </trkpt>
      <trkpt lat="47.26405" lon="-1.64154">
        <ele>47.5</ele>
        <time>2013-09-08T09:11:12Z</time>
      </trkpt>
      <trkpt lat="47.26398" lon="-1.64166">
        <ele>47.8</ele>
        <time>2013-09-08T09:11:15Z</time>
      </trkpt>
      <trkpt lat="47.26391" lon="-1.64176">
        <ele>48.1</ele>
        <time>2013-09-08T09:11:18Z</time>
      </trkpt>
      <trkpt lat="47.26385" lon="-1.64186">
        <ele>48.4</ele>
        <time>2013-09-08T09:11:21Z</time>
      </trkpt>
      <trkpt lat="47.26379" lon="-1.64198">
        <ele>48.7</ele>
        <time>2013-09-08T09:11:24Z</time>
      </trkpt>
      <trkpt lat="47.26374" lon="-1.64212">
        <ele>48.9</ele>
        <time>2013-09-08T09:11:27Z</time>
      </trkpt>
      <trkpt lat="47.26369" lon="-1.64226">
        <ele>48.9</ele>
        <time>2013-09-08T09:11:30Z</time>
      </trkpt>
      <trkpt lat="47.26362" lon="-1.64235">
        <ele>49.2</ele>
        <time>2013-09-08T09:11:33Z</time>
      </trkpt>
      <trkpt lat="47.26352" lon="-1.64243">
        <ele>49.3</ele>
        <time>2013-09-08T09:11:36Z</time>
      </trkpt>
      <trkpt lat="47.26343" lon="-1.64247">
        <ele>51.9</ele>
        <time>2013-09-08T09:11:39Z</time>
      </trkpt>
      <trkpt lat="47.26333" lon="-1.64251">
        <ele>52.9</ele>
        <time>2013-09-08T09:11:41Z</time>
      </trkpt>
      <trkpt lat="47.26323" lon="-1.64256">
        <ele>53.7</ele>
        <time>2013-09-08T09:11:43Z</time>
      </trkpt>
      <trkpt lat="47.26312" lon="-1.64261">
        <ele>54.5</ele>
        <time>2013-09-08T09:11:45Z</time>
      </trkpt>
      <trkpt lat="47.263" lon="-1.64265">
        <ele>54.5</ele>
        <time>2013-09-08T09:11:47Z</time>
      </trkpt>
      <trkpt lat="47.26288" lon="-1.6427">
        <ele>54.4</ele>
        <time>2013-09-08T09:11:49Z</time>
      </trkpt>
      <trkpt lat="47.26277" lon="-1.64275">
        <ele>54.4</ele>
        <time>2013-09-08T09:11:51Z</time>
      </trkpt>
      <trkpt lat="47.26268" lon="-1.64281">
        <ele>53.8</ele>
        <time>2013-09-08T09:11:53Z</time>
      </trkpt>
      <trkpt lat="47.2626" lon="-1.64287">
        <ele>53.6</ele>
        <time>2013-09-08T09:11:55Z</time>
      </trkpt>
      <trkpt lat="47.26248" lon="-1.64295">
        <ele>52.8</ele>
        <time>2013-09-08T09:11:58Z</time>
      </trkpt>
      <trkpt lat="47.26237" lon="-1.64301">
        <ele>52</ele>
        <time>2013-09-08T09:12:01Z</time>
      </trkpt>
      <trkpt lat="47.26227" lon="-1.64313">
        <ele>52.3</ele>
        <time>2013-09-08T09:12:04Z</time>
      </trkpt>
      <trkpt lat="47.26232" lon="-1.64329">
        <ele>54.1</ele>
        <time>2013-09-08T09:12:07Z</time>
      </trkpt>
      <trkpt lat="47.26239" lon="-1.64342">
        <ele>54.9</ele>
        <time>2013-09-08T09:12:10Z</time>
      </trkpt>
      <trkpt lat="47.26246" lon="-1.64355">
        <ele>54.5</ele>
        <time>2013-09-08T09:12:13Z</time>
      </trkpt>
      <trkpt lat="47.26253" lon="-1.64368">
        <ele>52</ele>
        <time>2013-09-08T09:12:16Z</time>
      </trkpt>
      <trkpt lat="47.26262" lon="-1.64381">
        <ele>49.6</ele>
        <time>2013-09-08T09:12:19Z</time>
      </trkpt>
      <trkpt lat="47.26268" lon="-1.64391">
        <ele>49.4</ele>
        <time>2013-09-08T09:12:21Z</time>
      </trkpt>
      <trkpt lat="47.26277" lon="-1.64405">
        <ele>49.4</ele>
        <time>2013-09-08T09:12:24Z</time>
      </trkpt>
      <trkpt lat="47.26286" lon="-1.64419">
        <ele>49.9</ele>
        <time>2013-09-08T09:12:27Z</time>
      </trkpt>
      <trkpt lat="47.26295" lon="-1.64433">
        <ele>48.8</ele>
        <time>2013-09-08T09:12:30Z</time>
      </trkpt>
      <trkpt lat="47.26303" lon="-1.64447">
        <ele>48</ele>
        <time>2013-09-08T09:12:33Z</time>
      </trkpt>
      <trkpt lat="47.26313" lon="-1.64462">
        <ele>50.9</ele>
        <time>2013-09-08T09:12:36Z</time>
      </trkpt>
      <trkpt lat="47.26321" lon="-1.64475">
        <ele>53.2</ele>
        <time>2013-09-08T09:12:39Z</time>
      </trkpt>
      <trkpt lat="47.26329" lon="-1.64488">
        <ele>53.4</ele>
        <time>2013-09-08T09:12:42Z</time>
      </trkpt>
      <trkpt lat="47.26336" lon="-1.64501">
        <ele>53.4</ele>
        <time>2013-09-08T09:12:45Z</time>
      </trkpt>
      <trkpt lat="47.26345" lon="-1.64513">
        <ele>53.6</ele>
        <time>2013-09-08T09:12:48Z</time>
      </trkpt>
      <trkpt lat="47.26352" lon="-1.64525">
        <ele>53.9</ele>
        <time>2013-09-08T09:12:51Z</time>
      </trkpt>
      <trkpt lat="47.26359" lon="-1.64537">
        <ele>54.2</ele>
        <time>2013-09-08T09:12:54Z</time>
      </trkpt>
      <trkpt lat="47.26365" lon="-1.64549">
        <ele>54.4</ele>
        <time>2013-09-08T09:12:57Z</time>
      </trkpt>
      <trkpt lat="47.26371" lon="-1.64561">
        <ele>54.7</ele>
        <time>2013-09-08T09:13:00Z</time>
      </trkpt>
      <trkpt lat="47.26376" lon="-1.64574">
        <ele>54.7</ele>
        <time>2013-09-08T09:13:03Z</time>
      </trkpt>
      <trkpt lat="47.26381" lon="-1.6459">
        <ele>54.8</ele>
        <time>2013-09-08T09:13:06Z</time>
      </trkpt>
      <trkpt lat="47.26384" lon="-1.64602">
        <ele>54.9</ele>
        <time>2013-09-08T09:13:09Z</time>
      </trkpt>
      <trkpt lat="47.26388" lon="-1.64616">
        <ele>55.1</ele>
        <time>2013-09-08T09:13:12Z</time>
      </trkpt>
      <trkpt lat="47.26392" lon="-1.64631">
        <ele>55.3</ele>
        <time>2013-09-08T09:13:15Z</time>
      </trkpt>
      <trkpt lat="47.26396" lon="-1.64644">
        <ele>55.5</ele>
        <time>2013-09-08T09:13:18Z</time>
      </trkpt>
      <trkpt lat="47.26404" lon="-1.64655">
        <ele>55.7</ele>
        <time>2013-09-08T09:13:21Z</time>
      </trkpt>
      <trkpt lat="47.26414" lon="-1.64665">
        <ele>56</ele>
        <time>2013-09-08T09:13:24Z</time>
      </trkpt>
      <trkpt lat="47.26424" lon="-1.64674">
        <ele>56.6</ele>
        <time>2013-09-08T09:13:27Z</time>
      </trkpt>
      <trkpt lat="47.26434" lon="-1.64682">
        <ele>57</ele>
        <time>2013-09-08T09:13:30Z</time>
      </trkpt>
      <trkpt lat="47.26443" lon="-1.64688">
        <ele>57.4</ele>
        <time>2013-09-08T09:13:33Z</time>
      </trkpt>
      <trkpt lat="47.26453" lon="-1.64692">
        <ele>57.7</ele>
        <time>2013-09-08T09:13:36Z</time>
      </trkpt>
      <trkpt lat="47.26457" lon="-1.64706">
        <ele>57.6</ele>
        <time>2013-09-08T09:13:41Z</time>
      </trkpt>
      <trkpt lat="47.26458" lon="-1.64723">
        <ele>57.7</ele>
        <time>2013-09-08T09:13:45Z</time>
      </trkpt>
      <trkpt lat="47.2646" lon="-1.64739">
        <ele>57.8</ele>
        <time>2013-09-08T09:13:49Z</time>
      </trkpt>
      <trkpt lat="47.26462" lon="-1.64753">
        <ele>57.9</ele>
        <time>2013-09-08T09:13:52Z</time>
      </trkpt>
      <trkpt lat="47.26461" lon="-1.64767">
        <ele>57.9</ele>
        <time>2013-09-08T09:13:56Z</time>
      </trkpt>
      <trkpt lat="47.26466" lon="-1.6478">
        <ele>57.5</ele>
        <time>2013-09-08T09:14:14Z</time>
      </trkpt>
      <trkpt lat="47.2647" lon="-1.64793">
        <ele>57.7</ele>
        <time>2013-09-08T09:14:19Z</time>
      </trkpt>
      <trkpt lat="47.26475" lon="-1.64807">
        <ele>58.2</ele>
        <time>2013-09-08T09:14:24Z</time>
      </trkpt>
      <trkpt lat="47.26479" lon="-1.64819">
        <ele>58.4</ele>
        <time>2013-09-08T09:14:27Z</time>
      </trkpt>
      <trkpt lat="47.26484" lon="-1.64831">
        <ele>58.4</ele>
        <time>2013-09-08T09:14:30Z</time>
      </trkpt>
      <trkpt lat="47.26489" lon="-1.64842">
        <ele>58.5</ele>
        <time>2013-09-08T09:14:33Z</time>
      </trkpt>
      <trkpt lat="47.26496" lon="-1.64857">
        <ele>58.6</ele>
        <time>2013-09-08T09:14:37Z</time>
      </trkpt>
      <trkpt lat="47.26503" lon="-1.64868">
        <ele>58.7</ele>
        <time>2013-09-08T09:14:41Z</time>
      </trkpt>
      <trkpt lat="47.26509" lon="-1.64879">
        <ele>58.8</ele>
        <time>2013-09-08T09:14:44Z</time>
      </trkpt>
      <trkpt lat="47.26516" lon="-1.64889">
        <ele>58.9</ele>
        <time>2013-09-08T09:14:48Z</time>
      </trkpt>
      <trkpt lat="47.26524" lon="-1.649">
        <ele>59.2</ele>
        <time>2013-09-08T09:14:52Z</time>
      </trkpt>
      <trkpt lat="47.26532" lon="-1.64909">
        <ele>59.5</ele>
        <time>2013-09-08T09:14:55Z</time>
      </trkpt>
      <trkpt lat="47.26541" lon="-1.64914">
        <ele>59.8</ele>
        <time>2013-09-08T09:15:00Z</time>
      </trkpt>
      <trkpt lat="47.26551" lon="-1.64921">
        <ele>60.1</ele>
        <time>2013-09-08T09:15:07Z</time>
      </trkpt>
      <trkpt lat="47.26554" lon="-1.64934">
        <ele>60</ele>
        <time>2013-09-08T09:15:10Z</time>
      </trkpt>
      <trkpt lat="47.26555" lon="-1.64947">
        <ele>59.7</ele>
        <time>2013-09-08T09:15:13Z</time>
      </trkpt>
      <trkpt lat="47.26553" lon="-1.6496">
        <ele>59.4</ele>
        <time>2013-09-08T09:15:16Z</time>
      </trkpt>
      <trkpt lat="47.26549" lon="-1.64973">
        <ele>59.1</ele>
        <time>2013-09-08T09:15:19Z</time>
      </trkpt>
      <trkpt lat="47.26545" lon="-1.64989">
        <ele>58.8</ele>
        <time>2013-09-08T09:15:23Z</time>
      </trkpt>
      <trkpt lat="47.26541" lon="-1.65004">
        <ele>58.6</ele>
        <time>2013-09-08T09:15:27Z</time>
      </trkpt>
      <trkpt lat="47.26541" lon="-1.65018">
        <ele>58.4</ele>
        <time>2013-09-08T09:15:31Z</time>
      </trkpt>
      <trkpt lat="47.26547" lon="-1.65029">
        <ele>58.1</ele>
        <time>2013-09-08T09:15:35Z</time>
      </trkpt>
      <trkpt lat="47.26558" lon="-1.65029">
        <ele>57.9</ele>
        <time>2013-09-08T09:15:40Z</time>
      </trkpt>
      <trkpt lat="47.26564" lon="-1.65017">
        <ele>58.6</ele>
        <time>2013-09-08T09:16:19Z</time>
      </trkpt>
      <trkpt lat="47.26567" lon="-1.6503">
        <ele>58.9</ele>
        <time>2013-09-08T09:16:29Z</time>
      </trkpt>
      <trkpt lat="47.26558" lon="-1.65023">
        <ele>58.4</ele>
        <time>2013-09-08T09:17:04Z</time>
      </trkpt>
      <trkpt lat="47.26568" lon="-1.65023">
        <ele>58.3</ele>
        <time>2013-09-08T09:17:58Z</time>
      </trkpt>
      <trkpt lat="47.26577" lon="-1.65021">
        <ele>58.5</ele>
        <time>2013-09-08T09:18:04Z</time>
      </trkpt>
      <trkpt lat="47.26586" lon="-1.65016">
        <ele>58.4</ele>
        <time>2013-09-08T09:18:08Z</time>
      </trkpt>
      <trkpt lat="47.26595" lon="-1.65011">
        <ele>58.3</ele>
        <time>2013-09-08T09:18:12Z</time>
      </trkpt>
      <trkpt lat="47.26606" lon="-1.65004">
        <ele>58.3</ele>
        <time>2013-09-08T09:18:16Z</time>
      </trkpt>
      <trkpt lat="47.26614" lon="-1.64998">
        <ele>58.5</ele>
        <time>2013-09-08T09:18:19Z</time>
      </trkpt>
      <trkpt lat="47.2662" lon="-1.64984">
        <ele>58.2</ele>
        <time>2013-09-08T09:18:23Z</time>
      </trkpt>
      <trkpt lat="47.2662" lon="-1.64969">
        <ele>58</ele>
        <time>2013-09-08T09:18:26Z</time>
      </trkpt>
      <trkpt lat="47.26617" lon="-1.64956">
        <ele>57.8</ele>
        <time>2013-09-08T09:18:29Z</time>
      </trkpt>
      <trkpt lat="47.26613" lon="-1.64944">
        <ele>57.4</ele>
        <time>2013-09-08T09:18:33Z</time>
      </trkpt>
      <trkpt lat="47.26609" lon="-1.64931">
        <ele>56.9</ele>
        <time>2013-09-08T09:18:38Z</time>
      </trkpt>
      <trkpt lat="47.26609" lon="-1.64916">
        <ele>56.7</ele>
        <time>2013-09-08T09:18:44Z</time>
      </trkpt>
      <trkpt lat="47.26617" lon="-1.64908">
        <ele>57</ele>
        <time>2013-09-08T09:18:52Z</time>
      </trkpt>
      <trkpt lat="47.26628" lon="-1.64905">
        <ele>57.2</ele>
        <time>2013-09-08T09:18:58Z</time>
      </trkpt>
      <trkpt lat="47.26635" lon="-1.64896">
        <ele>56.8</ele>
        <time>2013-09-08T09:19:04Z</time>
      </trkpt>
      <trkpt lat="47.26644" lon="-1.64893">
        <ele>56.2</ele>
        <time>2013-09-08T09:19:10Z</time>
      </trkpt>
      <trkpt lat="47.26653" lon="-1.64899">
        <ele>54.9</ele>
        <time>2013-09-08T09:19:16Z</time>
      </trkpt>
      <trkpt lat="47.26661" lon="-1.64907">
        <ele>54.3</ele>
        <time>2013-09-08T09:19:21Z</time>
      </trkpt>
      <trkpt lat="47.26669" lon="-1.64916">
        <ele>53.6</ele>
        <time>2013-09-08T09:19:25Z</time>
      </trkpt>
      <trkpt lat="47.26679" lon="-1.64921">
        <ele>53</ele>
        <time>2013-09-08T09:19:28Z</time>
      </trkpt>
      <trkpt lat="47.26688" lon="-1.64925">
        <ele>52.1</ele>
        <time>2013-09-08T09:19:32Z</time>
      </trkpt>
      <trkpt lat="47.26678" lon="-1.64924">
        <ele>50.2</ele>
        <time>2013-09-08T09:20:10Z</time>
      </trkpt>
      <trkpt lat="47.26671" lon="-1.64914">
        <ele>50.4</ele>
        <time>2013-09-08T09:20:14Z</time>
      </trkpt>
      <trkpt lat="47.26664" lon="-1.64904">
        <ele>50.8</ele>
        <time>2013-09-08T09:20:18Z</time>
      </trkpt>
      <trkpt lat="47.26655" lon="-1.64899">
        <ele>51.2</ele>
        <time>2013-09-08T09:20:24Z</time>
      </trkpt>
      <trkpt lat="47.26646" lon="-1.64894">
        <ele>51.7</ele>
        <time>2013-09-08T09:20:28Z</time>
      </trkpt>
      <trkpt lat="47.26635" lon="-1.64896">
        <ele>51.9</ele>
        <time>2013-09-08T09:20:32Z</time>
      </trkpt>
      <trkpt lat="47.26627" lon="-1.64901">
        <ele>52.1</ele>
        <time>2013-09-08T09:20:36Z</time>
      </trkpt>
      <trkpt lat="47.26619" lon="-1.64911">
        <ele>52.6</ele>
        <time>2013-09-08T09:20:43Z</time>
      </trkpt>
      <trkpt lat="47.26609" lon="-1.64917">
        <ele>53</ele>
        <time>2013-09-08T09:20:47Z</time>
      </trkpt>
      <trkpt lat="47.26597" lon="-1.64921">
        <ele>53.4</ele>
        <time>2013-09-08T09:20:51Z</time>
      </trkpt>
      <trkpt lat="47.26588" lon="-1.64925">
        <ele>53.7</ele>
        <time>2013-09-08T09:20:54Z</time>
      </trkpt>
      <trkpt lat="47.26579" lon="-1.64927">
        <ele>53.8</ele>
        <time>2013-09-08T09:20:57Z</time>
      </trkpt>
      <trkpt lat="47.26569" lon="-1.64925">
        <ele>54</ele>
        <time>2013-09-08T09:21:00Z</time>
      </trkpt>
      <trkpt lat="47.26558" lon="-1.64923">
        <ele>54.4</ele>
        <time>2013-09-08T09:21:04Z</time>
      </trkpt>
      <trkpt lat="47.26548" lon="-1.64917">
        <ele>54.8</ele>
        <time>2013-09-08T09:21:08Z</time>
      </trkpt>
      <trkpt lat="47.26538" lon="-1.6491">
        <ele>55.2</ele>
        <time>2013-09-08T09:21:11Z</time>
      </trkpt>
      <trkpt lat="47.26528" lon="-1.649">
        <ele>55.6</ele>
        <time>2013-09-08T09:21:14Z</time>
      </trkpt>
      <trkpt lat="47.2652" lon="-1.6489">
        <ele>56.1</ele>
        <time>2013-09-08T09:21:17Z</time>
      </trkpt>
      <trkpt lat="47.26512" lon="-1.64878">
        <ele>56.4</ele>
        <time>2013-09-08T09:21:21Z</time>
      </trkpt>
      <trkpt lat="47.26505" lon="-1.64867">
        <ele>56.7</ele>
        <time>2013-09-08T09:21:24Z</time>
      </trkpt>
      <trkpt lat="47.26497" lon="-1.64855">
        <ele>57</ele>
        <time>2013-09-08T09:21:27Z</time>
      </trkpt>
      <trkpt lat="47.2649" lon="-1.64842">
        <ele>57.3</ele>
        <time>2013-09-08T09:21:30Z</time>
      </trkpt>
      <trkpt lat="47.26484" lon="-1.6483">
        <ele>58.4</ele>
        <time>2013-09-08T09:21:33Z</time>
      </trkpt>
      <trkpt lat="47.26477" lon="-1.64813">
        <ele>59.7</ele>
        <time>2013-09-08T09:21:36Z</time>
      </trkpt>
      <trkpt lat="47.26473" lon="-1.648">
        <ele>60</ele>
        <time>2013-09-08T09:21:38Z</time>
      </trkpt>
      <trkpt lat="47.26469" lon="-1.64786">
        <ele>60</ele>
        <time>2013-09-08T09:21:40Z</time>
      </trkpt>
      <trkpt lat="47.26465" lon="-1.64773">
        <ele>59.9</ele>
        <time>2013-09-08T09:21:42Z</time>
      </trkpt>
      <trkpt lat="47.26461" lon="-1.64755">
        <ele>59.1</ele>
        <time>2013-09-08T09:21:45Z</time>
      </trkpt>
      <trkpt lat="47.26459" lon="-1.64742">
        <ele>58.3</ele>
        <time>2013-09-08T09:21:47Z</time>
      </trkpt>
      <trkpt lat="47.26457" lon="-1.64729">
        <ele>57.9</ele>
        <time>2013-09-08T09:21:49Z</time>
      </trkpt>
      <trkpt lat="47.26456" lon="-1.64715">
        <ele>57.3</ele>
        <time>2013-09-08T09:21:51Z</time>
      </trkpt>
      <trkpt lat="47.26455" lon="-1.64696">
        <ele>57.1</ele>
        <time>2013-09-08T09:21:54Z</time>
      </trkpt>
      <trkpt lat="47.2645" lon="-1.64684">
        <ele>57.1</ele>
        <time>2013-09-08T09:21:57Z</time>
      </trkpt>
      <trkpt lat="47.26441" lon="-1.64678">
        <ele>57.1</ele>
        <time>2013-09-08T09:22:00Z</time>
      </trkpt>
      <trkpt lat="47.2643" lon="-1.64671">
        <ele>56.8</ele>
        <time>2013-09-08T09:22:03Z</time>
      </trkpt>
      <trkpt lat="47.26418" lon="-1.64663">
        <ele>56.9</ele>
        <time>2013-09-08T09:22:06Z</time>
      </trkpt>
      <trkpt lat="47.26408" lon="-1.64654">
        <ele>57</ele>
        <time>2013-09-08T09:22:09Z</time>
      </trkpt>
      <trkpt lat="47.26399" lon="-1.64647">
        <ele>57</ele>
        <time>2013-09-08T09:22:13Z</time>
      </trkpt>
      <trkpt lat="47.26399" lon="-1.64662">
        <ele>56.9</ele>
        <time>2013-09-08T09:22:20Z</time>
      </trkpt>
      <trkpt lat="47.26402" lon="-1.64678">
        <ele>56.9</ele>
        <time>2013-09-08T09:22:24Z</time>
      </trkpt>
      <trkpt lat="47.26405" lon="-1.64695">
        <ele>57</ele>
        <time>2013-09-08T09:22:28Z</time>
      </trkpt>
      <trkpt lat="47.26406" lon="-1.64711">
        <ele>56.7</ele>
        <time>2013-09-08T09:22:32Z</time>
      </trkpt>
      <trkpt lat="47.2641" lon="-1.64725">
        <ele>56.6</ele>
        <time>2013-09-08T09:22:36Z</time>
      </trkpt>
      <trkpt lat="47.26412" lon="-1.64742">
        <ele>56.4</ele>
        <time>2013-09-08T09:22:40Z</time>
      </trkpt>
      <trkpt lat="47.26416" lon="-1.64755">
        <ele>56</ele>
        <time>2013-09-08T09:22:43Z</time>
      </trkpt>
      <trkpt lat="47.26417" lon="-1.64769">
        <ele>55.6</ele>
        <time>2013-09-08T09:22:46Z</time>
      </trkpt>
      <trkpt lat="47.26419" lon="-1.64784">
        <ele>55.5</ele>
        <time>2013-09-08T09:22:49Z</time>
      </trkpt>
      <trkpt lat="47.26422" lon="-1.64801">
        <ele>55.3</ele>
        <time>2013-09-08T09:22:52Z</time>
      </trkpt>
      <trkpt lat="47.26425" lon="-1.64817">
        <ele>55.4</ele>
        <time>2013-09-08T09:22:54Z</time>
      </trkpt>
      <trkpt lat="47.26426" lon="-1.64833">
        <ele>55.9</ele>
        <time>2013-09-08T09:22:57Z</time>
      </trkpt>
      <trkpt lat="47.26431" lon="-1.6485">
        <ele>56.4</ele>
        <time>2013-09-08T09:23:00Z</time>
      </trkpt>
      <trkpt lat="47.26435" lon="-1.64863">
        <ele>56.8</ele>
        <time>2013-09-08T09:23:03Z</time>
      </trkpt>
      <trkpt lat="47.26441" lon="-1.64878">
        <ele>57.1</ele>
        <time>2013-09-08T09:23:07Z</time>
      </trkpt>
      <trkpt lat="47.26448" lon="-1.64892">
        <ele>57.2</ele>
        <time>2013-09-08T09:23:11Z</time>
      </trkpt>
      <trkpt lat="47.26455" lon="-1.64908">
        <ele>57.4</ele>
        <time>2013-09-08T09:23:14Z</time>
      </trkpt>
      <trkpt lat="47.26464" lon="-1.64921">
        <ele>58.2</ele>
        <time>2013-09-08T09:23:17Z</time>
      </trkpt>
      <trkpt lat="47.26471" lon="-1.64931">
        <ele>58.3</ele>
        <time>2013-09-08T09:23:20Z</time>
      </trkpt>
      <trkpt lat="47.26481" lon="-1.64943">
        <ele>58.4</ele>
        <time>2013-09-08T09:23:23Z</time>
      </trkpt>
      <trkpt lat="47.26488" lon="-1.64952">
        <ele>58.4</ele>
        <time>2013-09-08T09:23:25Z</time>
      </trkpt>
      <trkpt lat="47.26494" lon="-1.64963">
        <ele>58.5</ele>
        <time>2013-09-08T09:23:27Z</time>
      </trkpt>
      <trkpt lat="47.26499" lon="-1.64974">
        <ele>58.5</ele>
        <time>2013-09-08T09:23:29Z</time>
      </trkpt>
      <trkpt lat="47.26504" lon="-1.64986">
        <ele>58.4</ele>
        <time>2013-09-08T09:23:31Z</time>
      </trkpt>
      <trkpt lat="47.2651" lon="-1.65">
        <ele>58.5</ele>
        <time>2013-09-08T09:23:33Z</time>
      </trkpt>
      <trkpt lat="47.26515" lon="-1.65013">
        <ele>57.5</ele>
        <time>2013-09-08T09:23:35Z</time>
      </trkpt>
      <trkpt lat="47.2652" lon="-1.65025">
        <ele>55.7</ele>
        <time>2013-09-08T09:23:37Z</time>
      </trkpt>
      <trkpt lat="47.26525" lon="-1.65042">
        <ele>56.1</ele>
        <time>2013-09-08T09:23:40Z</time>
      </trkpt>
      <trkpt lat="47.2653" lon="-1.65055">
        <ele>56.4</ele>
        <time>2013-09-08T09:23:42Z</time>
      </trkpt>
      <trkpt lat="47.26535" lon="-1.65066">
        <ele>56.4</ele>
        <time>2013-09-08T09:23:44Z</time>
      </trkpt>
      <trkpt lat="47.26539" lon="-1.65079">
        <ele>57.2</ele>
        <time>2013-09-08T09:23:46Z</time>
      </trkpt>
      <trkpt lat="47.26543" lon="-1.65093">
        <ele>57.2</ele>
        <time>2013-09-08T09:23:48Z</time>
      </trkpt>
      <trkpt lat="47.26549" lon="-1.65107">
        <ele>57.3</ele>
        <time>2013-09-08T09:23:51Z</time>
      </trkpt>
      <trkpt lat="47.26555" lon="-1.65118">
        <ele>57.5</ele>
        <time>2013-09-08T09:23:54Z</time>
      </trkpt>
      <trkpt lat="47.26561" lon="-1.65137">
        <ele>57.8</ele>
        <time>2013-09-08T09:23:57Z</time>
      </trkpt>
      <trkpt lat="47.26565" lon="-1.65155">
        <ele>57.9</ele>
        <time>2013-09-08T09:24:00Z</time>
      </trkpt>
      <trkpt lat="47.26569" lon="-1.65169">
        <ele>57.6</ele>
        <time>2013-09-08T09:24:02Z</time>
      </trkpt>
      <trkpt lat="47.26572" lon="-1.65182">
        <ele>56.9</ele>
        <time>2013-09-08T09:24:04Z</time>
      </trkpt>
      <trkpt lat="47.26573" lon="-1.65195">
        <ele>56.7</ele>
        <time>2013-09-08T09:24:06Z</time>
      </trkpt>
      <trkpt lat="47.26577" lon="-1.65214">
        <ele>56.7</ele>
        <time>2013-09-08T09:24:09Z</time>
      </trkpt>
      <trkpt lat="47.26579" lon="-1.6523">
        <ele>56.6</ele>
        <time>2013-09-08T09:24:12Z</time>
      </trkpt>
      <trkpt lat="47.26578" lon="-1.65247">
        <ele>56.2</ele>
        <time>2013-09-08T09:24:16Z</time>
      </trkpt>
      <trkpt lat="47.26584" lon="-1.6526">
        <ele>55.9</ele>
        <time>2013-09-08T09:24:19Z</time>
      </trkpt>
      <trkpt lat="47.26594" lon="-1.65264">
        <ele>55.7</ele>
        <time>2013-09-08T09:24:22Z</time>
      </trkpt>
      <trkpt lat="47.26601" lon="-1.65272">
        <ele>55.2</ele>
        <time>2013-09-08T09:24:43Z</time>
      </trkpt>
      <trkpt lat="47.26609" lon="-1.65267">
        <ele>56.3</ele>
        <time>2013-09-08T09:25:01Z</time>
      </trkpt>
      <trkpt lat="47.26617" lon="-1.65276">
        <ele>56.3</ele>
        <time>2013-09-08T09:25:20Z</time>
      </trkpt>
      <trkpt lat="47.26627" lon="-1.65281">
        <ele>56.4</ele>
        <time>2013-09-08T09:25:43Z</time>
      </trkpt>
      <trkpt lat="47.26638" lon="-1.65284">
        <ele>55.8</ele>
        <time>2013-09-08T09:25:50Z</time>
      </trkpt>
      <trkpt lat="47.26645" lon="-1.65291">
        <ele>55.1</ele>
        <time>2013-09-08T09:25:55Z</time>
      </trkpt>
      <trkpt lat="47.26654" lon="-1.65294">
        <ele>55.1</ele>
        <time>2013-09-08T09:25:59Z</time>
      </trkpt>
      <trkpt lat="47.26664" lon="-1.65299">
        <ele>54.9</ele>
        <time>2013-09-08T09:26:03Z</time>
      </trkpt>
      <trkpt lat="47.26672" lon="-1.65305">
        <ele>54.2</ele>
        <time>2013-09-08T09:26:07Z</time>
      </trkpt>
      <trkpt lat="47.26681" lon="-1.65312">
        <ele>53.1</ele>
        <time>2013-09-08T09:26:11Z</time>
      </trkpt>
      <trkpt lat="47.2669" lon="-1.65318">
        <ele>52.1</ele>
        <time>2013-09-08T09:26:15Z</time>
      </trkpt>
      <trkpt lat="47.267" lon="-1.65321">
        <ele>51.4</ele>
        <time>2013-09-08T09:26:18Z</time>
      </trkpt>
      <trkpt lat="47.26709" lon="-1.65323">
        <ele>50.7</ele>
        <time>2013-09-08T09:26:21Z</time>
      </trkpt>
      <trkpt lat="47.26717" lon="-1.65328">
        <ele>49.6</ele>
        <time>2013-09-08T09:26:25Z</time>
      </trkpt>
      <trkpt lat="47.26728" lon="-1.65334">
        <ele>48.7</ele>
        <time>2013-09-08T09:26:29Z</time>
      </trkpt>
      <trkpt lat="47.26735" lon="-1.65342">
        <ele>47.8</ele>
        <time>2013-09-08T09:26:33Z</time>
      </trkpt>
      <trkpt lat="47.2674" lon="-1.65354">
        <ele>45.9</ele>
        <time>2013-09-08T09:26:39Z</time>
      </trkpt>
      <trkpt lat="47.26746" lon="-1.65365">
        <ele>42.4</ele>
        <time>2013-09-08T09:26:50Z</time>
      </trkpt>
      <trkpt lat="47.26752" lon="-1.65376">
        <ele>41.4</ele>
        <time>2013-09-08T09:26:53Z</time>
      </trkpt>
      <trkpt lat="47.26758" lon="-1.65385">
        <ele>40.6</ele>
        <time>2013-09-08T09:26:56Z</time>
      </trkpt>
      <trkpt lat="47.26763" lon="-1.65399">
        <ele>39.9</ele>
        <time>2013-09-08T09:26:59Z</time>
      </trkpt>
      <trkpt lat="47.26765" lon="-1.65416">
        <ele>38.7</ele>
        <time>2013-09-08T09:27:03Z</time>
      </trkpt>
      <trkpt lat="47.26766" lon="-1.6543">
        <ele>37.2</ele>
        <time>2013-09-08T09:27:07Z</time>
      </trkpt>
      <trkpt lat="47.26769" lon="-1.65444">
        <ele>35</ele>
        <time>2013-09-08T09:27:12Z</time>
      </trkpt>
      <trkpt lat="47.26772" lon="-1.65458">
        <ele>33.4</ele>
        <time>2013-09-08T09:27:16Z</time>
      </trkpt>
      <trkpt lat="47.26772" lon="-1.65471">
        <ele>31.9</ele>
        <time>2013-09-08T09:27:20Z</time>
      </trkpt>
      <trkpt lat="47.26774" lon="-1.65487">
        <ele>30.2</ele>
        <time>2013-09-08T09:27:25Z</time>
      </trkpt>
      <trkpt lat="47.2678" lon="-1.65499">
        <ele>28.5</ele>
        <time>2013-09-08T09:27:30Z</time>
      </trkpt>
      <trkpt lat="47.26788" lon="-1.65507">
        <ele>27.8</ele>
        <time>2013-09-08T09:27:33Z</time>
      </trkpt>
      <trkpt lat="47.26794" lon="-1.65523">
        <ele>27.5</ele>
        <time>2013-09-08T09:27:36Z</time>
      </trkpt>
      <trkpt lat="47.26803" lon="-1.65526">
        <ele>27.5</ele>
        <time>2013-09-08T09:27:39Z</time>
      </trkpt>
      <trkpt lat="47.26813" lon="-1.65529">
        <ele>26.9</ele>
        <time>2013-09-08T09:27:43Z</time>
      </trkpt>
      <trkpt lat="47.26825" lon="-1.6553">
        <ele>23.7</ele>
        <time>2013-09-08T09:27:46Z</time>
      </trkpt>
      <trkpt lat="47.26834" lon="-1.65536">
        <ele>23.6</ele>
        <time>2013-09-08T09:27:50Z</time>
      </trkpt>
      <trkpt lat="47.26844" lon="-1.65536">
        <ele>23.2</ele>
        <time>2013-09-08T09:28:08Z</time>
      </trkpt>
      <trkpt lat="47.26844" lon="-1.65551">
        <ele>21.3</ele>
        <time>2013-09-08T09:28:31Z</time>
      </trkpt>
      <trkpt lat="47.2685" lon="-1.65564">
        <ele>21.2</ele>
        <time>2013-09-08T09:28:35Z</time>
      </trkpt>
      <trkpt lat="47.26858" lon="-1.65576">
        <ele>21.4</ele>
        <time>2013-09-08T09:28:39Z</time>
      </trkpt>
      <trkpt lat="47.26863" lon="-1.65589">
        <ele>21.7</ele>
        <time>2013-09-08T09:28:45Z</time>
      </trkpt>
      <trkpt lat="47.26859" lon="-1.65602">
        <ele>24.2</ele>
        <time>2013-09-08T09:28:55Z</time>
      </trkpt>
      <trkpt lat="47.26859" lon="-1.65616">
        <ele>25.4</ele>
        <time>2013-09-08T09:29:02Z</time>
      </trkpt>
      <trkpt lat="47.26855" lon="-1.65628">
        <ele>26.4</ele>
        <time>2013-09-08T09:29:15Z</time>
      </trkpt>
      <trkpt lat="47.26861" lon="-1.65642">
        <ele>25.3</ele>
        <time>2013-09-08T09:29:23Z</time>
      </trkpt>
      <trkpt lat="47.26862" lon="-1.65659">
        <ele>23.8</ele>
        <time>2013-09-08T09:29:30Z</time>
      </trkpt>
      <trkpt lat="47.26859" lon="-1.65672">
        <ele>21.9</ele>
        <time>2013-09-08T09:29:37Z</time>
      </trkpt>
      <trkpt lat="47.26853" lon="-1.65686">
        <ele>20.5</ele>
        <time>2013-09-08T09:29:43Z</time>
      </trkpt>
      <trkpt lat="47.26847" lon="-1.65701">
        <ele>19.7</ele>
        <time>2013-09-08T09:29:46Z</time>
      </trkpt>
      <trkpt lat="47.26842" lon="-1.65715">
        <ele>19.9</ele>
        <time>2013-09-08T09:29:49Z</time>
      </trkpt>
      <trkpt lat="47.26836" lon="-1.65727">
        <ele>20.6</ele>
        <time>2013-09-08T09:29:53Z</time>
      </trkpt>
      <trkpt lat="47.26835" lon="-1.65741">
        <ele>21.7</ele>
        <time>2013-09-08T09:29:58Z</time>
      </trkpt>
      <trkpt lat="47.26831" lon="-1.65756">
        <ele>22.1</ele>
        <time>2013-09-08T09:30:01Z</time>
      </trkpt>
      <trkpt lat="47.26822" lon="-1.65763">
        <ele>22.9</ele>
        <time>2013-09-08T09:30:05Z</time>
      </trkpt>
      <trkpt lat="47.26813" lon="-1.65761">
        <ele>23.6</ele>
        <time>2013-09-08T09:30:08Z</time>
      </trkpt>
      <trkpt lat="47.26802" lon="-1.65765">
        <ele>24.2</ele>
        <time>2013-09-08T09:30:13Z</time>
      </trkpt>
      <trkpt lat="47.26794" lon="-1.65771">
        <ele>24.4</ele>
        <time>2013-09-08T09:30:17Z</time>
      </trkpt>
      <trkpt lat="47.26785" lon="-1.65777">
        <ele>24.6</ele>
        <time>2013-09-08T09:30:21Z</time>
      </trkpt>
      <trkpt lat="47.26779" lon="-1.65789">
        <ele>25</ele>
        <time>2013-09-08T09:30:27Z</time>
      </trkpt>
      <trkpt lat="47.26775" lon="-1.65802">
        <ele>24.6</ele>
        <time>2013-09-08T09:30:32Z</time>
      </trkpt>
      <trkpt lat="47.26768" lon="-1.65814">
        <ele>24.4</ele>
        <time>2013-09-08T09:30:37Z</time>
      </trkpt>
      <trkpt lat="47.2676" lon="-1.65825">
        <ele>24.7</ele>
        <time>2013-09-08T09:30:41Z</time>
      </trkpt>
      <trkpt lat="47.26749" lon="-1.65827">
        <ele>25</ele>
        <time>2013-09-08T09:30:45Z</time>
      </trkpt>
      <trkpt lat="47.2674" lon="-1.65831">
        <ele>25.3</ele>
        <time>2013-09-08T09:30:49Z</time>
      </trkpt>
      <trkpt lat="47.26734" lon="-1.65841">
        <ele>25.6</ele>
        <time>2013-09-08T09:30:54Z</time>
      </trkpt>
      <trkpt lat="47.26725" lon="-1.65844">
        <ele>26</ele>
        <time>2013-09-08T09:30:58Z</time>
      </trkpt>
      <trkpt lat="47.26716" lon="-1.65842">
        <ele>26.3</ele>
        <time>2013-09-08T09:31:01Z</time>
      </trkpt>
      <trkpt lat="47.26705" lon="-1.65845">
        <ele>26.6</ele>
        <time>2013-09-08T09:31:04Z</time>
      </trkpt>
      <trkpt lat="47.26696" lon="-1.65855">
        <ele>26.6</ele>
        <time>2013-09-08T09:31:08Z</time>
      </trkpt>
      <trkpt lat="47.26686" lon="-1.65856">
        <ele>26.4</ele>
        <time>2013-09-08T09:31:13Z</time>
      </trkpt>
      <trkpt lat="47.26676" lon="-1.65859">
        <ele>26.3</ele>
        <time>2013-09-08T09:31:18Z</time>
      </trkpt>
      <trkpt lat="47.26667" lon="-1.65858">
        <ele>26.1</ele>
        <time>2013-09-08T09:31:20Z</time>
      </trkpt>
      <trkpt lat="47.26657" lon="-1.65863">
        <ele>26.2</ele>
        <time>2013-09-08T09:31:26Z</time>
      </trkpt>
      <trkpt lat="47.26648" lon="-1.65866">
        <ele>26.2</ele>
        <time>2013-09-08T09:31:29Z</time>
      </trkpt>
      <trkpt lat="47.26637" lon="-1.65865">
        <ele>26.1</ele>
        <time>2013-09-08T09:31:34Z</time>
      </trkpt>
      <trkpt lat="47.2663" lon="-1.65854">
        <ele>26.1</ele>
        <time>2013-09-08T09:31:38Z</time>
      </trkpt>
      <trkpt lat="47.26622" lon="-1.65848">
        <ele>26.1</ele>
        <time>2013-09-08T09:31:41Z</time>
      </trkpt>
      <trkpt lat="47.26611" lon="-1.65847">
        <ele>26.5</ele>
        <time>2013-09-08T09:31:46Z</time>
      </trkpt>
      <trkpt lat="47.26604" lon="-1.65855">
        <ele>27.5</ele>
        <time>2013-09-08T09:31:54Z</time>
      </trkpt>
      <trkpt lat="47.26594" lon="-1.65856">
        <ele>27.9</ele>
        <time>2013-09-08T09:31:59Z</time>
      </trkpt>
      <trkpt lat="47.26584" lon="-1.65858">
        <ele>28</ele>
        <time>2013-09-08T09:32:03Z</time>
      </trkpt>
      <trkpt lat="47.26577" lon="-1.65866">
        <ele>28.6</ele>
        <time>2013-09-08T09:32:09Z</time>
      </trkpt>
      <trkpt lat="47.26573" lon="-1.65881">
        <ele>28</ele>
        <time>2013-09-08T09:32:14Z</time>
      </trkpt>
      <trkpt lat="47.26567" lon="-1.65893">
        <ele>26.7</ele>
        <time>2013-09-08T09:32:22Z</time>
      </trkpt>
      <trkpt lat="47.26559" lon="-1.65904">
        <ele>25.8</ele>
        <time>2013-09-08T09:32:27Z</time>
      </trkpt>
      <trkpt lat="47.26549" lon="-1.65907">
        <ele>25.5</ele>
        <time>2013-09-08T09:32:29Z</time>
      </trkpt>
      <trkpt lat="47.26538" lon="-1.65906">
        <ele>25.2</ele>
        <time>2013-09-08T09:32:32Z</time>
      </trkpt>
      <trkpt lat="47.26526" lon="-1.65906">
        <ele>25</ele>
        <time>2013-09-08T09:32:35Z</time>
      </trkpt>
      <trkpt lat="47.26515" lon="-1.65903">
        <ele>25.1</ele>
        <time>2013-09-08T09:32:42Z</time>
      </trkpt>
      <trkpt lat="47.26506" lon="-1.65907">
        <ele>26.4</ele>
        <time>2013-09-08T09:32:52Z</time>
      </trkpt>
      <trkpt lat="47.26514" lon="-1.65899">
        <ele>27.1</ele>
        <time>2013-09-08T09:33:33Z</time>
      </trkpt>
      <trkpt lat="47.26505" lon="-1.65903">
        <ele>29.3</ele>
        <time>2013-09-08T09:34:48Z</time>
      </trkpt>
      <trkpt lat="47.26507" lon="-1.65917">
        <ele>28.7</ele>
        <time>2013-09-08T09:34:55Z</time>
      </trkpt>
      <trkpt lat="47.26513" lon="-1.65929">
        <ele>28.1</ele>
        <time>2013-09-08T09:34:59Z</time>
      </trkpt>
      <trkpt lat="47.26518" lon="-1.65941">
        <ele>27.9</ele>
        <time>2013-09-08T09:35:02Z</time>
      </trkpt>
      <trkpt lat="47.26521" lon="-1.65956">
        <ele>27.5</ele>
        <time>2013-09-08T09:35:07Z</time>
      </trkpt>
      <trkpt lat="47.26521" lon="-1.6597">
        <ele>27.4</ele>
        <time>2013-09-08T09:35:11Z</time>
      </trkpt>
      <trkpt lat="47.26522" lon="-1.65984">
        <ele>27.6</ele>
        <time>2013-09-08T09:35:14Z</time>
      </trkpt>
      <trkpt lat="47.26524" lon="-1.65999">
        <ele>28.2</ele>
        <time>2013-09-08T09:35:19Z</time>
      </trkpt>
      <trkpt lat="47.2653" lon="-1.66012">
        <ele>28.3</ele>
        <time>2013-09-08T09:35:23Z</time>
      </trkpt>
      <trkpt lat="47.26536" lon="-1.66024">
        <ele>28.1</ele>
        <time>2013-09-08T09:35:26Z</time>
      </trkpt>
      <trkpt lat="47.26549" lon="-1.66033">
        <ele>28</ele>
        <time>2013-09-08T09:35:29Z</time>
      </trkpt>
      <trkpt lat="47.26558" lon="-1.66036">
        <ele>28.1</ele>
        <time>2013-09-08T09:35:31Z</time>
      </trkpt>
      <trkpt lat="47.2657" lon="-1.66038">
        <ele>28.1</ele>
        <time>2013-09-08T09:35:34Z</time>
      </trkpt>
      <trkpt lat="47.26579" lon="-1.66043">
        <ele>28.3</ele>
        <time>2013-09-08T09:35:38Z</time>
      </trkpt>
      <trkpt lat="47.26589" lon="-1.66049">
        <ele>28.3</ele>
        <time>2013-09-08T09:35:41Z</time>
      </trkpt>
      <trkpt lat="47.26599" lon="-1.66054">
        <ele>28.1</ele>
        <time>2013-09-08T09:35:45Z</time>
      </trkpt>
      <trkpt lat="47.26608" lon="-1.66065">
        <ele>28.4</ele>
        <time>2013-09-08T09:35:50Z</time>
      </trkpt>
      <trkpt lat="47.26617" lon="-1.66074">
        <ele>28.8</ele>
        <time>2013-09-08T09:35:53Z</time>
      </trkpt>
      <trkpt lat="47.26623" lon="-1.66085">
        <ele>29.5</ele>
        <time>2013-09-08T09:35:56Z</time>
      </trkpt>
      <trkpt lat="47.26629" lon="-1.66097">
        <ele>30.2</ele>
        <time>2013-09-08T09:35:59Z</time>
      </trkpt>
      <trkpt lat="47.26634" lon="-1.6611">
        <ele>31</ele>
        <time>2013-09-08T09:36:02Z</time>
      </trkpt>
      <trkpt lat="47.26637" lon="-1.66125">
        <ele>31.3</ele>
        <time>2013-09-08T09:36:05Z</time>
      </trkpt>
      <trkpt lat="47.26639" lon="-1.6614">
        <ele>30.8</ele>
        <time>2013-09-08T09:36:11Z</time>
      </trkpt>
      <trkpt lat="47.26633" lon="-1.66152">
        <ele>30.3</ele>
        <time>2013-09-08T09:36:16Z</time>
      </trkpt>
      <trkpt lat="47.26625" lon="-1.66165">
        <ele>30</ele>
        <time>2013-09-08T09:36:19Z</time>
      </trkpt>
      <trkpt lat="47.26617" lon="-1.66172">
        <ele>29.9</ele>
        <time>2013-09-08T09:36:22Z</time>
      </trkpt>
      <trkpt lat="47.2661" lon="-1.6618">
        <ele>29.8</ele>
        <time>2013-09-08T09:36:26Z</time>
      </trkpt>
      <trkpt lat="47.26614" lon="-1.66195">
        <ele>29.7</ele>
        <time>2013-09-08T09:36:30Z</time>
      </trkpt>
      <trkpt lat="47.26612" lon="-1.6621">
        <ele>29.6</ele>
        <time>2013-09-08T09:36:34Z</time>
      </trkpt>
      <trkpt lat="47.26607" lon="-1.66224">
        <ele>29.5</ele>
        <time>2013-09-08T09:36:38Z</time>
      </trkpt>
      <trkpt lat="47.26602" lon="-1.66235">
        <ele>29.5</ele>
        <time>2013-09-08T09:36:41Z</time>
      </trkpt>
      <trkpt lat="47.26601" lon="-1.66252">
        <ele>29.8</ele>
        <time>2013-09-08T09:36:45Z</time>
      </trkpt>
      <trkpt lat="47.26604" lon="-1.66267">
        <ele>29.9</ele>
        <time>2013-09-08T09:36:49Z</time>
      </trkpt>
      <trkpt lat="47.26609" lon="-1.6628">
        <ele>30.2</ele>
        <time>2013-09-08T09:36:53Z</time>
      </trkpt>
      <trkpt lat="47.26614" lon="-1.66294">
        <ele>30.1</ele>
        <time>2013-09-08T09:36:57Z</time>
      </trkpt>
      <trkpt lat="47.26617" lon="-1.66307">
        <ele>30</ele>
        <time>2013-09-08T09:37:00Z</time>
      </trkpt>
      <trkpt lat="47.26621" lon="-1.66323">
        <ele>29.8</ele>
        <time>2013-09-08T09:37:04Z</time>
      </trkpt>
      <trkpt lat="47.26625" lon="-1.66338">
        <ele>29.6</ele>
        <time>2013-09-08T09:37:07Z</time>
      </trkpt>
      <trkpt lat="47.26629" lon="-1.66353">
        <ele>29.9</ele>
        <time>2013-09-08T09:37:10Z</time>
      </trkpt>
      <trkpt lat="47.26632" lon="-1.66367">
        <ele>30.3</ele>
        <time>2013-09-08T09:37:13Z</time>
      </trkpt>
      <trkpt lat="47.26634" lon="-1.6638">
        <ele>30.5</ele>
        <time>2013-09-08T09:37:16Z</time>
      </trkpt>
      <trkpt lat="47.26637" lon="-1.66393">
        <ele>30.9</ele>
        <time>2013-09-08T09:37:20Z</time>
      </trkpt>
      <trkpt lat="47.26641" lon="-1.66405">
        <ele>31.5</ele>
        <time>2013-09-08T09:37:24Z</time>
      </trkpt>
      <trkpt lat="47.26648" lon="-1.66418">
        <ele>32</ele>
        <time>2013-09-08T09:37:27Z</time>
      </trkpt>
      <trkpt lat="47.26652" lon="-1.6643">
        <ele>32.5</ele>
        <time>2013-09-08T09:37:30Z</time>
      </trkpt>
      <trkpt lat="47.26656" lon="-1.66444">
        <ele>32.6</ele>
        <time>2013-09-08T09:37:34Z</time>
      </trkpt>
      <trkpt lat="47.26659" lon="-1.6646">
        <ele>32.5</ele>
        <time>2013-09-08T09:37:38Z</time>
      </trkpt>
      <trkpt lat="47.26662" lon="-1.66477">
        <ele>32.4</ele>
        <time>2013-09-08T09:37:42Z</time>
      </trkpt>
      <trkpt lat="47.26663" lon="-1.66492">
        <ele>32.7</ele>
        <time>2013-09-08T09:37:46Z</time>
      </trkpt>
      <trkpt lat="47.26665" lon="-1.66509">
        <ele>32.5</ele>
        <time>2013-09-08T09:37:50Z</time>
      </trkpt>
      <trkpt lat="47.26666" lon="-1.66526">
        <ele>32.4</ele>
        <time>2013-09-08T09:37:54Z</time>
      </trkpt>
      <trkpt lat="47.2667" lon="-1.66539">
        <ele>32.7</ele>
        <time>2013-09-08T09:37:57Z</time>
      </trkpt>
      <trkpt lat="47.26676" lon="-1.66549">
        <ele>32.9</ele>
        <time>2013-09-08T09:38:00Z</time>
      </trkpt>
      <trkpt lat="47.26683" lon="-1.66558">
        <ele>33.2</ele>
        <time>2013-09-08T09:38:04Z</time>
      </trkpt>
      <trkpt lat="47.2669" lon="-1.66569">
        <ele>33.9</ele>
        <time>2013-09-08T09:38:09Z</time>
      </trkpt>
      <trkpt lat="47.26696" lon="-1.66581">
        <ele>34.6</ele>
        <time>2013-09-08T09:38:12Z</time>
      </trkpt>
      <trkpt lat="47.267" lon="-1.66593">
        <ele>35.3</ele>
        <time>2013-09-08T09:38:16Z</time>
      </trkpt>
      <trkpt lat="47.26699" lon="-1.66607">
        <ele>35.8</ele>
        <time>2013-09-08T09:38:24Z</time>
      </trkpt>
      <trkpt lat="47.2671" lon="-1.66605">
        <ele>35.4</ele>
        <time>2013-09-08T09:38:52Z</time>
      </trkpt>
      <trkpt lat="47.26719" lon="-1.66611">
        <ele>34.6</ele>
        <time>2013-09-08T09:38:55Z</time>
      </trkpt>
      <trkpt lat="47.2673" lon="-1.6661">
        <ele>33.9</ele>
        <time>2013-09-08T09:38:58Z</time>
      </trkpt>
      <trkpt lat="47.26741" lon="-1.66605">
        <ele>33.6</ele>
        <time>2013-09-08T09:39:01Z</time>
      </trkpt>
      <trkpt lat="47.26751" lon="-1.66608">
        <ele>32.2</ele>
        <time>2013-09-08T09:39:03Z</time>
      </trkpt>
      <trkpt lat="47.26761" lon="-1.66618">
        <ele>31.7</ele>
        <time>2013-09-08T09:39:06Z</time>
      </trkpt>
      <trkpt lat="47.2677" lon="-1.66627">
        <ele>31.4</ele>
        <time>2013-09-08T09:39:08Z</time>
      </trkpt>
      <trkpt lat="47.26777" lon="-1.66637">
        <ele>31.1</ele>
        <time>2013-09-08T09:39:10Z</time>
      </trkpt>
      <trkpt lat="47.26784" lon="-1.66648">
        <ele>30.8</ele>
        <time>2013-09-08T09:39:14Z</time>
      </trkpt>
      <trkpt lat="47.26788" lon="-1.66662">
        <ele>31.3</ele>
        <time>2013-09-08T09:39:18Z</time>
      </trkpt>
      <trkpt lat="47.26791" lon="-1.66678">
        <ele>32.2</ele>
        <time>2013-09-08T09:39:22Z</time>
      </trkpt>
      <trkpt lat="47.26795" lon="-1.66693">
        <ele>32.7</ele>
        <time>2013-09-08T09:39:26Z</time>
      </trkpt>
      <trkpt lat="47.26802" lon="-1.6671">
        <ele>33.5</ele>
        <time>2013-09-08T09:39:30Z</time>
      </trkpt>
      <trkpt lat="47.26809" lon="-1.6672">
        <ele>33.8</ele>
        <time>2013-09-08T09:39:32Z</time>
      </trkpt>
      <trkpt lat="47.26818" lon="-1.66729">
        <ele>34.1</ele>
        <time>2013-09-08T09:39:34Z</time>
      </trkpt>
      <trkpt lat="47.26829" lon="-1.66738">
        <ele>34.6</ele>
        <time>2013-09-08T09:39:37Z</time>
      </trkpt>
      <trkpt lat="47.26837" lon="-1.66747">
        <ele>34.7</ele>
        <time>2013-09-08T09:39:40Z</time>
      </trkpt>
      <trkpt lat="47.26847" lon="-1.66755">
        <ele>34.9</ele>
        <time>2013-09-08T09:39:43Z</time>
      </trkpt>
      <trkpt lat="47.26856" lon="-1.66763">
        <ele>34.5</ele>
        <time>2013-09-08T09:39:46Z</time>
      </trkpt>
      <trkpt lat="47.26868" lon="-1.66773">
        <ele>33.8</ele>
        <time>2013-09-08T09:39:49Z</time>
      </trkpt>
      <trkpt lat="47.26876" lon="-1.6678">
        <ele>33.3</ele>
        <time>2013-09-08T09:39:51Z</time>
      </trkpt>
      <trkpt lat="47.26885" lon="-1.66786">
        <ele>30.2</ele>
        <time>2013-09-08T09:39:53Z</time>
      </trkpt>
      <trkpt lat="47.26897" lon="-1.66793">
        <ele>29.3</ele>
        <time>2013-09-08T09:39:56Z</time>
      </trkpt>
      <trkpt lat="47.26906" lon="-1.66797">
        <ele>26.5</ele>
        <time>2013-09-08T09:39:58Z</time>
      </trkpt>
      <trkpt lat="47.26915" lon="-1.66808">
        <ele>25.5</ele>
        <time>2013-09-08T09:40:01Z</time>
      </trkpt>
      <trkpt lat="47.26922" lon="-1.66823">
        <ele>24.8</ele>
        <time>2013-09-08T09:40:04Z</time>
      </trkpt>
      <trkpt lat="47.26924" lon="-1.66844">
        <ele>24.8</ele>
        <time>2013-09-08T09:40:07Z</time>
      </trkpt>
      <trkpt lat="47.26924" lon="-1.66858">
        <ele>25.3</ele>
        <time>2013-09-08T09:40:09Z</time>
      </trkpt>
      <trkpt lat="47.26926" lon="-1.66873">
        <ele>26.1</ele>
        <time>2013-09-08T09:40:11Z</time>
      </trkpt>
      <trkpt lat="47.26928" lon="-1.66889">
        <ele>27.5</ele>
        <time>2013-09-08T09:40:14Z</time>
      </trkpt>
      <trkpt lat="47.26927" lon="-1.66906">
        <ele>28.9</ele>
        <time>2013-09-08T09:40:18Z</time>
      </trkpt>
      <trkpt lat="47.26926" lon="-1.66919">
        <ele>29.9</ele>
        <time>2013-09-08T09:40:21Z</time>
      </trkpt>
      <trkpt lat="47.26925" lon="-1.66933">
        <ele>30.5</ele>
        <time>2013-09-08T09:40:23Z</time>
      </trkpt>
      <trkpt lat="47.26922" lon="-1.66952">
        <ele>30.9</ele>
        <time>2013-09-08T09:40:26Z</time>
      </trkpt>
      <trkpt lat="47.26917" lon="-1.66966">
        <ele>31.1</ele>
        <time>2013-09-08T09:40:28Z</time>
      </trkpt>
      <trkpt lat="47.26914" lon="-1.66979">
        <ele>31.2</ele>
        <time>2013-09-08T09:40:30Z</time>
      </trkpt>
      <trkpt lat="47.26911" lon="-1.66994">
        <ele>31.9</ele>
        <time>2013-09-08T09:40:32Z</time>
      </trkpt>
      <trkpt lat="47.26908" lon="-1.67009">
        <ele>31.6</ele>
        <time>2013-09-08T09:40:34Z</time>
      </trkpt>
      <trkpt lat="47.26908" lon="-1.67023">
        <ele>31</ele>
        <time>2013-09-08T09:40:36Z</time>
      </trkpt>
      <trkpt lat="47.26906" lon="-1.67037">
        <ele>31</ele>
        <time>2013-09-08T09:40:39Z</time>
      </trkpt>
      <trkpt lat="47.26903" lon="-1.67053">
        <ele>31</ele>
        <time>2013-09-08T09:40:42Z</time>
      </trkpt>
      <trkpt lat="47.269" lon="-1.67066">
        <ele>30.9</ele>
        <time>2013-09-08T09:40:44Z</time>
      </trkpt>
      <trkpt lat="47.26895" lon="-1.67082">
        <ele>30.9</ele>
        <time>2013-09-08T09:40:47Z</time>
      </trkpt>
      <trkpt lat="47.26891" lon="-1.67098">
        <ele>30.8</ele>
        <time>2013-09-08T09:40:50Z</time>
      </trkpt>
      <trkpt lat="47.26888" lon="-1.67113">
        <ele>30.9</ele>
        <time>2013-09-08T09:40:54Z</time>
      </trkpt>
      <trkpt lat="47.26881" lon="-1.67123">
        <ele>30.9</ele>
        <time>2013-09-08T09:41:01Z</time>
      </trkpt>
      <trkpt lat="47.26872" lon="-1.67127">
        <ele>31.3</ele>
        <time>2013-09-08T09:41:06Z</time>
      </trkpt>
      <trkpt lat="47.26883" lon="-1.6713">
        <ele>35.8</ele>
        <time>2013-09-08T09:42:10Z</time>
      </trkpt>
      <trkpt lat="47.26892" lon="-1.67124">
        <ele>35.6</ele>
        <time>2013-09-08T09:42:14Z</time>
      </trkpt>
      <trkpt lat="47.26898" lon="-1.67111">
        <ele>35.2</ele>
        <time>2013-09-08T09:42:18Z</time>
      </trkpt>
      <trkpt lat="47.26902" lon="-1.67094">
        <ele>34.8</ele>
        <time>2013-09-08T09:42:22Z</time>
      </trkpt>
      <trkpt lat="47.26904" lon="-1.67076">
        <ele>34.2</ele>
        <time>2013-09-08T09:42:25Z</time>
      </trkpt>
      <trkpt lat="47.26905" lon="-1.67063">
        <ele>33.9</ele>
        <time>2013-09-08T09:42:27Z</time>
      </trkpt>
      <trkpt lat="47.26905" lon="-1.67044">
        <ele>33.5</ele>
        <time>2013-09-08T09:42:30Z</time>
      </trkpt>
      <trkpt lat="47.26905" lon="-1.67031">
        <ele>33.3</ele>
        <time>2013-09-08T09:42:32Z</time>
      </trkpt>
      <trkpt lat="47.26905" lon="-1.67017">
        <ele>30.2</ele>
        <time>2013-09-08T09:42:34Z</time>
      </trkpt>
      <trkpt lat="47.26908" lon="-1.66999">
        <ele>29.7</ele>
        <time>2013-09-08T09:42:37Z</time>
      </trkpt>
      <trkpt lat="47.26913" lon="-1.66981">
        <ele>29.1</ele>
        <time>2013-09-08T09:42:40Z</time>
      </trkpt>
      <trkpt lat="47.26918" lon="-1.66967">
        <ele>29</ele>
        <time>2013-09-08T09:42:43Z</time>
      </trkpt>
      <trkpt lat="47.26923" lon="-1.6695">
        <ele>28.9</ele>
        <time>2013-09-08T09:42:46Z</time>
      </trkpt>
      <trkpt lat="47.26928" lon="-1.66934">
        <ele>29.1</ele>
        <time>2013-09-08T09:42:49Z</time>
      </trkpt>
      <trkpt lat="47.26929" lon="-1.66917">
        <ele>29.3</ele>
        <time>2013-09-08T09:42:52Z</time>
      </trkpt>
      <trkpt lat="47.26929" lon="-1.66902">
        <ele>29.5</ele>
        <time>2013-09-08T09:42:55Z</time>
      </trkpt>
      <trkpt lat="47.26927" lon="-1.66887">
        <ele>30</ele>
        <time>2013-09-08T09:42:58Z</time>
      </trkpt>
      <trkpt lat="47.26924" lon="-1.66868">
        <ele>30.8</ele>
        <time>2013-09-08T09:43:01Z</time>
      </trkpt>
      <trkpt lat="47.26919" lon="-1.66849">
        <ele>31.8</ele>
        <time>2013-09-08T09:43:04Z</time>
      </trkpt>
      <trkpt lat="47.26913" lon="-1.66837">
        <ele>35.5</ele>
        <time>2013-09-08T09:43:06Z</time>
      </trkpt>
      <trkpt lat="47.26905" lon="-1.66824">
        <ele>40.7</ele>
        <time>2013-09-08T09:43:08Z</time>
      </trkpt>
      <trkpt lat="47.26897" lon="-1.66812">
        <ele>43</ele>
        <time>2013-09-08T09:43:10Z</time>
      </trkpt>
      <trkpt lat="47.2689" lon="-1.66803">
        <ele>43.3</ele>
        <time>2013-09-08T09:43:12Z</time>
      </trkpt>
      <trkpt lat="47.26882" lon="-1.66795">
        <ele>44</ele>
        <time>2013-09-08T09:43:15Z</time>
      </trkpt>
      <trkpt lat="47.26873" lon="-1.66788">
        <ele>44.4</ele>
        <time>2013-09-08T09:43:18Z</time>
      </trkpt>
      <trkpt lat="47.26865" lon="-1.66781">
        <ele>44.6</ele>
        <time>2013-09-08T09:43:20Z</time>
      </trkpt>
      <trkpt lat="47.26855" lon="-1.66776">
        <ele>46.2</ele>
        <time>2013-09-08T09:43:23Z</time>
      </trkpt>
      <trkpt lat="47.26847" lon="-1.66766">
        <ele>47.9</ele>
        <time>2013-09-08T09:43:25Z</time>
      </trkpt>
      <trkpt lat="47.26841" lon="-1.66756">
        <ele>47.3</ele>
        <time>2013-09-08T09:43:27Z</time>
      </trkpt>
      <trkpt lat="47.26832" lon="-1.66749">
        <ele>47</ele>
        <time>2013-09-08T09:43:32Z</time>
      </trkpt>
      <trkpt lat="47.26825" lon="-1.66735">
        <ele>46.8</ele>
        <time>2013-09-08T09:43:34Z</time>
      </trkpt>
      <trkpt lat="47.26818" lon="-1.66721">
        <ele>46.8</ele>
        <time>2013-09-08T09:43:36Z</time>
      </trkpt>
      <trkpt lat="47.26811" lon="-1.66708">
        <ele>46.9</ele>
        <time>2013-09-08T09:43:38Z</time>
      </trkpt>
      <trkpt lat="47.26803" lon="-1.66692">
        <ele>47.1</ele>
        <time>2013-09-08T09:43:40Z</time>
      </trkpt>
      <trkpt lat="47.26797" lon="-1.66677">
        <ele>47.3</ele>
        <time>2013-09-08T09:43:44Z</time>
      </trkpt>
      <trkpt lat="47.26792" lon="-1.66662">
        <ele>47.2</ele>
        <time>2013-09-08T09:43:49Z</time>
      </trkpt>
      <trkpt lat="47.26785" lon="-1.66644">
        <ele>47.1</ele>
        <time>2013-09-08T09:43:51Z</time>
      </trkpt>
      <trkpt lat="47.26776" lon="-1.66626">
        <ele>46.9</ele>
        <time>2013-09-08T09:43:53Z</time>
      </trkpt>
      <trkpt lat="47.26769" lon="-1.66613">
        <ele>46.6</ele>
        <time>2013-09-08T09:43:55Z</time>
      </trkpt>
      <trkpt lat="47.26763" lon="-1.666">
        <ele>46</ele>
        <time>2013-09-08T09:43:58Z</time>
      </trkpt>
      <trkpt lat="47.26764" lon="-1.66585">
        <ele>46.1</ele>
        <time>2013-09-08T09:44:26Z</time>
      </trkpt>
      <trkpt lat="47.26765" lon="-1.66571">
        <ele>44.7</ele>
        <time>2013-09-08T09:44:32Z</time>
      </trkpt>
      <trkpt lat="47.26768" lon="-1.66559">
        <ele>43.5</ele>
        <time>2013-09-08T09:44:49Z</time>
      </trkpt>
      <trkpt lat="47.26766" lon="-1.66544">
        <ele>43.2</ele>
        <time>2013-09-08T09:44:55Z</time>
      </trkpt>
      <trkpt lat="47.26764" lon="-1.6653">
        <ele>43.1</ele>
        <time>2013-09-08T09:45:00Z</time>
      </trkpt>
      <trkpt lat="47.26762" lon="-1.66516">
        <ele>43.3</ele>
        <time>2013-09-08T09:45:07Z</time>
      </trkpt>
      <trkpt lat="47.2676" lon="-1.66501">
        <ele>43.5</ele>
        <time>2013-09-08T09:45:13Z</time>
      </trkpt>
      <trkpt lat="47.26759" lon="-1.66487">
        <ele>43.7</ele>
        <time>2013-09-08T09:45:21Z</time>
      </trkpt>
      <trkpt lat="47.26759" lon="-1.66471">
        <ele>43.5</ele>
        <time>2013-09-08T09:45:26Z</time>
      </trkpt>
      <trkpt lat="47.26756" lon="-1.66459">
        <ele>43.8</ele>
        <time>2013-09-08T09:45:33Z</time>
      </trkpt>
      <trkpt lat="47.26753" lon="-1.66445">
        <ele>43.2</ele>
        <time>2013-09-08T09:45:42Z</time>
      </trkpt>
      <trkpt lat="47.26759" lon="-1.66433">
        <ele>40.6</ele>
        <time>2013-09-08T09:45:53Z</time>
      </trkpt>
      <trkpt lat="47.26765" lon="-1.66424">
        <ele>39.6</ele>
        <time>2013-09-08T09:46:00Z</time>
      </trkpt>
      <trkpt lat="47.26768" lon="-1.66411">
        <ele>38.7</ele>
        <time>2013-09-08T09:46:09Z</time>
      </trkpt>
      <trkpt lat="47.26772" lon="-1.66399">
        <ele>39.2</ele>
        <time>2013-09-08T09:46:16Z</time>
      </trkpt>
      <trkpt lat="47.26782" lon="-1.66394">
        <ele>40.9</ele>
        <time>2013-09-08T09:46:32Z</time>
      </trkpt>
      <trkpt lat="47.2679" lon="-1.66385">
        <ele>41.9</ele>
        <time>2013-09-08T09:46:39Z</time>
      </trkpt>
      <trkpt lat="47.26796" lon="-1.66376">
        <ele>42.8</ele>
        <time>2013-09-08T09:46:45Z</time>
      </trkpt>
      <trkpt lat="47.26805" lon="-1.66368">
        <ele>42.7</ele>
        <time>2013-09-08T09:46:52Z</time>
      </trkpt>
      <trkpt lat="47.26815" lon="-1.6637">
        <ele>43.8</ele>
        <time>2013-09-08T09:47:08Z</time>
      </trkpt>
      <trkpt lat="47.26816" lon="-1.66356">
        <ele>44.9</ele>
        <time>2013-09-08T09:47:15Z</time>
      </trkpt>
      <trkpt lat="47.26817" lon="-1.66343">
        <ele>47</ele>
        <time>2013-09-08T09:48:30Z</time>
      </trkpt>
      <trkpt lat="47.26808" lon="-1.66347">
        <ele>48.3</ele>
        <time>2013-09-08T09:48:58Z</time>
      </trkpt>
      <trkpt lat="47.268" lon="-1.66341">
        <ele>48.7</ele>
        <time>2013-09-08T09:49:03Z</time>
      </trkpt>
      <trkpt lat="47.2679" lon="-1.66337">
        <ele>49.1</ele>
        <time>2013-09-08T09:49:06Z</time>
      </trkpt>
      <trkpt lat="47.2678" lon="-1.66334">
        <ele>49.3</ele>
        <time>2013-09-08T09:49:09Z</time>
      </trkpt>
      <trkpt lat="47.2677" lon="-1.66328">
        <ele>49.2</ele>
        <time>2013-09-08T09:49:12Z</time>
      </trkpt>
      <trkpt lat="47.26759" lon="-1.66322">
        <ele>49.1</ele>
        <time>2013-09-08T09:49:15Z</time>
      </trkpt>
      <trkpt lat="47.26748" lon="-1.66317">
        <ele>49</ele>
        <time>2013-09-08T09:49:19Z</time>
      </trkpt>
      <trkpt lat="47.26741" lon="-1.66306">
        <ele>48.8</ele>
        <time>2013-09-08T09:49:22Z</time>
      </trkpt>
      <trkpt lat="47.26734" lon="-1.66293">
        <ele>48.5</ele>
        <time>2013-09-08T09:49:26Z</time>
      </trkpt>
      <trkpt lat="47.26726" lon="-1.66287">
        <ele>48.3</ele>
        <time>2013-09-08T09:49:31Z</time>
      </trkpt>
      <trkpt lat="47.26716" lon="-1.66284">
        <ele>48.1</ele>
        <time>2013-09-08T09:49:36Z</time>
      </trkpt>
      <trkpt lat="47.26707" lon="-1.66284">
        <ele>47.1</ele>
        <time>2013-09-08T09:49:42Z</time>
      </trkpt>
      <trkpt lat="47.26696" lon="-1.66273">
        <ele>46.1</ele>
        <time>2013-09-08T09:49:47Z</time>
      </trkpt>
      <trkpt lat="47.26688" lon="-1.66258">
        <ele>45.4</ele>
        <time>2013-09-08T09:49:50Z</time>
      </trkpt>
      <trkpt lat="47.26682" lon="-1.66242">
        <ele>44.7</ele>
        <time>2013-09-08T09:49:53Z</time>
      </trkpt>
      <trkpt lat="47.26679" lon="-1.66228">
        <ele>43.8</ele>
        <time>2013-09-08T09:49:56Z</time>
      </trkpt>
      <trkpt lat="47.26676" lon="-1.66214">
        <ele>42.7</ele>
        <time>2013-09-08T09:50:00Z</time>
      </trkpt>
      <trkpt lat="47.26673" lon="-1.662">
        <ele>41.2</ele>
        <time>2013-09-08T09:50:05Z</time>
      </trkpt>
      <trkpt lat="47.26667" lon="-1.6619">
        <ele>39.7</ele>
        <time>2013-09-08T09:50:12Z</time>
      </trkpt>
      <trkpt lat="47.26659" lon="-1.66179">
        <ele>39.2</ele>
        <time>2013-09-08T09:50:15Z</time>
      </trkpt>
      <trkpt lat="47.26654" lon="-1.6616">
        <ele>39</ele>
        <time>2013-09-08T09:50:18Z</time>
      </trkpt>
      <trkpt lat="47.26653" lon="-1.66146">
        <ele>38.9</ele>
        <time>2013-09-08T09:50:20Z</time>
      </trkpt>
      <trkpt lat="47.26649" lon="-1.66133">
        <ele>38.6</ele>
        <time>2013-09-08T09:50:23Z</time>
      </trkpt>
      <trkpt lat="47.26645" lon="-1.66117">
        <ele>38.2</ele>
        <time>2013-09-08T09:50:27Z</time>
      </trkpt>
      <trkpt lat="47.26638" lon="-1.661">
        <ele>36.8</ele>
        <time>2013-09-08T09:50:30Z</time>
      </trkpt>
      <trkpt lat="47.26627" lon="-1.66086">
        <ele>36.8</ele>
        <time>2013-09-08T09:50:33Z</time>
      </trkpt>
      <trkpt lat="47.26614" lon="-1.66079">
        <ele>37</ele>
        <time>2013-09-08T09:50:36Z</time>
      </trkpt>
      <trkpt lat="47.26603" lon="-1.66073">
        <ele>36.9</ele>
        <time>2013-09-08T09:50:38Z</time>
      </trkpt>
      <trkpt lat="47.26592" lon="-1.66066">
        <ele>36.8</ele>
        <time>2013-09-08T09:50:40Z</time>
      </trkpt>
      <trkpt lat="47.26582" lon="-1.66064">
        <ele>36.6</ele>
        <time>2013-09-08T09:50:42Z</time>
      </trkpt>
      <trkpt lat="47.2657" lon="-1.66061">
        <ele>33.9</ele>
        <time>2013-09-08T09:50:44Z</time>
      </trkpt>
      <trkpt lat="47.26556" lon="-1.66053">
        <ele>32.3</ele>
        <time>2013-09-08T09:50:46Z</time>
      </trkpt>
      <trkpt lat="47.26546" lon="-1.66044">
        <ele>32.1</ele>
        <time>2013-09-08T09:50:48Z</time>
      </trkpt>
      <trkpt lat="47.26538" lon="-1.66028">
        <ele>31.9</ele>
        <time>2013-09-08T09:50:51Z</time>
      </trkpt>
      <trkpt lat="47.26536" lon="-1.6601">
        <ele>31</ele>
        <time>2013-09-08T09:50:53Z</time>
      </trkpt>
      <trkpt lat="47.26532" lon="-1.65989">
        <ele>27.6</ele>
        <time>2013-09-08T09:50:55Z</time>
      </trkpt>
      <trkpt lat="47.26529" lon="-1.65975">
        <ele>27.7</ele>
        <time>2013-09-08T09:50:57Z</time>
      </trkpt>
      <trkpt lat="47.26523" lon="-1.65959">
        <ele>27.9</ele>
        <time>2013-09-08T09:50:59Z</time>
      </trkpt>
      <trkpt lat="47.26516" lon="-1.65947">
        <ele>28.1</ele>
        <time>2013-09-08T09:51:01Z</time>
      </trkpt>
      <trkpt lat="47.26514" lon="-1.65929">
        <ele>28.6</ele>
        <time>2013-09-08T09:51:05Z</time>
      </trkpt>
      <trkpt lat="47.26516" lon="-1.65912">
        <ele>28.6</ele>
        <time>2013-09-08T09:51:08Z</time>
      </trkpt>
      <trkpt lat="47.26516" lon="-1.65898">
        <ele>28.3</ele>
        <time>2013-09-08T09:51:12Z</time>
      </trkpt>
      <trkpt lat="47.26516" lon="-1.65885">
        <ele>28</ele>
        <time>2013-09-08T09:51:17Z</time>
      </trkpt>
      <trkpt lat="47.26512" lon="-1.65868">
        <ele>27.8</ele>
        <time>2013-09-08T09:51:22Z</time>
      </trkpt>
      <trkpt lat="47.26513" lon="-1.65854">
        <ele>27.2</ele>
        <time>2013-09-08T09:51:32Z</time>
      </trkpt>
      <trkpt lat="47.26513" lon="-1.65841">
        <ele>28.1</ele>
        <time>2013-09-08T09:51:59Z</time>
      </trkpt>
      <trkpt lat="47.26513" lon="-1.65827">
        <ele>27.2</ele>
        <time>2013-09-08T09:52:06Z</time>
      </trkpt>
      <trkpt lat="47.26509" lon="-1.65813">
        <ele>25.9</ele>
        <time>2013-09-08T09:52:13Z</time>
      </trkpt>
      <trkpt lat="47.26509" lon="-1.65795">
        <ele>24.8</ele>
        <time>2013-09-08T09:52:18Z</time>
      </trkpt>
      <trkpt lat="47.26516" lon="-1.65782">
        <ele>24.4</ele>
        <time>2013-09-08T09:52:21Z</time>
      </trkpt>
      <trkpt lat="47.26523" lon="-1.65766">
        <ele>24.4</ele>
        <time>2013-09-08T09:52:24Z</time>
      </trkpt>
      <trkpt lat="47.26531" lon="-1.65752">
        <ele>24.5</ele>
        <time>2013-09-08T09:52:26Z</time>
      </trkpt>
      <trkpt lat="47.26538" lon="-1.65741">
        <ele>24.8</ele>
        <time>2013-09-08T09:52:30Z</time>
      </trkpt>
      <trkpt lat="47.26548" lon="-1.65734">
        <ele>24.8</ele>
        <time>2013-09-08T09:52:33Z</time>
      </trkpt>
      <trkpt lat="47.26555" lon="-1.65726">
        <ele>24.9</ele>
        <time>2013-09-08T09:52:36Z</time>
      </trkpt>
      <trkpt lat="47.26565" lon="-1.6572">
        <ele>25.3</ele>
        <time>2013-09-08T09:52:39Z</time>
      </trkpt>
      <trkpt lat="47.26575" lon="-1.65716">
        <ele>26.2</ele>
        <time>2013-09-08T09:52:43Z</time>
      </trkpt>
      <trkpt lat="47.26584" lon="-1.65715">
        <ele>27.5</ele>
        <time>2013-09-08T09:52:48Z</time>
      </trkpt>
      <trkpt lat="47.26584" lon="-1.65698">
        <ele>29.2</ele>
        <time>2013-09-08T09:52:56Z</time>
      </trkpt>
      <trkpt lat="47.26585" lon="-1.65682">
        <ele>30.5</ele>
        <time>2013-09-08T09:53:00Z</time>
      </trkpt>
      <trkpt lat="47.26585" lon="-1.65666">
        <ele>31.8</ele>
        <time>2013-09-08T09:53:05Z</time>
      </trkpt>
      <trkpt lat="47.26585" lon="-1.65649">
        <ele>33</ele>
        <time>2013-09-08T09:53:09Z</time>
      </trkpt>
      <trkpt lat="47.26586" lon="-1.65631">
        <ele>34</ele>
        <time>2013-09-08T09:53:13Z</time>
      </trkpt>
      <trkpt lat="47.26586" lon="-1.65617">
        <ele>34.6</ele>
        <time>2013-09-08T09:53:16Z</time>
      </trkpt>
      <trkpt lat="47.26585" lon="-1.65601">
        <ele>35</ele>
        <time>2013-09-08T09:53:19Z</time>
      </trkpt>
      <trkpt lat="47.26583" lon="-1.65586">
        <ele>37.7</ele>
        <time>2013-09-08T09:53:21Z</time>
      </trkpt>
      <trkpt lat="47.26576" lon="-1.65574">
        <ele>37.9</ele>
        <time>2013-09-08T09:53:24Z</time>
      </trkpt>
      <trkpt lat="47.2657" lon="-1.65559">
        <ele>38.4</ele>
        <time>2013-09-08T09:53:28Z</time>
      </trkpt>
      <trkpt lat="47.26568" lon="-1.65545">
        <ele>38.8</ele>
        <time>2013-09-08T09:53:32Z</time>
      </trkpt>
      <trkpt lat="47.26567" lon="-1.65529">
        <ele>39.3</ele>
        <time>2013-09-08T09:53:37Z</time>
      </trkpt>
      <trkpt lat="47.26562" lon="-1.65515">
        <ele>39.9</ele>
        <time>2013-09-08T09:53:42Z</time>
      </trkpt>
      <trkpt lat="47.2656" lon="-1.655">
        <ele>40.3</ele>
        <time>2013-09-08T09:53:46Z</time>
      </trkpt>
      <trkpt lat="47.26559" lon="-1.65484">
        <ele>40.4</ele>
        <time>2013-09-08T09:53:49Z</time>
      </trkpt>
      <trkpt lat="47.26558" lon="-1.65468">
        <ele>40.4</ele>
        <time>2013-09-08T09:53:52Z</time>
      </trkpt>
      <trkpt lat="47.26556" lon="-1.65453">
        <ele>40.4</ele>
        <time>2013-09-08T09:53:55Z</time>
      </trkpt>
      <trkpt lat="47.26555" lon="-1.65436">
        <ele>40.6</ele>
        <time>2013-09-08T09:53:59Z</time>
      </trkpt>
      <trkpt lat="47.26557" lon="-1.65423">
        <ele>40.9</ele>
        <time>2013-09-08T09:54:02Z</time>
      </trkpt>
      <trkpt lat="47.2656" lon="-1.65408">
        <ele>41.2</ele>
        <time>2013-09-08T09:54:05Z</time>
      </trkpt>
      <trkpt lat="47.26564" lon="-1.65393">
        <ele>41.3</ele>
        <time>2013-09-08T09:54:09Z</time>
      </trkpt>
      <trkpt lat="47.26567" lon="-1.6538">
        <ele>41.1</ele>
        <time>2013-09-08T09:54:13Z</time>
      </trkpt>
      <trkpt lat="47.26571" lon="-1.65365">
        <ele>41</ele>
        <time>2013-09-08T09:54:17Z</time>
      </trkpt>
      <trkpt lat="47.26573" lon="-1.65352">
        <ele>40.8</ele>
        <time>2013-09-08T09:54:20Z</time>
      </trkpt>
      <trkpt lat="47.26574" lon="-1.65336">
        <ele>40.6</ele>
        <time>2013-09-08T09:54:24Z</time>
      </trkpt>
      <trkpt lat="47.26575" lon="-1.65323">
        <ele>40.5</ele>
        <time>2013-09-08T09:54:27Z</time>
      </trkpt>
      <trkpt lat="47.26576" lon="-1.65305">
        <ele>40.3</ele>
        <time>2013-09-08T09:54:31Z</time>
      </trkpt>
      <trkpt lat="47.26578" lon="-1.65288">
        <ele>40.5</ele>
        <time>2013-09-08T09:54:35Z</time>
      </trkpt>
      <trkpt lat="47.26579" lon="-1.65273">
        <ele>40.7</ele>
        <time>2013-09-08T09:54:39Z</time>
      </trkpt>
      <trkpt lat="47.26585" lon="-1.65263">
        <ele>41.4</ele>
        <time>2013-09-08T09:54:54Z</time>
      </trkpt>
      <trkpt lat="47.26578" lon="-1.65253">
        <ele>43.2</ele>
        <time>2013-09-08T09:55:03Z</time>
      </trkpt>
      <trkpt lat="47.26579" lon="-1.6524">
        <ele>43.5</ele>
        <time>2013-09-08T09:55:07Z</time>
      </trkpt>
      <trkpt lat="47.26577" lon="-1.65226">
        <ele>43.8</ele>
        <time>2013-09-08T09:55:11Z</time>
      </trkpt>
      <trkpt lat="47.26575" lon="-1.65211">
        <ele>44.6</ele>
        <time>2013-09-08T09:55:15Z</time>
      </trkpt>
      <trkpt lat="47.26573" lon="-1.65197">
        <ele>45.3</ele>
        <time>2013-09-08T09:55:18Z</time>
      </trkpt>
      <trkpt lat="47.26571" lon="-1.65183">
        <ele>46.2</ele>
        <time>2013-09-08T09:55:22Z</time>
      </trkpt>
      <trkpt lat="47.26568" lon="-1.65167">
        <ele>46.8</ele>
        <time>2013-09-08T09:55:27Z</time>
      </trkpt>
      <trkpt lat="47.26563" lon="-1.65154">
        <ele>47.4</ele>
        <time>2013-09-08T09:55:32Z</time>
      </trkpt>
      <trkpt lat="47.26559" lon="-1.6514">
        <ele>47.4</ele>
        <time>2013-09-08T09:55:36Z</time>
      </trkpt>
      <trkpt lat="47.26553" lon="-1.65127">
        <ele>47.5</ele>
        <time>2013-09-08T09:55:41Z</time>
      </trkpt>
      <trkpt lat="47.26545" lon="-1.65111">
        <ele>47.7</ele>
        <time>2013-09-08T09:55:45Z</time>
      </trkpt>
      <trkpt lat="47.26539" lon="-1.65096">
        <ele>47.7</ele>
        <time>2013-09-08T09:55:48Z</time>
      </trkpt>
      <trkpt lat="47.26535" lon="-1.65081">
        <ele>47.8</ele>
        <time>2013-09-08T09:55:52Z</time>
      </trkpt>
      <trkpt lat="47.26531" lon="-1.65069">
        <ele>48.2</ele>
        <time>2013-09-08T09:55:56Z</time>
      </trkpt>
      <trkpt lat="47.26526" lon="-1.65056">
        <ele>48.4</ele>
        <time>2013-09-08T09:56:00Z</time>
      </trkpt>
      <trkpt lat="47.2652" lon="-1.65042">
        <ele>48.8</ele>
        <time>2013-09-08T09:56:04Z</time>
      </trkpt>
      <trkpt lat="47.26516" lon="-1.65027">
        <ele>49</ele>
        <time>2013-09-08T09:56:07Z</time>
      </trkpt>
      <trkpt lat="47.26511" lon="-1.65011">
        <ele>49.7</ele>
        <time>2013-09-08T09:56:11Z</time>
      </trkpt>
      <trkpt lat="47.26507" lon="-1.64998">
        <ele>50.1</ele>
        <time>2013-09-08T09:56:15Z</time>
      </trkpt>
      <trkpt lat="47.26501" lon="-1.64985">
        <ele>50.9</ele>
        <time>2013-09-08T09:56:20Z</time>
      </trkpt>
      <trkpt lat="47.26496" lon="-1.64974">
        <ele>51.4</ele>
        <time>2013-09-08T09:56:24Z</time>
      </trkpt>
      <trkpt lat="47.26489" lon="-1.64961">
        <ele>52</ele>
        <time>2013-09-08T09:56:28Z</time>
      </trkpt>
      <trkpt lat="47.26483" lon="-1.6495">
        <ele>52.2</ele>
        <time>2013-09-08T09:56:31Z</time>
      </trkpt>
      <trkpt lat="47.26475" lon="-1.64939">
        <ele>52.6</ele>
        <time>2013-09-08T09:56:35Z</time>
      </trkpt>
      <trkpt lat="47.26467" lon="-1.64928">
        <ele>52.8</ele>
        <time>2013-09-08T09:56:39Z</time>
      </trkpt>
      <trkpt lat="47.26458" lon="-1.64916">
        <ele>52.7</ele>
        <time>2013-09-08T09:56:43Z</time>
      </trkpt>
      <trkpt lat="47.2645" lon="-1.64906">
        <ele>52.5</ele>
        <time>2013-09-08T09:56:47Z</time>
      </trkpt>
      <trkpt lat="47.26444" lon="-1.64892">
        <ele>52.7</ele>
        <time>2013-09-08T09:56:51Z</time>
      </trkpt>
      <trkpt lat="47.26436" lon="-1.64877">
        <ele>52.9</ele>
        <time>2013-09-08T09:56:54Z</time>
      </trkpt>
      <trkpt lat="47.2643" lon="-1.64864">
        <ele>53</ele>
        <time>2013-09-08T09:56:56Z</time>
      </trkpt>
      <trkpt lat="47.26425" lon="-1.64852">
        <ele>53.3</ele>
        <time>2013-09-08T09:56:59Z</time>
      </trkpt>
      <trkpt lat="47.26421" lon="-1.64835">
        <ele>53.3</ele>
        <time>2013-09-08T09:57:02Z</time>
      </trkpt>
      <trkpt lat="47.26419" lon="-1.64821">
        <ele>53.3</ele>
        <time>2013-09-08T09:57:04Z</time>
      </trkpt>
      <trkpt lat="47.26415" lon="-1.64806">
        <ele>53.4</ele>
        <time>2013-09-08T09:57:08Z</time>
      </trkpt>
      <trkpt lat="47.26412" lon="-1.64793">
        <ele>53.4</ele>
        <time>2013-09-08T09:57:11Z</time>
      </trkpt>
      <trkpt lat="47.2641" lon="-1.64779">
        <ele>53.5</ele>
        <time>2013-09-08T09:57:14Z</time>
      </trkpt>
      <trkpt lat="47.26409" lon="-1.64765">
        <ele>53.8</ele>
        <time>2013-09-08T09:57:18Z</time>
      </trkpt>
      <trkpt lat="47.26407" lon="-1.64749">
        <ele>54</ele>
        <time>2013-09-08T09:57:22Z</time>
      </trkpt>
      <trkpt lat="47.26406" lon="-1.64734">
        <ele>53.9</ele>
        <time>2013-09-08T09:57:26Z</time>
      </trkpt>
      <trkpt lat="47.26404" lon="-1.6472">
        <ele>53.8</ele>
        <time>2013-09-08T09:57:30Z</time>
      </trkpt>
      <trkpt lat="47.264" lon="-1.64703">
        <ele>54</ele>
        <time>2013-09-08T09:57:34Z</time>
      </trkpt>
      <trkpt lat="47.26397" lon="-1.64689">
        <ele>53.8</ele>
        <time>2013-09-08T09:57:37Z</time>
      </trkpt>
      <trkpt lat="47.26396" lon="-1.64674">
        <ele>53.8</ele>
        <time>2013-09-08T09:57:40Z</time>
      </trkpt>
      <trkpt lat="47.26394" lon="-1.6466">
        <ele>53.6</ele>
        <time>2013-09-08T09:57:44Z</time>
      </trkpt>
      <trkpt lat="47.26392" lon="-1.64645">
        <ele>53.3</ele>
        <time>2013-09-08T09:57:48Z</time>
      </trkpt>
      <trkpt lat="47.26389" lon="-1.6463">
        <ele>53.1</ele>
        <time>2013-09-08T09:57:52Z</time>
      </trkpt>
      <trkpt lat="47.26385" lon="-1.64616">
        <ele>53.1</ele>
        <time>2013-09-08T09:57:55Z</time>
      </trkpt>
      <trkpt lat="47.26382" lon="-1.64599">
        <ele>53.2</ele>
        <time>2013-09-08T09:57:58Z</time>
      </trkpt>
      <trkpt lat="47.26376" lon="-1.64583">
        <ele>53.7</ele>
        <time>2013-09-08T09:58:01Z</time>
      </trkpt>
      <trkpt lat="47.2637" lon="-1.64568">
        <ele>53.4</ele>
        <time>2013-09-08T09:58:04Z</time>
      </trkpt>
      <trkpt lat="47.26365" lon="-1.64556">
        <ele>52.8</ele>
        <time>2013-09-08T09:58:06Z</time>
      </trkpt>
      <trkpt lat="47.2636" lon="-1.64544">
        <ele>52.4</ele>
        <time>2013-09-08T09:58:08Z</time>
      </trkpt>
      <trkpt lat="47.26352" lon="-1.64528">
        <ele>52.5</ele>
        <time>2013-09-08T09:58:11Z</time>
      </trkpt>
      <trkpt lat="47.26346" lon="-1.64518">
        <ele>52.3</ele>
        <time>2013-09-08T09:58:13Z</time>
      </trkpt>
      <trkpt lat="47.26337" lon="-1.64506">
        <ele>52.5</ele>
        <time>2013-09-08T09:58:16Z</time>
      </trkpt>
      <trkpt lat="47.26328" lon="-1.64492">
        <ele>53.3</ele>
        <time>2013-09-08T09:58:19Z</time>
      </trkpt>
      <trkpt lat="47.26322" lon="-1.6448">
        <ele>53.2</ele>
        <time>2013-09-08T09:58:21Z</time>
      </trkpt>
      <trkpt lat="47.26315" lon="-1.64469">
        <ele>52.9</ele>
        <time>2013-09-08T09:58:23Z</time>
      </trkpt>
      <trkpt lat="47.26309" lon="-1.64459">
        <ele>52</ele>
        <time>2013-09-08T09:58:25Z</time>
      </trkpt>
      <trkpt lat="47.26302" lon="-1.64448">
        <ele>51.2</ele>
        <time>2013-09-08T09:58:27Z</time>
      </trkpt>
      <trkpt lat="47.26295" lon="-1.64437">
        <ele>50.6</ele>
        <time>2013-09-08T09:58:29Z</time>
      </trkpt>
      <trkpt lat="47.26287" lon="-1.64423">
        <ele>50.4</ele>
        <time>2013-09-08T09:58:31Z</time>
      </trkpt>
      <trkpt lat="47.26281" lon="-1.64413">
        <ele>50.4</ele>
        <time>2013-09-08T09:58:33Z</time>
      </trkpt>
      <trkpt lat="47.26272" lon="-1.64398">
        <ele>50.4</ele>
        <time>2013-09-08T09:58:36Z</time>
      </trkpt>
      <trkpt lat="47.26266" lon="-1.64388">
        <ele>50.6</ele>
        <time>2013-09-08T09:58:38Z</time>
      </trkpt>
      <trkpt lat="47.26258" lon="-1.64375">
        <ele>50.7</ele>
        <time>2013-09-08T09:58:41Z</time>
      </trkpt>
      <trkpt lat="47.26251" lon="-1.64363">
        <ele>50.7</ele>
        <time>2013-09-08T09:58:44Z</time>
      </trkpt>
      <trkpt lat="47.26242" lon="-1.64351">
        <ele>50.8</ele>
        <time>2013-09-08T09:58:47Z</time>
      </trkpt>
      <trkpt lat="47.26234" lon="-1.64338">
        <ele>51</ele>
        <time>2013-09-08T09:58:51Z</time>
      </trkpt>
      <trkpt lat="47.26226" lon="-1.64326">
        <ele>51</ele>
        <time>2013-09-08T09:58:55Z</time>
      </trkpt>
      <trkpt lat="47.2622" lon="-1.64316">
        <ele>51.1</ele>
        <time>2013-09-08T09:58:59Z</time>
      </trkpt>
      <trkpt lat="47.26209" lon="-1.64319">
        <ele>49.8</ele>
        <time>2013-09-08T10:04:10Z</time>
      </trkpt>
      <trkpt lat="47.26201" lon="-1.64325">
        <ele>49.3</ele>
        <time>2013-09-08T10:04:12Z</time>
      </trkpt>
      <trkpt lat="47.26192" lon="-1.64332">
        <ele>48.8</ele>
        <time>2013-09-08T10:04:14Z</time>
      </trkpt>
      <trkpt lat="47.2618" lon="-1.6434">
        <ele>49.3</ele>
        <time>2013-09-08T10:04:17Z</time>
      </trkpt>
      <trkpt lat="47.2617" lon="-1.64345">
        <ele>49.6</ele>
        <time>2013-09-08T10:04:20Z</time>
      </trkpt>
      <trkpt lat="47.26159" lon="-1.64352">
        <ele>49.9</ele>
        <time>2013-09-08T10:04:23Z</time>
      </trkpt>
      <trkpt lat="47.26147" lon="-1.64357">
        <ele>51</ele>
        <time>2013-09-08T10:04:26Z</time>
      </trkpt>
      <trkpt lat="47.26135" lon="-1.64363">
        <ele>51.2</ele>
        <time>2013-09-08T10:04:29Z</time>
      </trkpt>
      <trkpt lat="47.26125" lon="-1.64369">
        <ele>51.4</ele>
        <time>2013-09-08T10:04:32Z</time>
      </trkpt>
      <trkpt lat="47.26115" lon="-1.64375">
        <ele>51.6</ele>
        <time>2013-09-08T10:04:35Z</time>
      </trkpt>
      <trkpt lat="47.26106" lon="-1.64382">
        <ele>51.9</ele>
        <time>2013-09-08T10:04:38Z</time>
      </trkpt>
      <trkpt lat="47.26097" lon="-1.64395">
        <ele>52</ele>
        <time>2013-09-08T10:04:41Z</time>
      </trkpt>
      <trkpt lat="47.26092" lon="-1.64408">
        <ele>53.4</ele>
        <time>2013-09-08T10:04:44Z</time>
      </trkpt>
      <trkpt lat="47.26091" lon="-1.64421">
        <ele>54.5</ele>
        <time>2013-09-08T10:04:46Z</time>
      </trkpt>
      <trkpt lat="47.26094" lon="-1.64438">
        <ele>55.7</ele>
        <time>2013-09-08T10:04:49Z</time>
      </trkpt>
      <trkpt lat="47.26097" lon="-1.64452">
        <ele>55.6</ele>
        <time>2013-09-08T10:04:51Z</time>
      </trkpt>
      <trkpt lat="47.261" lon="-1.64467">
        <ele>55.2</ele>
        <time>2013-09-08T10:04:53Z</time>
      </trkpt>
      <trkpt lat="47.26104" lon="-1.6448">
        <ele>55.8</ele>
        <time>2013-09-08T10:04:55Z</time>
      </trkpt>
      <trkpt lat="47.26107" lon="-1.64493">
        <ele>55.7</ele>
        <time>2013-09-08T10:04:57Z</time>
      </trkpt>
      <trkpt lat="47.26111" lon="-1.64512">
        <ele>54.6</ele>
        <time>2013-09-08T10:04:59Z</time>
      </trkpt>
      <trkpt lat="47.26115" lon="-1.64529">
        <ele>53.9</ele>
        <time>2013-09-08T10:05:01Z</time>
      </trkpt>
      <trkpt lat="47.26119" lon="-1.64547">
        <ele>53.9</ele>
        <time>2013-09-08T10:05:03Z</time>
      </trkpt>
      <trkpt lat="47.26122" lon="-1.64563">
        <ele>54.3</ele>
        <time>2013-09-08T10:05:05Z</time>
      </trkpt>
      <trkpt lat="47.26125" lon="-1.64575">
        <ele>54.9</ele>
        <time>2013-09-08T10:05:07Z</time>
      </trkpt>
      <trkpt lat="47.26127" lon="-1.64589">
        <ele>55.3</ele>
        <time>2013-09-08T10:05:09Z</time>
      </trkpt>
      <trkpt lat="47.2613" lon="-1.64605">
        <ele>55.3</ele>
        <time>2013-09-08T10:05:11Z</time>
      </trkpt>
      <trkpt lat="47.26132" lon="-1.64618">
        <ele>54.8</ele>
        <time>2013-09-08T10:05:13Z</time>
      </trkpt>
      <trkpt lat="47.26135" lon="-1.64633">
        <ele>54.3</ele>
        <time>2013-09-08T10:05:15Z</time>
      </trkpt>
      <trkpt lat="47.26138" lon="-1.64653">
        <ele>53.5</ele>
        <time>2013-09-08T10:05:18Z</time>
      </trkpt>
      <trkpt lat="47.2614" lon="-1.64667">
        <ele>54.4</ele>
        <time>2013-09-08T10:05:20Z</time>
      </trkpt>
      <trkpt lat="47.26141" lon="-1.6468">
        <ele>54.4</ele>
        <time>2013-09-08T10:05:22Z</time>
      </trkpt>
      <trkpt lat="47.26142" lon="-1.64697">
        <ele>55.1</ele>
        <time>2013-09-08T10:05:25Z</time>
      </trkpt>
      <trkpt lat="47.26143" lon="-1.64713">
        <ele>53.1</ele>
        <time>2013-09-08T10:05:27Z</time>
      </trkpt>
      <trkpt lat="47.26143" lon="-1.64733">
        <ele>50.7</ele>
        <time>2013-09-08T10:05:30Z</time>
      </trkpt>
      <trkpt lat="47.26144" lon="-1.64751">
        <ele>51.4</ele>
        <time>2013-09-08T10:05:33Z</time>
      </trkpt>
      <trkpt lat="47.26145" lon="-1.64769">
        <ele>51</ele>
        <time>2013-09-08T10:05:36Z</time>
      </trkpt>
      <trkpt lat="47.26144" lon="-1.64782">
        <ele>50.9</ele>
        <time>2013-09-08T10:05:39Z</time>
      </trkpt>
      <trkpt lat="47.26144" lon="-1.64798">
        <ele>50.9</ele>
        <time>2013-09-08T10:05:42Z</time>
      </trkpt>
      <trkpt lat="47.26143" lon="-1.64815">
        <ele>51.1</ele>
        <time>2013-09-08T10:05:45Z</time>
      </trkpt>
      <trkpt lat="47.26142" lon="-1.64833">
        <ele>51.5</ele>
        <time>2013-09-08T10:05:48Z</time>
      </trkpt>
      <trkpt lat="47.26142" lon="-1.64849">
        <ele>51.8</ele>
        <time>2013-09-08T10:05:52Z</time>
      </trkpt>
      <trkpt lat="47.26142" lon="-1.64868">
        <ele>51.9</ele>
        <time>2013-09-08T10:05:55Z</time>
      </trkpt>
      <trkpt lat="47.2614" lon="-1.64883">
        <ele>52.1</ele>
        <time>2013-09-08T10:05:58Z</time>
      </trkpt>
      <trkpt lat="47.26139" lon="-1.64898">
        <ele>52.4</ele>
        <time>2013-09-08T10:06:01Z</time>
      </trkpt>
      <trkpt lat="47.26137" lon="-1.64913">
        <ele>52.7</ele>
        <time>2013-09-08T10:06:04Z</time>
      </trkpt>
      <trkpt lat="47.26135" lon="-1.64929">
        <ele>52.9</ele>
        <time>2013-09-08T10:06:07Z</time>
      </trkpt>
      <trkpt lat="47.26133" lon="-1.64944">
        <ele>53</ele>
        <time>2013-09-08T10:06:10Z</time>
      </trkpt>
      <trkpt lat="47.26132" lon="-1.64961">
        <ele>53.3</ele>
        <time>2013-09-08T10:06:13Z</time>
      </trkpt>
      <trkpt lat="47.2613" lon="-1.64977">
        <ele>53.4</ele>
        <time>2013-09-08T10:06:16Z</time>
      </trkpt>
      <trkpt lat="47.26128" lon="-1.64993">
        <ele>53.5</ele>
        <time>2013-09-08T10:06:19Z</time>
      </trkpt>
      <trkpt lat="47.26127" lon="-1.65006">
        <ele>53.9</ele>
        <time>2013-09-08T10:06:22Z</time>
      </trkpt>
      <trkpt lat="47.26125" lon="-1.65024">
        <ele>56.1</ele>
        <time>2013-09-08T10:06:25Z</time>
      </trkpt>
      <trkpt lat="47.26124" lon="-1.65037">
        <ele>56.2</ele>
        <time>2013-09-08T10:06:27Z</time>
      </trkpt>
      <trkpt lat="47.26123" lon="-1.65053">
        <ele>56.2</ele>
        <time>2013-09-08T10:06:30Z</time>
      </trkpt>
      <trkpt lat="47.26121" lon="-1.65068">
        <ele>56.3</ele>
        <time>2013-09-08T10:06:33Z</time>
      </trkpt>
      <trkpt lat="47.26123" lon="-1.65085">
        <ele>56.4</ele>
        <time>2013-09-08T10:06:36Z</time>
      </trkpt>
      <trkpt lat="47.26124" lon="-1.65101">
        <ele>56.6</ele>
        <time>2013-09-08T10:06:39Z</time>
      </trkpt>
      <trkpt lat="47.26125" lon="-1.65116">
        <ele>56.7</ele>
        <time>2013-09-08T10:06:42Z</time>
      </trkpt>
      <trkpt lat="47.26126" lon="-1.65131">
        <ele>57.1</ele>
        <time>2013-09-08T10:06:45Z</time>
      </trkpt>
      <trkpt lat="47.26127" lon="-1.65147">
        <ele>57.6</ele>
        <time>2013-09-08T10:06:49Z</time>
      </trkpt>
      <trkpt lat="47.26128" lon="-1.65161">
        <ele>57.9</ele>
        <time>2013-09-08T10:06:52Z</time>
      </trkpt>
      <trkpt lat="47.26129" lon="-1.6518">
        <ele>58.1</ele>
        <time>2013-09-08T10:06:55Z</time>
      </trkpt>
      <trkpt lat="47.26132" lon="-1.65198">
        <ele>58.2</ele>
        <time>2013-09-08T10:06:58Z</time>
      </trkpt>
      <trkpt lat="47.26135" lon="-1.65213">
        <ele>58</ele>
        <time>2013-09-08T10:07:01Z</time>
      </trkpt>
      <trkpt lat="47.26137" lon="-1.65228">
        <ele>57.9</ele>
        <time>2013-09-08T10:07:03Z</time>
      </trkpt>
      <trkpt lat="47.26138" lon="-1.65242">
        <ele>57.8</ele>
        <time>2013-09-08T10:07:05Z</time>
      </trkpt>
      <trkpt lat="47.26136" lon="-1.65257">
        <ele>57.9</ele>
        <time>2013-09-08T10:07:08Z</time>
      </trkpt>
      <trkpt lat="47.26129" lon="-1.65268">
        <ele>57.8</ele>
        <time>2013-09-08T10:07:11Z</time>
      </trkpt>
      <trkpt lat="47.26116" lon="-1.65276">
        <ele>58.4</ele>
        <time>2013-09-08T10:07:14Z</time>
      </trkpt>
      <trkpt lat="47.26106" lon="-1.65281">
        <ele>60.7</ele>
        <time>2013-09-08T10:07:16Z</time>
      </trkpt>
      <trkpt lat="47.26097" lon="-1.65285">
        <ele>62.5</ele>
        <time>2013-09-08T10:07:18Z</time>
      </trkpt>
      <trkpt lat="47.26086" lon="-1.65288">
        <ele>62.8</ele>
        <time>2013-09-08T10:07:21Z</time>
      </trkpt>
      <trkpt lat="47.26076" lon="-1.6529">
        <ele>61.4</ele>
        <time>2013-09-08T10:07:23Z</time>
      </trkpt>
      <trkpt lat="47.26062" lon="-1.65294">
        <ele>62.6</ele>
        <time>2013-09-08T10:07:26Z</time>
      </trkpt>
      <trkpt lat="47.26052" lon="-1.65297">
        <ele>63.4</ele>
        <time>2013-09-08T10:07:28Z</time>
      </trkpt>
      <trkpt lat="47.26042" lon="-1.65302">
        <ele>63.8</ele>
        <time>2013-09-08T10:07:31Z</time>
      </trkpt>
      <trkpt lat="47.26032" lon="-1.65309">
        <ele>63.4</ele>
        <time>2013-09-08T10:07:34Z</time>
      </trkpt>
      <trkpt lat="47.26024" lon="-1.65321">
        <ele>63.4</ele>
        <time>2013-09-08T10:07:37Z</time>
      </trkpt>
      <trkpt lat="47.26017" lon="-1.65329">
        <ele>63.8</ele>
        <time>2013-09-08T10:07:39Z</time>
      </trkpt>
      <trkpt lat="47.2601" lon="-1.65339">
        <ele>64</ele>
        <time>2013-09-08T10:07:41Z</time>
      </trkpt>
      <trkpt lat="47.26002" lon="-1.65354">
        <ele>63.6</ele>
        <time>2013-09-08T10:07:44Z</time>
      </trkpt>
      <trkpt lat="47.25991" lon="-1.65364">
        <ele>63.2</ele>
        <time>2013-09-08T10:07:47Z</time>
      </trkpt>
      <trkpt lat="47.25982" lon="-1.6537">
        <ele>64.4</ele>
        <time>2013-09-08T10:07:49Z</time>
      </trkpt>
      <trkpt lat="47.25974" lon="-1.65376">
        <ele>64.3</ele>
        <time>2013-09-08T10:07:51Z</time>
      </trkpt>
      <trkpt lat="47.25965" lon="-1.65383">
        <ele>63.6</ele>
        <time>2013-09-08T10:07:53Z</time>
      </trkpt>
      <trkpt lat="47.25956" lon="-1.65394">
        <ele>63.3</ele>
        <time>2013-09-08T10:07:56Z</time>
      </trkpt>
      <trkpt lat="47.25952" lon="-1.65407">
        <ele>63.3</ele>
        <time>2013-09-08T10:07:58Z</time>
      </trkpt>
      <trkpt lat="47.2595" lon="-1.65423">
        <ele>63.4</ele>
        <time>2013-09-08T10:08:00Z</time>
      </trkpt>
      <trkpt lat="47.25951" lon="-1.65438">
        <ele>62.5</ele>
        <time>2013-09-08T10:08:02Z</time>
      </trkpt>
      <trkpt lat="47.25954" lon="-1.65453">
        <ele>62.4</ele>
        <time>2013-09-08T10:08:05Z</time>
      </trkpt>
      <trkpt lat="47.25956" lon="-1.65466">
        <ele>62.5</ele>
        <time>2013-09-08T10:08:08Z</time>
      </trkpt>
      <trkpt lat="47.25959" lon="-1.6548">
        <ele>62.3</ele>
        <time>2013-09-08T10:08:20Z</time>
      </trkpt>
      <trkpt lat="47.2595" lon="-1.65492">
        <ele>62.2</ele>
        <time>2013-09-08T10:08:24Z</time>
      </trkpt>
      <trkpt lat="47.25943" lon="-1.65501">
        <ele>62.2</ele>
        <time>2013-09-08T10:08:27Z</time>
      </trkpt>
      <trkpt lat="47.25938" lon="-1.65513">
        <ele>62.2</ele>
        <time>2013-09-08T10:08:33Z</time>
      </trkpt>
      <trkpt lat="47.25929" lon="-1.65517">
        <ele>62.3</ele>
        <time>2013-09-08T10:08:45Z</time>
      </trkpt>
      <trkpt lat="47.25923" lon="-1.65531">
        <ele>62.3</ele>
        <time>2013-09-08T10:08:49Z</time>
      </trkpt>
      <trkpt lat="47.25915" lon="-1.65544">
        <ele>62.4</ele>
        <time>2013-09-08T10:08:53Z</time>
      </trkpt>
      <trkpt lat="47.25909" lon="-1.65557">
        <ele>62.4</ele>
        <time>2013-09-08T10:08:56Z</time>
      </trkpt>
      <trkpt lat="47.25904" lon="-1.65569">
        <ele>62.4</ele>
        <time>2013-09-08T10:08:59Z</time>
      </trkpt>
      <trkpt lat="47.25898" lon="-1.65582">
        <ele>62.3</ele>
        <time>2013-09-08T10:09:03Z</time>
      </trkpt>
      <trkpt lat="47.25893" lon="-1.65595">
        <ele>62.2</ele>
        <time>2013-09-08T10:09:06Z</time>
      </trkpt>
      <trkpt lat="47.25886" lon="-1.65607">
        <ele>62.2</ele>
        <time>2013-09-08T10:09:09Z</time>
      </trkpt>
      <trkpt lat="47.25879" lon="-1.65621">
        <ele>62.1</ele>
        <time>2013-09-08T10:09:12Z</time>
      </trkpt>
      <trkpt lat="47.25872" lon="-1.65636">
        <ele>62.1</ele>
        <time>2013-09-08T10:09:15Z</time>
      </trkpt>
      <trkpt lat="47.25866" lon="-1.65653">
        <ele>61.9</ele>
        <time>2013-09-08T10:09:18Z</time>
      </trkpt>
      <trkpt lat="47.25862" lon="-1.65665">
        <ele>60.6</ele>
        <time>2013-09-08T10:09:20Z</time>
      </trkpt>
      <trkpt lat="47.25855" lon="-1.65677">
        <ele>58.6</ele>
        <time>2013-09-08T10:09:22Z</time>
      </trkpt>
      <trkpt lat="47.25848" lon="-1.65691">
        <ele>58.4</ele>
        <time>2013-09-08T10:09:24Z</time>
      </trkpt>
      <trkpt lat="47.2584" lon="-1.6571">
        <ele>58.7</ele>
        <time>2013-09-08T10:09:26Z</time>
      </trkpt>
      <trkpt lat="47.25831" lon="-1.65729">
        <ele>58.4</ele>
        <time>2013-09-08T10:09:28Z</time>
      </trkpt>
      <trkpt lat="47.25823" lon="-1.65745">
        <ele>58.1</ele>
        <time>2013-09-08T10:09:30Z</time>
      </trkpt>
      <trkpt lat="47.25815" lon="-1.65759">
        <ele>57.3</ele>
        <time>2013-09-08T10:09:32Z</time>
      </trkpt>
      <trkpt lat="47.25806" lon="-1.65774">
        <ele>56.5</ele>
        <time>2013-09-08T10:09:34Z</time>
      </trkpt>
      <trkpt lat="47.25798" lon="-1.65791">
        <ele>55.3</ele>
        <time>2013-09-08T10:09:36Z</time>
      </trkpt>
      <trkpt lat="47.25787" lon="-1.65813">
        <ele>52.5</ele>
        <time>2013-09-08T10:09:38Z</time>
      </trkpt>
      <trkpt lat="47.25781" lon="-1.6583">
        <ele>51.3</ele>
        <time>2013-09-08T10:09:39Z</time>
      </trkpt>
      <trkpt lat="47.25774" lon="-1.65844">
        <ele>50.5</ele>
        <time>2013-09-08T10:09:40Z</time>
      </trkpt>
      <trkpt lat="47.25768" lon="-1.65857">
        <ele>49.6</ele>
        <time>2013-09-08T10:09:41Z</time>
      </trkpt>
      <trkpt lat="47.25758" lon="-1.65878">
        <ele>49.2</ele>
        <time>2013-09-08T10:09:43Z</time>
      </trkpt>
      <trkpt lat="47.2575" lon="-1.65892">
        <ele>49.3</ele>
        <time>2013-09-08T10:09:45Z</time>
      </trkpt>
      <trkpt lat="47.25744" lon="-1.65906">
        <ele>50.1</ele>
        <time>2013-09-08T10:09:47Z</time>
      </trkpt>
      <trkpt lat="47.25735" lon="-1.65924">
        <ele>50</ele>
        <time>2013-09-08T10:09:49Z</time>
      </trkpt>
      <trkpt lat="47.25727" lon="-1.65941">
        <ele>50.6</ele>
        <time>2013-09-08T10:09:51Z</time>
      </trkpt>
      <trkpt lat="47.25718" lon="-1.65958">
        <ele>50.7</ele>
        <time>2013-09-08T10:09:53Z</time>
      </trkpt>
      <trkpt lat="47.25709" lon="-1.65977">
        <ele>51.2</ele>
        <time>2013-09-08T10:09:55Z</time>
      </trkpt>
      <trkpt lat="47.25704" lon="-1.65988">
        <ele>51.6</ele>
        <time>2013-09-08T10:09:56Z</time>
      </trkpt>
      <trkpt lat="47.25695" lon="-1.66006">
        <ele>51.9</ele>
        <time>2013-09-08T10:09:58Z</time>
      </trkpt>
      <trkpt lat="47.25687" lon="-1.66021">
        <ele>51.4</ele>
        <time>2013-09-08T10:10:00Z</time>
      </trkpt>
      <trkpt lat="47.25681" lon="-1.66036">
        <ele>51.4</ele>
        <time>2013-09-08T10:10:02Z</time>
      </trkpt>
      <trkpt lat="47.25674" lon="-1.66053">
        <ele>50.9</ele>
        <time>2013-09-08T10:10:04Z</time>
      </trkpt>
      <trkpt lat="47.25667" lon="-1.66069">
        <ele>49.2</ele>
        <time>2013-09-08T10:10:06Z</time>
      </trkpt>
      <trkpt lat="47.2566" lon="-1.66086">
        <ele>47.3</ele>
        <time>2013-09-08T10:10:08Z</time>
      </trkpt>
      <trkpt lat="47.25653" lon="-1.66103">
        <ele>45.7</ele>
        <time>2013-09-08T10:10:10Z</time>
      </trkpt>
      <trkpt lat="47.25646" lon="-1.66117">
        <ele>44.3</ele>
        <time>2013-09-08T10:10:12Z</time>
      </trkpt>
      <trkpt lat="47.25638" lon="-1.66132">
        <ele>44</ele>
        <time>2013-09-08T10:10:14Z</time>
      </trkpt>
      <trkpt lat="47.2563" lon="-1.6615">
        <ele>44.7</ele>
        <time>2013-09-08T10:10:16Z</time>
      </trkpt>
      <trkpt lat="47.25622" lon="-1.66167">
        <ele>44.4</ele>
        <time>2013-09-08T10:10:18Z</time>
      </trkpt>
      <trkpt lat="47.25614" lon="-1.66184">
        <ele>44</ele>
        <time>2013-09-08T10:10:20Z</time>
      </trkpt>
      <trkpt lat="47.25606" lon="-1.66201">
        <ele>44.8</ele>
        <time>2013-09-08T10:10:22Z</time>
      </trkpt>
      <trkpt lat="47.25599" lon="-1.66216">
        <ele>45.4</ele>
        <time>2013-09-08T10:10:24Z</time>
      </trkpt>
      <trkpt lat="47.25591" lon="-1.66233">
        <ele>45.5</ele>
        <time>2013-09-08T10:10:26Z</time>
      </trkpt>
      <trkpt lat="47.25586" lon="-1.66248">
        <ele>45.4</ele>
        <time>2013-09-08T10:10:28Z</time>
      </trkpt>
      <trkpt lat="47.25579" lon="-1.66264">
        <ele>43.8</ele>
        <time>2013-09-08T10:10:30Z</time>
      </trkpt>
      <trkpt lat="47.25573" lon="-1.66278">
        <ele>42.4</ele>
        <time>2013-09-08T10:10:32Z</time>
      </trkpt>
      <trkpt lat="47.25566" lon="-1.66291">
        <ele>40.9</ele>
        <time>2013-09-08T10:10:34Z</time>
      </trkpt>
      <trkpt lat="47.25558" lon="-1.66306">
        <ele>38.1</ele>
        <time>2013-09-08T10:10:36Z</time>
      </trkpt>
      <trkpt lat="47.25552" lon="-1.66318">
        <ele>36.4</ele>
        <time>2013-09-08T10:10:38Z</time>
      </trkpt>
      <trkpt lat="47.25545" lon="-1.66333">
        <ele>36.1</ele>
        <time>2013-09-08T10:10:40Z</time>
      </trkpt>
      <trkpt lat="47.25538" lon="-1.66346">
        <ele>35.9</ele>
        <time>2013-09-08T10:10:42Z</time>
      </trkpt>
      <trkpt lat="47.2553" lon="-1.66358">
        <ele>35.5</ele>
        <time>2013-09-08T10:10:45Z</time>
      </trkpt>
      <trkpt lat="47.25521" lon="-1.66368">
        <ele>35</ele>
        <time>2013-09-08T10:10:49Z</time>
      </trkpt>
      <trkpt lat="47.25512" lon="-1.66373">
        <ele>35</ele>
        <time>2013-09-08T10:10:52Z</time>
      </trkpt>
      <trkpt lat="47.25503" lon="-1.66378">
        <ele>35.5</ele>
        <time>2013-09-08T10:10:55Z</time>
      </trkpt>
      <trkpt lat="47.25497" lon="-1.66392">
        <ele>35.8</ele>
        <time>2013-09-08T10:10:59Z</time>
      </trkpt>
      <trkpt lat="47.25492" lon="-1.66403">
        <ele>36.6</ele>
        <time>2013-09-08T10:11:16Z</time>
      </trkpt>
      <trkpt lat="47.25485" lon="-1.66412">
        <ele>36.9</ele>
        <time>2013-09-08T10:11:19Z</time>
      </trkpt>
      <trkpt lat="47.25477" lon="-1.66422">
        <ele>37.1</ele>
        <time>2013-09-08T10:11:21Z</time>
      </trkpt>
      <trkpt lat="47.2547" lon="-1.66431">
        <ele>37.4</ele>
        <time>2013-09-08T10:11:23Z</time>
      </trkpt>
      <trkpt lat="47.25464" lon="-1.66441">
        <ele>38.1</ele>
        <time>2013-09-08T10:11:25Z</time>
      </trkpt>
      <trkpt lat="47.25455" lon="-1.66455">
        <ele>38</ele>
        <time>2013-09-08T10:11:28Z</time>
      </trkpt>
      <trkpt lat="47.25446" lon="-1.66464">
        <ele>37.7</ele>
        <time>2013-09-08T10:11:31Z</time>
      </trkpt>
      <trkpt lat="47.25439" lon="-1.66474">
        <ele>35.8</ele>
        <time>2013-09-08T10:11:33Z</time>
      </trkpt>
      <trkpt lat="47.25432" lon="-1.66483">
        <ele>35.5</ele>
        <time>2013-09-08T10:11:35Z</time>
      </trkpt>
      <trkpt lat="47.25423" lon="-1.66489">
        <ele>31.9</ele>
        <time>2013-09-08T10:11:37Z</time>
      </trkpt>
      <trkpt lat="47.25413" lon="-1.66493">
        <ele>30.2</ele>
        <time>2013-09-08T10:11:39Z</time>
      </trkpt>
      <trkpt lat="47.25404" lon="-1.66496">
        <ele>29.3</ele>
        <time>2013-09-08T10:11:41Z</time>
      </trkpt>
      <trkpt lat="47.25394" lon="-1.66501">
        <ele>28.2</ele>
        <time>2013-09-08T10:11:43Z</time>
      </trkpt>
      <trkpt lat="47.25383" lon="-1.66505">
        <ele>28</ele>
        <time>2013-09-08T10:11:45Z</time>
      </trkpt>
      <trkpt lat="47.25374" lon="-1.66509">
        <ele>27.9</ele>
        <time>2013-09-08T10:11:47Z</time>
      </trkpt>
      <trkpt lat="47.25361" lon="-1.66514">
        <ele>27.2</ele>
        <time>2013-09-08T10:11:50Z</time>
      </trkpt>
      <trkpt lat="47.25349" lon="-1.66517">
        <ele>26.6</ele>
        <time>2013-09-08T10:11:54Z</time>
      </trkpt>
      <trkpt lat="47.2534" lon="-1.66514">
        <ele>26.3</ele>
        <time>2013-09-08T10:11:57Z</time>
      </trkpt>
      <trkpt lat="47.25333" lon="-1.66503">
        <ele>26.5</ele>
        <time>2013-09-08T10:12:00Z</time>
      </trkpt>
      <trkpt lat="47.25328" lon="-1.66486">
        <ele>26.7</ele>
        <time>2013-09-08T10:12:03Z</time>
      </trkpt>
      <trkpt lat="47.25326" lon="-1.66471">
        <ele>27</ele>
        <time>2013-09-08T10:12:05Z</time>
      </trkpt>
      <trkpt lat="47.25325" lon="-1.66453">
        <ele>27.5</ele>
        <time>2013-09-08T10:12:08Z</time>
      </trkpt>
      <trkpt lat="47.25324" lon="-1.66435">
        <ele>28</ele>
        <time>2013-09-08T10:12:11Z</time>
      </trkpt>
      <trkpt lat="47.25324" lon="-1.66418">
        <ele>28.6</ele>
        <time>2013-09-08T10:12:14Z</time>
      </trkpt>
      <trkpt lat="47.25325" lon="-1.66402">
        <ele>29.2</ele>
        <time>2013-09-08T10:12:17Z</time>
      </trkpt>
      <trkpt lat="47.25325" lon="-1.66385">
        <ele>29.9</ele>
        <time>2013-09-08T10:12:20Z</time>
      </trkpt>
      <trkpt lat="47.25325" lon="-1.66368">
        <ele>30.6</ele>
        <time>2013-09-08T10:12:23Z</time>
      </trkpt>
      <trkpt lat="47.25325" lon="-1.66351">
        <ele>31.2</ele>
        <time>2013-09-08T10:12:26Z</time>
      </trkpt>
      <trkpt lat="47.25324" lon="-1.66332">
        <ele>36.7</ele>
        <time>2013-09-08T10:12:29Z</time>
      </trkpt>
      <trkpt lat="47.25323" lon="-1.66311">
        <ele>39.3</ele>
        <time>2013-09-08T10:12:32Z</time>
      </trkpt>
      <trkpt lat="47.25322" lon="-1.66296">
        <ele>40</ele>
        <time>2013-09-08T10:12:34Z</time>
      </trkpt>
      <trkpt lat="47.25321" lon="-1.66281">
        <ele>40.3</ele>
        <time>2013-09-08T10:12:36Z</time>
      </trkpt>
      <trkpt lat="47.2532" lon="-1.66265">
        <ele>40</ele>
        <time>2013-09-08T10:12:38Z</time>
      </trkpt>
      <trkpt lat="47.25319" lon="-1.66249">
        <ele>39.8</ele>
        <time>2013-09-08T10:12:40Z</time>
      </trkpt>
      <trkpt lat="47.25319" lon="-1.66234">
        <ele>39.8</ele>
        <time>2013-09-08T10:12:42Z</time>
      </trkpt>
      <trkpt lat="47.25318" lon="-1.66219">
        <ele>39.6</ele>
        <time>2013-09-08T10:12:44Z</time>
      </trkpt>
      <trkpt lat="47.25318" lon="-1.66204">
        <ele>39.3</ele>
        <time>2013-09-08T10:12:46Z</time>
      </trkpt>
      <trkpt lat="47.25318" lon="-1.66189">
        <ele>39.2</ele>
        <time>2013-09-08T10:12:48Z</time>
      </trkpt>
      <trkpt lat="47.25318" lon="-1.66174">
        <ele>39</ele>
        <time>2013-09-08T10:12:50Z</time>
      </trkpt>
      <trkpt lat="47.25319" lon="-1.66159">
        <ele>39.5</ele>
        <time>2013-09-08T10:12:52Z</time>
      </trkpt>
      <trkpt lat="47.2532" lon="-1.66146">
        <ele>40.3</ele>
        <time>2013-09-08T10:12:54Z</time>
      </trkpt>
      <trkpt lat="47.25321" lon="-1.66128">
        <ele>41.2</ele>
        <time>2013-09-08T10:12:57Z</time>
      </trkpt>
      <trkpt lat="47.25322" lon="-1.66111">
        <ele>41.6</ele>
        <time>2013-09-08T10:13:00Z</time>
      </trkpt>
      <trkpt lat="47.25322" lon="-1.66094">
        <ele>41.6</ele>
        <time>2013-09-08T10:13:03Z</time>
      </trkpt>
      <trkpt lat="47.25318" lon="-1.66082">
        <ele>41.8</ele>
        <time>2013-09-08T10:13:06Z</time>
      </trkpt>
      <trkpt lat="47.25311" lon="-1.66071">
        <ele>41.8</ele>
        <time>2013-09-08T10:13:09Z</time>
      </trkpt>
      <trkpt lat="47.25304" lon="-1.6606">
        <ele>41.9</ele>
        <time>2013-09-08T10:13:12Z</time>
      </trkpt>
      <trkpt lat="47.25295" lon="-1.66046">
        <ele>41.8</ele>
        <time>2013-09-08T10:13:15Z</time>
      </trkpt>
      <trkpt lat="47.25289" lon="-1.66035">
        <ele>42</ele>
        <time>2013-09-08T10:13:17Z</time>
      </trkpt>
      <trkpt lat="47.25283" lon="-1.66023">
        <ele>42.3</ele>
        <time>2013-09-08T10:13:19Z</time>
      </trkpt>
      <trkpt lat="47.25277" lon="-1.66007">
        <ele>42.1</ele>
        <time>2013-09-08T10:13:22Z</time>
      </trkpt>
      <trkpt lat="47.25272" lon="-1.65995">
        <ele>42.1</ele>
        <time>2013-09-08T10:13:25Z</time>
      </trkpt>
      <trkpt lat="47.25266" lon="-1.65985">
        <ele>42</ele>
        <time>2013-09-08T10:13:28Z</time>
      </trkpt>
      <trkpt lat="47.25258" lon="-1.65972">
        <ele>41.8</ele>
        <time>2013-09-08T10:13:31Z</time>
      </trkpt>
      <trkpt lat="47.25252" lon="-1.65957">
        <ele>41.8</ele>
        <time>2013-09-08T10:13:34Z</time>
      </trkpt>
      <trkpt lat="47.25248" lon="-1.65945">
        <ele>41.6</ele>
        <time>2013-09-08T10:13:36Z</time>
      </trkpt>
      <trkpt lat="47.25243" lon="-1.65932">
        <ele>41.3</ele>
        <time>2013-09-08T10:13:38Z</time>
      </trkpt>
      <trkpt lat="47.25239" lon="-1.6592">
        <ele>41.3</ele>
        <time>2013-09-08T10:13:40Z</time>
      </trkpt>
      <trkpt lat="47.25235" lon="-1.65908">
        <ele>40.3</ele>
        <time>2013-09-08T10:13:42Z</time>
      </trkpt>
      <trkpt lat="47.25229" lon="-1.65891">
        <ele>39.3</ele>
        <time>2013-09-08T10:13:45Z</time>
      </trkpt>
      <trkpt lat="47.25225" lon="-1.65873">
        <ele>38.8</ele>
        <time>2013-09-08T10:13:48Z</time>
      </trkpt>
      <trkpt lat="47.25223" lon="-1.6586">
        <ele>39.3</ele>
        <time>2013-09-08T10:13:50Z</time>
      </trkpt>
      <trkpt lat="47.25219" lon="-1.65843">
        <ele>39.4</ele>
        <time>2013-09-08T10:13:53Z</time>
      </trkpt>
      <trkpt lat="47.25215" lon="-1.65829">
        <ele>40.4</ele>
        <time>2013-09-08T10:13:56Z</time>
      </trkpt>
      <trkpt lat="47.2521" lon="-1.65814">
        <ele>41.3</ele>
        <time>2013-09-08T10:13:59Z</time>
      </trkpt>
      <trkpt lat="47.25204" lon="-1.65798">
        <ele>41.9</ele>
        <time>2013-09-08T10:14:02Z</time>
      </trkpt>
      <trkpt lat="47.25199" lon="-1.65785">
        <ele>41.8</ele>
        <time>2013-09-08T10:14:04Z</time>
      </trkpt>
      <trkpt lat="47.25194" lon="-1.6577">
        <ele>41.2</ele>
        <time>2013-09-08T10:14:06Z</time>
      </trkpt>
      <trkpt lat="47.25191" lon="-1.65757">
        <ele>39.8</ele>
        <time>2013-09-08T10:14:08Z</time>
      </trkpt>
      <trkpt lat="47.25186" lon="-1.65741">
        <ele>39.5</ele>
        <time>2013-09-08T10:14:11Z</time>
      </trkpt>
      <trkpt lat="47.25182" lon="-1.65726">
        <ele>39.1</ele>
        <time>2013-09-08T10:14:14Z</time>
      </trkpt>
      <trkpt lat="47.2518" lon="-1.65709">
        <ele>38.9</ele>
        <time>2013-09-08T10:14:18Z</time>
      </trkpt>
      <trkpt lat="47.25186" lon="-1.657">
        <ele>39</ele>
        <time>2013-09-08T10:14:21Z</time>
      </trkpt>
      <trkpt lat="47.25196" lon="-1.65696">
        <ele>39</ele>
        <time>2013-09-08T10:14:24Z</time>
      </trkpt>
      <trkpt lat="47.25206" lon="-1.65696">
        <ele>39</ele>
        <time>2013-09-08T10:14:26Z</time>
      </trkpt>
      <trkpt lat="47.25216" lon="-1.65697">
        <ele>38.4</ele>
        <time>2013-09-08T10:14:28Z</time>
      </trkpt>
      <trkpt lat="47.25226" lon="-1.65699">
        <ele>38.4</ele>
        <time>2013-09-08T10:14:30Z</time>
      </trkpt>
      <trkpt lat="47.2524" lon="-1.65702">
        <ele>39.8</ele>
        <time>2013-09-08T10:14:33Z</time>
      </trkpt>
      <trkpt lat="47.25252" lon="-1.65703">
        <ele>38.6</ele>
        <time>2013-09-08T10:14:36Z</time>
      </trkpt>
      <trkpt lat="47.25265" lon="-1.65705">
        <ele>38.5</ele>
        <time>2013-09-08T10:14:39Z</time>
      </trkpt>
      <trkpt lat="47.25277" lon="-1.65705">
        <ele>39.1</ele>
        <time>2013-09-08T10:14:41Z</time>
      </trkpt>
      <trkpt lat="47.25286" lon="-1.65705">
        <ele>39</ele>
        <time>2013-09-08T10:14:43Z</time>
      </trkpt>
      <trkpt lat="47.25299" lon="-1.65704">
        <ele>38.7</ele>
        <time>2013-09-08T10:14:46Z</time>
      </trkpt>
      <trkpt lat="47.25308" lon="-1.65703">
        <ele>38</ele>
        <time>2013-09-08T10:14:48Z</time>
      </trkpt>
      <trkpt lat="47.25318" lon="-1.65702">
        <ele>37.8</ele>
        <time>2013-09-08T10:14:50Z</time>
      </trkpt>
      <trkpt lat="47.2533" lon="-1.65699">
        <ele>37.4</ele>
        <time>2013-09-08T10:14:53Z</time>
      </trkpt>
      <trkpt lat="47.2534" lon="-1.65696">
        <ele>37.2</ele>
        <time>2013-09-08T10:14:56Z</time>
      </trkpt>
      <trkpt lat="47.25338" lon="-1.65673">
        <ele>37.3</ele>
        <time>2013-09-08T10:15:03Z</time>
      </trkpt>
      <trkpt lat="47.25337" lon="-1.65659">
        <ele>37.3</ele>
        <time>2013-09-08T10:15:06Z</time>
      </trkpt>
      <trkpt lat="47.25339" lon="-1.65643">
        <ele>37.4</ele>
        <time>2013-09-08T10:15:09Z</time>
      </trkpt>
      <trkpt lat="47.25342" lon="-1.65625">
        <ele>37.6</ele>
        <time>2013-09-08T10:15:12Z</time>
      </trkpt>
      <trkpt lat="47.25345" lon="-1.65607">
        <ele>37.6</ele>
        <time>2013-09-08T10:15:15Z</time>
      </trkpt>
      <trkpt lat="47.25347" lon="-1.6559">
        <ele>37.6</ele>
        <time>2013-09-08T10:15:18Z</time>
      </trkpt>
      <trkpt lat="47.25349" lon="-1.65573">
        <ele>37.7</ele>
        <time>2013-09-08T10:15:21Z</time>
      </trkpt>
      <trkpt lat="47.2535" lon="-1.65556">
        <ele>38</ele>
        <time>2013-09-08T10:15:24Z</time>
      </trkpt>
      <trkpt lat="47.25351" lon="-1.65542">
        <ele>38.5</ele>
        <time>2013-09-08T10:15:26Z</time>
      </trkpt>
      <trkpt lat="47.25352" lon="-1.65528">
        <ele>39.3</ele>
        <time>2013-09-08T10:15:28Z</time>
      </trkpt>
      <trkpt lat="47.25355" lon="-1.65514">
        <ele>39.6</ele>
        <time>2013-09-08T10:15:30Z</time>
      </trkpt>
      <trkpt lat="47.25356" lon="-1.65499">
        <ele>39.2</ele>
        <time>2013-09-08T10:15:32Z</time>
      </trkpt>
      <trkpt lat="47.25356" lon="-1.6548">
        <ele>39.4</ele>
        <time>2013-09-08T10:15:35Z</time>
      </trkpt>
      <trkpt lat="47.25357" lon="-1.65465">
        <ele>39.2</ele>
        <time>2013-09-08T10:15:38Z</time>
      </trkpt>
      <trkpt lat="47.2536" lon="-1.6545">
        <ele>39</ele>
        <time>2013-09-08T10:15:41Z</time>
      </trkpt>
      <trkpt lat="47.25364" lon="-1.65437">
        <ele>38.7</ele>
        <time>2013-09-08T10:15:44Z</time>
      </trkpt>
      <trkpt lat="47.25368" lon="-1.6542">
        <ele>38.5</ele>
        <time>2013-09-08T10:15:48Z</time>
      </trkpt>
      <trkpt lat="47.25371" lon="-1.65407">
        <ele>38.5</ele>
        <time>2013-09-08T10:15:51Z</time>
      </trkpt>
      <trkpt lat="47.25375" lon="-1.65393">
        <ele>38.9</ele>
        <time>2013-09-08T10:15:55Z</time>
      </trkpt>
      <trkpt lat="47.25379" lon="-1.65381">
        <ele>39.1</ele>
        <time>2013-09-08T10:15:59Z</time>
      </trkpt>
      <trkpt lat="47.25384" lon="-1.65368">
        <ele>39.7</ele>
        <time>2013-09-08T10:16:04Z</time>
      </trkpt>
      <trkpt lat="47.25389" lon="-1.65355">
        <ele>40.1</ele>
        <time>2013-09-08T10:16:08Z</time>
      </trkpt>
      <trkpt lat="47.25392" lon="-1.65343">
        <ele>41.1</ele>
        <time>2013-09-08T10:16:16Z</time>
      </trkpt>
      <trkpt lat="47.2539" lon="-1.65329">
        <ele>41.4</ele>
        <time>2013-09-08T10:16:26Z</time>
      </trkpt>
      <trkpt lat="47.25381" lon="-1.65323">
        <ele>42</ele>
        <time>2013-09-08T10:16:49Z</time>
      </trkpt>
      <trkpt lat="47.2537" lon="-1.6533">
        <ele>42.8</ele>
        <time>2013-09-08T10:16:56Z</time>
      </trkpt>
      <trkpt lat="47.25357" lon="-1.6533">
        <ele>42.8</ele>
        <time>2013-09-08T10:17:02Z</time>
      </trkpt>
      <trkpt lat="47.25347" lon="-1.65329">
        <ele>42.9</ele>
        <time>2013-09-08T10:17:04Z</time>
      </trkpt>
      <trkpt lat="47.25338" lon="-1.65326">
        <ele>42.9</ele>
        <time>2013-09-08T10:17:06Z</time>
      </trkpt>
      <trkpt lat="47.25329" lon="-1.65318">
        <ele>42.9</ele>
        <time>2013-09-08T10:17:09Z</time>
      </trkpt>
      <trkpt lat="47.25329" lon="-1.65304">
        <ele>43.1</ele>
        <time>2013-09-08T10:17:12Z</time>
      </trkpt>
      <trkpt lat="47.25327" lon="-1.6529">
        <ele>43.4</ele>
        <time>2013-09-08T10:17:15Z</time>
      </trkpt>
      <trkpt lat="47.25321" lon="-1.65279">
        <ele>43.7</ele>
        <time>2013-09-08T10:17:19Z</time>
      </trkpt>
      <trkpt lat="47.25312" lon="-1.65268">
        <ele>43.8</ele>
        <time>2013-09-08T10:17:22Z</time>
      </trkpt>
      <trkpt lat="47.25303" lon="-1.65257">
        <ele>43.9</ele>
        <time>2013-09-08T10:17:26Z</time>
      </trkpt>
      <trkpt lat="47.25295" lon="-1.65267">
        <ele>44.4</ele>
        <time>2013-09-08T10:17:33Z</time>
      </trkpt>
      <trkpt lat="47.25285" lon="-1.65273">
        <ele>43.6</ele>
        <time>2013-09-08T10:17:50Z</time>
      </trkpt>
      <trkpt lat="47.25278" lon="-1.65284">
        <ele>43.3</ele>
        <time>2013-09-08T10:17:54Z</time>
      </trkpt>
      <trkpt lat="47.25269" lon="-1.65291">
        <ele>43.1</ele>
        <time>2013-09-08T10:17:57Z</time>
      </trkpt>
      <trkpt lat="47.2526" lon="-1.65294">
        <ele>43.1</ele>
        <time>2013-09-08T10:17:59Z</time>
      </trkpt>
      <trkpt lat="47.25251" lon="-1.65297">
        <ele>43.2</ele>
        <time>2013-09-08T10:18:02Z</time>
      </trkpt>
      <trkpt lat="47.25241" lon="-1.65301">
        <ele>43</ele>
        <time>2013-09-08T10:18:05Z</time>
      </trkpt>
      <trkpt lat="47.25231" lon="-1.65305">
        <ele>42.8</ele>
        <time>2013-09-08T10:18:08Z</time>
      </trkpt>
      <trkpt lat="47.25221" lon="-1.65315">
        <ele>42.7</ele>
        <time>2013-09-08T10:18:11Z</time>
      </trkpt>
      <trkpt lat="47.25212" lon="-1.65329">
        <ele>42.2</ele>
        <time>2013-09-08T10:18:14Z</time>
      </trkpt>
      <trkpt lat="47.25203" lon="-1.6534">
        <ele>42.1</ele>
        <time>2013-09-08T10:18:17Z</time>
      </trkpt>
      <trkpt lat="47.25194" lon="-1.65336">
        <ele>41.7</ele>
        <time>2013-09-08T10:18:20Z</time>
      </trkpt>
      <trkpt lat="47.25187" lon="-1.65328">
        <ele>41.4</ele>
        <time>2013-09-08T10:18:23Z</time>
      </trkpt>
      <trkpt lat="47.25178" lon="-1.65317">
        <ele>40.8</ele>
        <time>2013-09-08T10:18:26Z</time>
      </trkpt>
      <trkpt lat="47.25169" lon="-1.65312">
        <ele>40.3</ele>
        <time>2013-09-08T10:18:29Z</time>
      </trkpt>
      <trkpt lat="47.2516" lon="-1.65313">
        <ele>39.3</ele>
        <time>2013-09-08T10:18:39Z</time>
      </trkpt>
      <trkpt lat="47.2515" lon="-1.65309">
        <ele>37.3</ele>
        <time>2013-09-08T10:19:00Z</time>
      </trkpt>
      <trkpt lat="47.25156" lon="-1.65297">
        <ele>37.7</ele>
        <time>2013-09-08T10:20:35Z</time>
      </trkpt>
      <trkpt lat="47.25158" lon="-1.65283">
        <ele>37.1</ele>
        <time>2013-09-08T10:20:42Z</time>
      </trkpt>
      <trkpt lat="47.2516" lon="-1.65267">
        <ele>36.9</ele>
        <time>2013-09-08T10:20:48Z</time>
      </trkpt>
      <trkpt lat="47.2516" lon="-1.65251">
        <ele>36.8</ele>
        <time>2013-09-08T10:20:51Z</time>
      </trkpt>
      <trkpt lat="47.25157" lon="-1.65235">
        <ele>36.8</ele>
        <time>2013-09-08T10:20:55Z</time>
      </trkpt>
      <trkpt lat="47.25153" lon="-1.65221">
        <ele>36.9</ele>
        <time>2013-09-08T10:20:59Z</time>
      </trkpt>
      <trkpt lat="47.25152" lon="-1.65205">
        <ele>37</ele>
        <time>2013-09-08T10:21:03Z</time>
      </trkpt>
      <trkpt lat="47.25156" lon="-1.65192">
        <ele>37.4</ele>
        <time>2013-09-08T10:21:07Z</time>
      </trkpt>
      <trkpt lat="47.25162" lon="-1.65179">
        <ele>37.8</ele>
        <time>2013-09-08T10:21:13Z</time>
      </trkpt>
      <trkpt lat="47.25166" lon="-1.65167">
        <ele>37.9</ele>
        <time>2013-09-08T10:21:17Z</time>
      </trkpt>
      <trkpt lat="47.25171" lon="-1.65153">
        <ele>38</ele>
        <time>2013-09-08T10:21:21Z</time>
      </trkpt>
      <trkpt lat="47.25177" lon="-1.65141">
        <ele>38.3</ele>
        <time>2013-09-08T10:21:25Z</time>
      </trkpt>
      <trkpt lat="47.25182" lon="-1.65127">
        <ele>38.5</ele>
        <time>2013-09-08T10:21:28Z</time>
      </trkpt>
      <trkpt lat="47.25181" lon="-1.65114">
        <ele>38.8</ele>
        <time>2013-09-08T10:21:31Z</time>
      </trkpt>
      <trkpt lat="47.25181" lon="-1.65099">
        <ele>39.2</ele>
        <time>2013-09-08T10:21:34Z</time>
      </trkpt>
      <trkpt lat="47.2518" lon="-1.65084">
        <ele>39.4</ele>
        <time>2013-09-08T10:21:37Z</time>
      </trkpt>
      <trkpt lat="47.25179" lon="-1.65069">
        <ele>39.7</ele>
        <time>2013-09-08T10:21:40Z</time>
      </trkpt>
      <trkpt lat="47.25178" lon="-1.65056">
        <ele>39.8</ele>
        <time>2013-09-08T10:21:43Z</time>
      </trkpt>
      <trkpt lat="47.25177" lon="-1.65043">
        <ele>40</ele>
        <time>2013-09-08T10:21:46Z</time>
      </trkpt>
      <trkpt lat="47.25176" lon="-1.65029">
        <ele>40.1</ele>
        <time>2013-09-08T10:21:48Z</time>
      </trkpt>
      <trkpt lat="47.25175" lon="-1.65015">
        <ele>40.3</ele>
        <time>2013-09-08T10:21:50Z</time>
      </trkpt>
      <trkpt lat="47.25174" lon="-1.64999">
        <ele>40.7</ele>
        <time>2013-09-08T10:21:52Z</time>
      </trkpt>
      <trkpt lat="47.25174" lon="-1.64985">
        <ele>41</ele>
        <time>2013-09-08T10:21:54Z</time>
      </trkpt>
      <trkpt lat="47.25174" lon="-1.6497">
        <ele>41.7</ele>
        <time>2013-09-08T10:21:57Z</time>
      </trkpt>
      <trkpt lat="47.25175" lon="-1.64956">
        <ele>42.2</ele>
        <time>2013-09-08T10:22:00Z</time>
      </trkpt>
      <trkpt lat="47.25172" lon="-1.64939">
        <ele>42.6</ele>
        <time>2013-09-08T10:22:04Z</time>
      </trkpt>
      <trkpt lat="47.25168" lon="-1.64921">
        <ele>42.7</ele>
        <time>2013-09-08T10:22:07Z</time>
      </trkpt>
      <trkpt lat="47.25163" lon="-1.64905">
        <ele>42.5</ele>
        <time>2013-09-08T10:22:10Z</time>
      </trkpt>
      <trkpt lat="47.25158" lon="-1.64888">
        <ele>42.3</ele>
        <time>2013-09-08T10:22:13Z</time>
      </trkpt>
      <trkpt lat="47.25154" lon="-1.64876">
        <ele>42.1</ele>
        <time>2013-09-08T10:22:15Z</time>
      </trkpt>
      <trkpt lat="47.25145" lon="-1.64866">
        <ele>41.7</ele>
        <time>2013-09-08T10:22:18Z</time>
      </trkpt>
      <trkpt lat="47.25137" lon="-1.64861">
        <ele>41.4</ele>
        <time>2013-09-08T10:22:21Z</time>
      </trkpt>
      <trkpt lat="47.25128" lon="-1.64856">
        <ele>41.2</ele>
        <time>2013-09-08T10:22:24Z</time>
      </trkpt>
      <trkpt lat="47.25117" lon="-1.64849">
        <ele>40.9</ele>
        <time>2013-09-08T10:22:27Z</time>
      </trkpt>
      <trkpt lat="47.25105" lon="-1.64841">
        <ele>40.7</ele>
        <time>2013-09-08T10:22:30Z</time>
      </trkpt>
      <trkpt lat="47.25094" lon="-1.64831">
        <ele>40.6</ele>
        <time>2013-09-08T10:22:33Z</time>
      </trkpt>
      <trkpt lat="47.25084" lon="-1.64822">
        <ele>40.4</ele>
        <time>2013-09-08T10:22:36Z</time>
      </trkpt>
      <trkpt lat="47.25078" lon="-1.6481">
        <ele>40.5</ele>
        <time>2013-09-08T10:22:40Z</time>
      </trkpt>
      <trkpt lat="47.25082" lon="-1.64797">
        <ele>40.6</ele>
        <time>2013-09-08T10:22:44Z</time>
      </trkpt>
      <trkpt lat="47.25084" lon="-1.64782">
        <ele>40.5</ele>
        <time>2013-09-08T10:22:48Z</time>
      </trkpt>
      <trkpt lat="47.25086" lon="-1.64766">
        <ele>40.3</ele>
        <time>2013-09-08T10:22:52Z</time>
      </trkpt>
      <trkpt lat="47.25087" lon="-1.64751">
        <ele>40.3</ele>
        <time>2013-09-08T10:22:55Z</time>
      </trkpt>
      <trkpt lat="47.25089" lon="-1.64737">
        <ele>40.3</ele>
        <time>2013-09-08T10:22:58Z</time>
      </trkpt>
      <trkpt lat="47.2509" lon="-1.64722">
        <ele>40.4</ele>
        <time>2013-09-08T10:23:01Z</time>
      </trkpt>
      <trkpt lat="47.25091" lon="-1.64708">
        <ele>40.3</ele>
        <time>2013-09-08T10:23:04Z</time>
      </trkpt>
      <trkpt lat="47.25093" lon="-1.64692">
        <ele>40.4</ele>
        <time>2013-09-08T10:23:08Z</time>
      </trkpt>
      <trkpt lat="47.25094" lon="-1.64678">
        <ele>40.6</ele>
        <time>2013-09-08T10:23:12Z</time>
      </trkpt>
      <trkpt lat="47.25096" lon="-1.64663">
        <ele>40.8</ele>
        <time>2013-09-08T10:23:16Z</time>
      </trkpt>
      <trkpt lat="47.25095" lon="-1.64646">
        <ele>41</ele>
        <time>2013-09-08T10:23:20Z</time>
      </trkpt>
      <trkpt lat="47.25094" lon="-1.64629">
        <ele>41.2</ele>
        <time>2013-09-08T10:23:24Z</time>
      </trkpt>
      <trkpt lat="47.25094" lon="-1.64611">
        <ele>41.2</ele>
        <time>2013-09-08T10:23:27Z</time>
      </trkpt>
      <trkpt lat="47.25094" lon="-1.64595">
        <ele>41.4</ele>
        <time>2013-09-08T10:23:30Z</time>
      </trkpt>
      <trkpt lat="47.25095" lon="-1.64577">
        <ele>41.7</ele>
        <time>2013-09-08T10:23:33Z</time>
      </trkpt>
      <trkpt lat="47.25096" lon="-1.64563">
        <ele>41.8</ele>
        <time>2013-09-08T10:23:35Z</time>
      </trkpt>
      <trkpt lat="47.25096" lon="-1.64549">
        <ele>41.9</ele>
        <time>2013-09-08T10:23:38Z</time>
      </trkpt>
      <trkpt lat="47.25094" lon="-1.64533">
        <ele>42</ele>
        <time>2013-09-08T10:23:42Z</time>
      </trkpt>
      <trkpt lat="47.25084" lon="-1.64529">
        <ele>42.1</ele>
        <time>2013-09-08T10:23:47Z</time>
      </trkpt>
      <trkpt lat="47.25073" lon="-1.64541">
        <ele>43.1</ele>
        <time>2013-09-08T10:23:50Z</time>
      </trkpt>
      <trkpt lat="47.25066" lon="-1.6455">
        <ele>43.5</ele>
        <time>2013-09-08T10:23:52Z</time>
      </trkpt>
      <trkpt lat="47.25056" lon="-1.6456">
        <ele>44</ele>
        <time>2013-09-08T10:23:54Z</time>
      </trkpt>
      <trkpt lat="47.25046" lon="-1.64571">
        <ele>42.8</ele>
        <time>2013-09-08T10:23:56Z</time>
      </trkpt>
      <trkpt lat="47.25037" lon="-1.64582">
        <ele>41.9</ele>
        <time>2013-09-08T10:23:58Z</time>
      </trkpt>
      <trkpt lat="47.25028" lon="-1.64589">
        <ele>40.8</ele>
        <time>2013-09-08T10:24:00Z</time>
      </trkpt>
      <trkpt lat="47.25019" lon="-1.64584">
        <ele>40</ele>
        <time>2013-09-08T10:24:02Z</time>
      </trkpt>
      <trkpt lat="47.25012" lon="-1.64571">
        <ele>39.9</ele>
        <time>2013-09-08T10:24:05Z</time>
      </trkpt>
      <trkpt lat="47.25007" lon="-1.6456">
        <ele>39.9</ele>
        <time>2013-09-08T10:24:07Z</time>
      </trkpt>
      <trkpt lat="47.25002" lon="-1.64543">
        <ele>40.2</ele>
        <time>2013-09-08T10:24:10Z</time>
      </trkpt>
      <trkpt lat="47.24998" lon="-1.64526">
        <ele>40.4</ele>
        <time>2013-09-08T10:24:13Z</time>
      </trkpt>
      <trkpt lat="47.24995" lon="-1.64511">
        <ele>40.4</ele>
        <time>2013-09-08T10:24:16Z</time>
      </trkpt>
      <trkpt lat="47.24991" lon="-1.64498">
        <ele>40.2</ele>
        <time>2013-09-08T10:24:19Z</time>
      </trkpt>
      <trkpt lat="47.24987" lon="-1.64481">
        <ele>40.3</ele>
        <time>2013-09-08T10:24:22Z</time>
      </trkpt>
      <trkpt lat="47.24982" lon="-1.64466">
        <ele>40.6</ele>
        <time>2013-09-08T10:24:25Z</time>
      </trkpt>
      <trkpt lat="47.24978" lon="-1.6445">
        <ele>40.8</ele>
        <time>2013-09-08T10:24:28Z</time>
      </trkpt>
      <trkpt lat="47.24973" lon="-1.64434">
        <ele>41.1</ele>
        <time>2013-09-08T10:24:31Z</time>
      </trkpt>
      <trkpt lat="47.24968" lon="-1.64417">
        <ele>41.3</ele>
        <time>2013-09-08T10:24:34Z</time>
      </trkpt>
      <trkpt lat="47.24964" lon="-1.64401">
        <ele>41.5</ele>
        <time>2013-09-08T10:24:37Z</time>
      </trkpt>
      <trkpt lat="47.24959" lon="-1.64385">
        <ele>41.7</ele>
        <time>2013-09-08T10:24:40Z</time>
      </trkpt>
      <trkpt lat="47.24954" lon="-1.64367">
        <ele>41.7</ele>
        <time>2013-09-08T10:24:43Z</time>
      </trkpt>
      <trkpt lat="47.2495" lon="-1.64353">
        <ele>41.4</ele>
        <time>2013-09-08T10:24:46Z</time>
      </trkpt>
      <trkpt lat="47.24948" lon="-1.64339">
        <ele>40.2</ele>
        <time>2013-09-08T10:24:48Z</time>
      </trkpt>
      <trkpt lat="47.24944" lon="-1.6432">
        <ele>40.6</ele>
        <time>2013-09-08T10:24:51Z</time>
      </trkpt>
      <trkpt lat="47.2494" lon="-1.64305">
        <ele>40.5</ele>
        <time>2013-09-08T10:24:54Z</time>
      </trkpt>
      <trkpt lat="47.24936" lon="-1.64291">
        <ele>40.3</ele>
        <time>2013-09-08T10:24:57Z</time>
      </trkpt>
      <trkpt lat="47.24931" lon="-1.64276">
        <ele>40.3</ele>
        <time>2013-09-08T10:25:00Z</time>
      </trkpt>
      <trkpt lat="47.24928" lon="-1.64263">
        <ele>40.3</ele>
        <time>2013-09-08T10:25:03Z</time>
      </trkpt>
      <trkpt lat="47.24925" lon="-1.64249">
        <ele>40.5</ele>
        <time>2013-09-08T10:25:06Z</time>
      </trkpt>
      <trkpt lat="47.24918" lon="-1.6424">
        <ele>41.4</ele>
        <time>2013-09-08T10:25:08Z</time>
      </trkpt>
      <trkpt lat="47.24908" lon="-1.64235">
        <ele>42.2</ele>
        <time>2013-09-08T10:25:10Z</time>
      </trkpt>
      <trkpt lat="47.24899" lon="-1.6423">
        <ele>41.8</ele>
        <time>2013-09-08T10:25:12Z</time>
      </trkpt>
      <trkpt lat="47.24887" lon="-1.64223">
        <ele>41.6</ele>
        <time>2013-09-08T10:25:15Z</time>
      </trkpt>
      <trkpt lat="47.24874" lon="-1.64222">
        <ele>42.1</ele>
        <time>2013-09-08T10:25:18Z</time>
      </trkpt>
      <trkpt lat="47.24865" lon="-1.6422">
        <ele>42.6</ele>
        <time>2013-09-08T10:25:20Z</time>
      </trkpt>
      <trkpt lat="47.24854" lon="-1.64219">
        <ele>41.6</ele>
        <time>2013-09-08T10:25:23Z</time>
      </trkpt>
      <trkpt lat="47.24843" lon="-1.64217">
        <ele>41</ele>
        <time>2013-09-08T10:25:26Z</time>
      </trkpt>
      <trkpt lat="47.24832" lon="-1.64214">
        <ele>40.6</ele>
        <time>2013-09-08T10:25:30Z</time>
      </trkpt>
      <trkpt lat="47.2482" lon="-1.64209">
        <ele>40.6</ele>
        <time>2013-09-08T10:25:34Z</time>
      </trkpt>
      <trkpt lat="47.24812" lon="-1.64199">
        <ele>40</ele>
        <time>2013-09-08T10:25:37Z</time>
      </trkpt>
      <trkpt lat="47.24807" lon="-1.64185">
        <ele>38.8</ele>
        <time>2013-09-08T10:25:39Z</time>
      </trkpt>
      <trkpt lat="47.24806" lon="-1.64166">
        <ele>36.3</ele>
        <time>2013-09-08T10:25:41Z</time>
      </trkpt>
      <trkpt lat="47.24804" lon="-1.64147">
        <ele>33</ele>
        <time>2013-09-08T10:25:43Z</time>
      </trkpt>
      <trkpt lat="47.24801" lon="-1.64133">
        <ele>32.2</ele>
        <time>2013-09-08T10:25:48Z</time>
      </trkpt>
      <trkpt lat="47.24795" lon="-1.64123">
        <ele>31.6</ele>
        <time>2013-09-08T10:25:51Z</time>
      </trkpt>
      <trkpt lat="47.24787" lon="-1.64109">
        <ele>29.5</ele>
        <time>2013-09-08T10:25:54Z</time>
      </trkpt>
      <trkpt lat="47.24781" lon="-1.64098">
        <ele>29</ele>
        <time>2013-09-08T10:25:56Z</time>
      </trkpt>
      <trkpt lat="47.24774" lon="-1.64088">
        <ele>29.2</ele>
        <time>2013-09-08T10:25:58Z</time>
      </trkpt>
      <trkpt lat="47.24765" lon="-1.64075">
        <ele>29.4</ele>
        <time>2013-09-08T10:26:01Z</time>
      </trkpt>
      <trkpt lat="47.24756" lon="-1.6406">
        <ele>30.1</ele>
        <time>2013-09-08T10:26:04Z</time>
      </trkpt>
      <trkpt lat="47.24748" lon="-1.64045">
        <ele>31</ele>
        <time>2013-09-08T10:26:07Z</time>
      </trkpt>
      <trkpt lat="47.24742" lon="-1.64034">
        <ele>30.9</ele>
        <time>2013-09-08T10:26:09Z</time>
      </trkpt>
      <trkpt lat="47.24736" lon="-1.64045">
        <ele>30</ele>
        <time>2013-09-08T10:26:48Z</time>
      </trkpt>
      <trkpt lat="47.24741" lon="-1.6403">
        <ele>28.7</ele>
        <time>2013-09-08T10:27:59Z</time>
      </trkpt>
      <trkpt lat="47.24732" lon="-1.64023">
        <ele>28.3</ele>
        <time>2013-09-08T10:28:31Z</time>
      </trkpt>
      <trkpt lat="47.2473" lon="-1.64036">
        <ele>27.9</ele>
        <time>2013-09-08T10:28:51Z</time>
      </trkpt>
      <trkpt lat="47.24726" lon="-1.64023">
        <ele>26.9</ele>
        <time>2013-09-08T10:29:07Z</time>
      </trkpt>
      <trkpt lat="47.24727" lon="-1.64009">
        <ele>26.2</ele>
        <time>2013-09-08T10:30:03Z</time>
      </trkpt>
      <trkpt lat="47.24726" lon="-1.63996">
        <ele>27.7</ele>
        <time>2013-09-08T10:30:16Z</time>
      </trkpt>
      <trkpt lat="47.24728" lon="-1.6401">
        <ele>31.6</ele>
        <time>2013-09-08T10:31:48Z</time>
      </trkpt>
      <trkpt lat="47.24724" lon="-1.64022">
        <ele>30.2</ele>
        <time>2013-09-08T10:32:05Z</time>
      </trkpt>
      <trkpt lat="47.24723" lon="-1.64006">
        <ele>29.6</ele>
        <time>2013-09-08T10:32:46Z</time>
      </trkpt>
      <trkpt lat="47.24716" lon="-1.63993">
        <ele>29.6</ele>
        <time>2013-09-08T10:32:50Z</time>
      </trkpt>
      <trkpt lat="47.24709" lon="-1.63981">
        <ele>29.8</ele>
        <time>2013-09-08T10:32:53Z</time>
      </trkpt>
      <trkpt lat="47.24702" lon="-1.63969">
        <ele>29.7</ele>
        <time>2013-09-08T10:32:56Z</time>
      </trkpt>
      <trkpt lat="47.24695" lon="-1.63959">
        <ele>29.3</ele>
        <time>2013-09-08T10:33:01Z</time>
      </trkpt>
      <trkpt lat="47.24686" lon="-1.6395">
        <ele>29.1</ele>
        <time>2013-09-08T10:33:05Z</time>
      </trkpt>
      <trkpt lat="47.24678" lon="-1.63943">
        <ele>29.1</ele>
        <time>2013-09-08T10:33:09Z</time>
      </trkpt>
      <trkpt lat="47.24668" lon="-1.63934">
        <ele>29.1</ele>
        <time>2013-09-08T10:33:13Z</time>
      </trkpt>
      <trkpt lat="47.24659" lon="-1.63927">
        <ele>28.9</ele>
        <time>2013-09-08T10:33:16Z</time>
      </trkpt>
      <trkpt lat="47.24652" lon="-1.6392">
        <ele>28.7</ele>
        <time>2013-09-08T10:33:19Z</time>
      </trkpt>
      <trkpt lat="47.24645" lon="-1.6391">
        <ele>29</ele>
        <time>2013-09-08T10:33:23Z</time>
      </trkpt>
      <trkpt lat="47.24637" lon="-1.63902">
        <ele>28.9</ele>
        <time>2013-09-08T10:33:26Z</time>
      </trkpt>
      <trkpt lat="47.24629" lon="-1.63894">
        <ele>28.6</ele>
        <time>2013-09-08T10:33:29Z</time>
      </trkpt>
      <trkpt lat="47.24619" lon="-1.63882">
        <ele>28.6</ele>
        <time>2013-09-08T10:33:32Z</time>
      </trkpt>
      <trkpt lat="47.24613" lon="-1.6387">
        <ele>28.4</ele>
        <time>2013-09-08T10:33:36Z</time>
      </trkpt>
      <trkpt lat="47.2461" lon="-1.63856">
        <ele>28.3</ele>
        <time>2013-09-08T10:33:42Z</time>
      </trkpt>
      <trkpt lat="47.24616" lon="-1.63846">
        <ele>28.2</ele>
        <time>2013-09-08T10:34:01Z</time>
      </trkpt>
      <trkpt lat="47.24609" lon="-1.63836">
        <ele>28.4</ele>
        <time>2013-09-08T10:34:31Z</time>
      </trkpt>
      <trkpt lat="47.24605" lon="-1.63823">
        <ele>28.5</ele>
        <time>2013-09-08T10:34:37Z</time>
      </trkpt>
      <trkpt lat="47.24601" lon="-1.63812">
        <ele>28.6</ele>
        <time>2013-09-08T10:34:42Z</time>
      </trkpt>
      <trkpt lat="47.24597" lon="-1.63799">
        <ele>29</ele>
        <time>2013-09-08T10:34:47Z</time>
      </trkpt>
      <trkpt lat="47.24592" lon="-1.63787">
        <ele>29.5</ele>
        <time>2013-09-08T10:34:52Z</time>
      </trkpt>
      <trkpt lat="47.24581" lon="-1.63787">
        <ele>30</ele>
        <time>2013-09-08T10:34:57Z</time>
      </trkpt>
      <trkpt lat="47.24574" lon="-1.63796">
        <ele>30.3</ele>
        <time>2013-09-08T10:35:00Z</time>
      </trkpt>
      <trkpt lat="47.24566" lon="-1.63809">
        <ele>30.5</ele>
        <time>2013-09-08T10:35:03Z</time>
      </trkpt>
      <trkpt lat="47.24557" lon="-1.6382">
        <ele>30.7</ele>
        <time>2013-09-08T10:35:06Z</time>
      </trkpt>
      <trkpt lat="47.24549" lon="-1.63827">
        <ele>30.5</ele>
        <time>2013-09-08T10:35:27Z</time>
      </trkpt>
      <trkpt lat="47.24547" lon="-1.63844">
        <ele>30.1</ele>
        <time>2013-09-08T10:35:32Z</time>
      </trkpt>
      <trkpt lat="47.24541" lon="-1.63859">
        <ele>29</ele>
        <time>2013-09-08T10:35:35Z</time>
      </trkpt>
      <trkpt lat="47.24535" lon="-1.63873">
        <ele>28.9</ele>
        <time>2013-09-08T10:35:38Z</time>
      </trkpt>
      <trkpt lat="47.24529" lon="-1.63885">
        <ele>28.7</ele>
        <time>2013-09-08T10:35:41Z</time>
      </trkpt>
      <trkpt lat="47.24523" lon="-1.63895">
        <ele>28.4</ele>
        <time>2013-09-08T10:35:44Z</time>
      </trkpt>
      <trkpt lat="47.24513" lon="-1.63902">
        <ele>27.9</ele>
        <time>2013-09-08T10:35:48Z</time>
      </trkpt>
      <trkpt lat="47.24504" lon="-1.63907">
        <ele>27.4</ele>
        <time>2013-09-08T10:35:52Z</time>
      </trkpt>
      <trkpt lat="47.24496" lon="-1.63913">
        <ele>25.5</ele>
        <time>2013-09-08T10:36:14Z</time>
      </trkpt>
      <trkpt lat="47.24487" lon="-1.63907">
        <ele>18.8</ele>
        <time>2013-09-08T10:36:56Z</time>
      </trkpt>
      <trkpt lat="47.24479" lon="-1.63899">
        <ele>18.9</ele>
        <time>2013-09-08T10:37:03Z</time>
      </trkpt>
      <trkpt lat="47.24473" lon="-1.63889">
        <ele>19.1</ele>
        <time>2013-09-08T10:37:08Z</time>
      </trkpt>
      <trkpt lat="47.24464" lon="-1.63892">
        <ele>22</ele>
        <time>2013-09-08T10:37:58Z</time>
      </trkpt>
      <trkpt lat="47.24455" lon="-1.63897">
        <ele>24</ele>
        <time>2013-09-08T10:38:29Z</time>
      </trkpt>
      <trkpt lat="47.24446" lon="-1.63901">
        <ele>25</ele>
        <time>2013-09-08T10:38:53Z</time>
      </trkpt>
      <trkpt lat="47.24438" lon="-1.63896">
        <ele>26.2</ele>
        <time>2013-09-08T10:39:03Z</time>
      </trkpt>
      <trkpt lat="47.24431" lon="-1.63884">
        <ele>26.3</ele>
        <time>2013-09-08T10:39:11Z</time>
      </trkpt>
      <trkpt lat="47.24426" lon="-1.6387">
        <ele>25.9</ele>
        <time>2013-09-08T10:39:17Z</time>
      </trkpt>
      <trkpt lat="47.24422" lon="-1.63857">
        <ele>24.5</ele>
        <time>2013-09-08T10:39:23Z</time>
      </trkpt>
      <trkpt lat="47.24419" lon="-1.63844">
        <ele>23</ele>
        <time>2013-09-08T10:39:29Z</time>
      </trkpt>
      <trkpt lat="47.24423" lon="-1.63831">
        <ele>21</ele>
        <time>2013-09-08T10:39:42Z</time>
      </trkpt>
      <trkpt lat="47.24425" lon="-1.63817">
        <ele>19.6</ele>
        <time>2013-09-08T10:39:51Z</time>
      </trkpt>
      <trkpt lat="47.24416" lon="-1.63814">
        <ele>18.5</ele>
        <time>2013-09-08T10:39:59Z</time>
      </trkpt>
      <trkpt lat="47.24407" lon="-1.63817">
        <ele>19.4</ele>
        <time>2013-09-08T10:40:11Z</time>
      </trkpt>
      <trkpt lat="47.24402" lon="-1.63829">
        <ele>19</ele>
        <time>2013-09-08T10:40:34Z</time>
      </trkpt>
      <trkpt lat="47.24393" lon="-1.6383">
        <ele>19.5</ele>
        <time>2013-09-08T10:40:59Z</time>
      </trkpt>
      <trkpt lat="47.24399" lon="-1.63818">
        <ele>15.6</ele>
        <time>2013-09-08T10:41:57Z</time>
      </trkpt>
      <trkpt lat="47.2439" lon="-1.63816">
        <ele>15.9</ele>
        <time>2013-09-08T10:42:12Z</time>
      </trkpt>
      <trkpt lat="47.24391" lon="-1.63829">
        <ele>16.2</ele>
        <time>2013-09-08T10:42:27Z</time>
      </trkpt>
      <trkpt lat="47.24398" lon="-1.63836">
        <ele>17.7</ele>
        <time>2013-09-08T10:42:46Z</time>
      </trkpt>
      <trkpt lat="47.24391" lon="-1.63828">
        <ele>23.4</ele>
        <time>2013-09-08T10:45:47Z</time>
      </trkpt>
      <trkpt lat="47.24396" lon="-1.63839">
        <ele>18.9</ele>
        <time>2013-09-08T10:46:48Z</time>
      </trkpt>
      <trkpt lat="47.24402" lon="-1.63828">
        <ele>18.1</ele>
        <time>2013-09-08T10:47:15Z</time>
      </trkpt>
      <trkpt lat="47.24393" lon="-1.63823">
        <ele>16.7</ele>
        <time>2013-09-08T10:47:59Z</time>
      </trkpt>
      <trkpt lat="47.24385" lon="-1.6383">
        <ele>16.6</ele>
        <time>2013-09-08T10:48:04Z</time>
      </trkpt>
      <trkpt lat="47.24392" lon="-1.63821">
        <ele>15.2</ele>
        <time>2013-09-08T10:48:49Z</time>
      </trkpt>
      <trkpt lat="47.24396" lon="-1.63809">
        <ele>15</ele>
        <time>2013-09-08T10:48:56Z</time>
      </trkpt>
      <trkpt lat="47.244" lon="-1.63795">
        <ele>16.2</ele>
        <time>2013-09-08T10:49:03Z</time>
      </trkpt>
      <trkpt lat="47.24406" lon="-1.63784">
        <ele>16.5</ele>
        <time>2013-09-08T10:49:09Z</time>
      </trkpt>
      <trkpt lat="47.2441" lon="-1.63772">
        <ele>17.3</ele>
        <time>2013-09-08T10:49:16Z</time>
      </trkpt>
      <trkpt lat="47.24414" lon="-1.63759">
        <ele>18.4</ele>
        <time>2013-09-08T10:49:23Z</time>
      </trkpt>
      <trkpt lat="47.24415" lon="-1.63745">
        <ele>19.7</ele>
        <time>2013-09-08T10:49:30Z</time>
      </trkpt>
      <trkpt lat="47.24406" lon="-1.63741">
        <ele>21.4</ele>
        <time>2013-09-08T10:49:37Z</time>
      </trkpt>
      <trkpt lat="47.244" lon="-1.63757">
        <ele>22.4</ele>
        <time>2013-09-08T10:49:42Z</time>
      </trkpt>
      <trkpt lat="47.24395" lon="-1.63772">
        <ele>22.7</ele>
        <time>2013-09-08T10:49:46Z</time>
      </trkpt>
      <trkpt lat="47.24393" lon="-1.63788">
        <ele>22.8</ele>
        <time>2013-09-08T10:49:50Z</time>
      </trkpt>
      <trkpt lat="47.24391" lon="-1.63804">
        <ele>22.6</ele>
        <time>2013-09-08T10:49:54Z</time>
      </trkpt>
      <trkpt lat="47.24386" lon="-1.63816">
        <ele>20.9</ele>
        <time>2013-09-08T10:50:07Z</time>
      </trkpt>
      <trkpt lat="47.24382" lon="-1.63828">
        <ele>20.2</ele>
        <time>2013-09-08T10:51:04Z</time>
      </trkpt>
      <trkpt lat="47.24377" lon="-1.63842">
        <ele>19.6</ele>
        <time>2013-09-08T10:51:12Z</time>
      </trkpt>
      <trkpt lat="47.24374" lon="-1.63855">
        <ele>19</ele>
        <time>2013-09-08T10:51:18Z</time>
      </trkpt>
      <trkpt lat="47.24372" lon="-1.63869">
        <ele>18.5</ele>
        <time>2013-09-08T10:51:25Z</time>
      </trkpt>
      <trkpt lat="47.24369" lon="-1.63883">
        <ele>17.9</ele>
        <time>2013-09-08T10:51:31Z</time>
      </trkpt>
      <trkpt lat="47.24361" lon="-1.63893">
        <ele>18.1</ele>
        <time>2013-09-08T10:51:39Z</time>
      </trkpt>
      <trkpt lat="47.24353" lon="-1.63904">
        <ele>18.5</ele>
        <time>2013-09-08T10:51:44Z</time>
      </trkpt>
      <trkpt lat="47.24346" lon="-1.63915">
        <ele>18.9</ele>
        <time>2013-09-08T10:51:49Z</time>
      </trkpt>
      <trkpt lat="47.2434" lon="-1.63925">
        <ele>19.1</ele>
        <time>2013-09-08T10:51:53Z</time>
      </trkpt>
      <trkpt lat="47.24332" lon="-1.63934">
        <ele>19.4</ele>
        <time>2013-09-08T10:51:57Z</time>
      </trkpt>
      <trkpt lat="47.24325" lon="-1.63944">
        <ele>19.8</ele>
        <time>2013-09-08T10:52:01Z</time>
      </trkpt>
      <trkpt lat="47.24318" lon="-1.63954">
        <ele>20</ele>
        <time>2013-09-08T10:52:05Z</time>
      </trkpt>
      <trkpt lat="47.2431" lon="-1.63962">
        <ele>20.6</ele>
        <time>2013-09-08T10:52:10Z</time>
      </trkpt>
      <trkpt lat="47.24301" lon="-1.63965">
        <ele>21.2</ele>
        <time>2013-09-08T10:52:14Z</time>
      </trkpt>
      <trkpt lat="47.24291" lon="-1.6396">
        <ele>21.7</ele>
        <time>2013-09-08T10:52:19Z</time>
      </trkpt>
      <trkpt lat="47.24285" lon="-1.63951">
        <ele>22</ele>
        <time>2013-09-08T10:52:23Z</time>
      </trkpt>
      <trkpt lat="47.24278" lon="-1.63938">
        <ele>22.3</ele>
        <time>2013-09-08T10:52:28Z</time>
      </trkpt>
      <trkpt lat="47.24271" lon="-1.63921">
        <ele>22.4</ele>
        <time>2013-09-08T10:52:32Z</time>
      </trkpt>
      <trkpt lat="47.24266" lon="-1.63907">
        <ele>22.5</ele>
        <time>2013-09-08T10:52:35Z</time>
      </trkpt>
      <trkpt lat="47.24261" lon="-1.63895">
        <ele>22.5</ele>
        <time>2013-09-08T10:52:39Z</time>
      </trkpt>
      <trkpt lat="47.24255" lon="-1.63881">
        <ele>22.7</ele>
        <time>2013-09-08T10:52:43Z</time>
      </trkpt>
      <trkpt lat="47.2425" lon="-1.63869">
        <ele>22.8</ele>
        <time>2013-09-08T10:52:46Z</time>
      </trkpt>
      <trkpt lat="47.24245" lon="-1.63856">
        <ele>22.8</ele>
        <time>2013-09-08T10:52:49Z</time>
      </trkpt>
      <trkpt lat="47.24239" lon="-1.63842">
        <ele>22.9</ele>
        <time>2013-09-08T10:52:52Z</time>
      </trkpt>
      <trkpt lat="47.24234" lon="-1.6383">
        <ele>23.2</ele>
        <time>2013-09-08T10:52:54Z</time>
      </trkpt>
      <trkpt lat="47.2423" lon="-1.63816">
        <ele>23.1</ele>
        <time>2013-09-08T10:52:56Z</time>
      </trkpt>
      <trkpt lat="47.24227" lon="-1.63799">
        <ele>22.6</ele>
        <time>2013-09-08T10:52:58Z</time>
      </trkpt>
      <trkpt lat="47.24224" lon="-1.63782">
        <ele>22.8</ele>
        <time>2013-09-08T10:53:00Z</time>
      </trkpt>
      <trkpt lat="47.24222" lon="-1.63764">
        <ele>23.5</ele>
        <time>2013-09-08T10:53:02Z</time>
      </trkpt>
      <trkpt lat="47.24221" lon="-1.63748">
        <ele>23.8</ele>
        <time>2013-09-08T10:53:04Z</time>
      </trkpt>
      <trkpt lat="47.2422" lon="-1.63733">
        <ele>23.8</ele>
        <time>2013-09-08T10:53:06Z</time>
      </trkpt>
      <trkpt lat="47.24218" lon="-1.63716">
        <ele>22.8</ele>
        <time>2013-09-08T10:53:09Z</time>
      </trkpt>
      <trkpt lat="47.24216" lon="-1.63697">
        <ele>21.7</ele>
        <time>2013-09-08T10:53:12Z</time>
      </trkpt>
      <trkpt lat="47.24214" lon="-1.63681">
        <ele>21.8</ele>
        <time>2013-09-08T10:53:15Z</time>
      </trkpt>
      <trkpt lat="47.24213" lon="-1.63663">
        <ele>21.9</ele>
        <time>2013-09-08T10:53:18Z</time>
      </trkpt>
      <trkpt lat="47.24212" lon="-1.63647">
        <ele>22.2</ele>
        <time>2013-09-08T10:53:21Z</time>
      </trkpt>
      <trkpt lat="47.24211" lon="-1.63634">
        <ele>22.5</ele>
        <time>2013-09-08T10:53:24Z</time>
      </trkpt>
      <trkpt lat="47.24208" lon="-1.63617">
        <ele>22.8</ele>
        <time>2013-09-08T10:53:28Z</time>
      </trkpt>
      <trkpt lat="47.24204" lon="-1.63603">
        <ele>23.1</ele>
        <time>2013-09-08T10:53:31Z</time>
      </trkpt>
      <trkpt lat="47.24201" lon="-1.6359">
        <ele>23.4</ele>
        <time>2013-09-08T10:53:34Z</time>
      </trkpt>
      <trkpt lat="47.24197" lon="-1.63575">
        <ele>23.8</ele>
        <time>2013-09-08T10:53:37Z</time>
      </trkpt>
      <trkpt lat="47.24192" lon="-1.63559">
        <ele>24.1</ele>
        <time>2013-09-08T10:53:40Z</time>
      </trkpt>
      <trkpt lat="47.24187" lon="-1.63544">
        <ele>24.5</ele>
        <time>2013-09-08T10:53:43Z</time>
      </trkpt>
      <trkpt lat="47.24182" lon="-1.63528">
        <ele>26.5</ele>
        <time>2013-09-08T10:53:46Z</time>
      </trkpt>
      <trkpt lat="47.24177" lon="-1.63514">
        <ele>27.3</ele>
        <time>2013-09-08T10:53:49Z</time>
      </trkpt>
      <trkpt lat="47.24172" lon="-1.635">
        <ele>27.4</ele>
        <time>2013-09-08T10:53:52Z</time>
      </trkpt>
      <trkpt lat="47.24167" lon="-1.63486">
        <ele>27.6</ele>
        <time>2013-09-08T10:53:55Z</time>
      </trkpt>
      <trkpt lat="47.24161" lon="-1.63471">
        <ele>27.6</ele>
        <time>2013-09-08T10:53:58Z</time>
      </trkpt>
      <trkpt lat="47.24156" lon="-1.63456">
        <ele>27.6</ele>
        <time>2013-09-08T10:54:01Z</time>
      </trkpt>
      <trkpt lat="47.24151" lon="-1.63441">
        <ele>27.1</ele>
        <time>2013-09-08T10:54:04Z</time>
      </trkpt>
      <trkpt lat="47.24146" lon="-1.63426">
        <ele>25.9</ele>
        <time>2013-09-08T10:54:07Z</time>
      </trkpt>
      <trkpt lat="47.24143" lon="-1.63412">
        <ele>25.6</ele>
        <time>2013-09-08T10:54:09Z</time>
      </trkpt>
      <trkpt lat="47.24137" lon="-1.63395">
        <ele>25.6</ele>
        <time>2013-09-08T10:54:12Z</time>
      </trkpt>
      <trkpt lat="47.24131" lon="-1.63379">
        <ele>25.7</ele>
        <time>2013-09-08T10:54:15Z</time>
      </trkpt>
      <trkpt lat="47.24126" lon="-1.63366">
        <ele>25.6</ele>
        <time>2013-09-08T10:54:18Z</time>
      </trkpt>
      <trkpt lat="47.24122" lon="-1.63353">
        <ele>25.6</ele>
        <time>2013-09-08T10:54:21Z</time>
      </trkpt>
      <trkpt lat="47.24118" lon="-1.63341">
        <ele>25.8</ele>
        <time>2013-09-08T10:54:24Z</time>
      </trkpt>
      <trkpt lat="47.24113" lon="-1.63327">
        <ele>26</ele>
        <time>2013-09-08T10:54:27Z</time>
      </trkpt>
      <trkpt lat="47.2411" lon="-1.63315">
        <ele>26.1</ele>
        <time>2013-09-08T10:54:30Z</time>
      </trkpt>
      <trkpt lat="47.24105" lon="-1.63302">
        <ele>26.3</ele>
        <time>2013-09-08T10:54:33Z</time>
      </trkpt>
      <trkpt lat="47.241" lon="-1.63289">
        <ele>26.5</ele>
        <time>2013-09-08T10:54:36Z</time>
      </trkpt>
      <trkpt lat="47.24095" lon="-1.63273">
        <ele>26.5</ele>
        <time>2013-09-08T10:54:40Z</time>
      </trkpt>
      <trkpt lat="47.2409" lon="-1.63259">
        <ele>26.6</ele>
        <time>2013-09-08T10:54:44Z</time>
      </trkpt>
      <trkpt lat="47.24087" lon="-1.63246">
        <ele>26.9</ele>
        <time>2013-09-08T10:54:49Z</time>
      </trkpt>
      <trkpt lat="47.24078" lon="-1.63239">
        <ele>27.8</ele>
        <time>2013-09-08T10:54:56Z</time>
      </trkpt>
      <trkpt lat="47.24067" lon="-1.6324">
        <ele>28.4</ele>
        <time>2013-09-08T10:55:02Z</time>
      </trkpt>
      <trkpt lat="47.24057" lon="-1.63244">
        <ele>28.7</ele>
        <time>2013-09-08T10:55:07Z</time>
      </trkpt>
      <trkpt lat="47.24047" lon="-1.6325">
        <ele>28.5</ele>
        <time>2013-09-08T10:55:13Z</time>
      </trkpt>
      <trkpt lat="47.24039" lon="-1.63256">
        <ele>28.7</ele>
        <time>2013-09-08T10:55:17Z</time>
      </trkpt>
      <trkpt lat="47.24029" lon="-1.63258">
        <ele>29.1</ele>
        <time>2013-09-08T10:55:22Z</time>
      </trkpt>
      <trkpt lat="47.24019" lon="-1.63259">
        <ele>29.5</ele>
        <time>2013-09-08T10:55:27Z</time>
      </trkpt>
      <trkpt lat="47.2401" lon="-1.63262">
        <ele>30</ele>
        <time>2013-09-08T10:55:32Z</time>
      </trkpt>
      <trkpt lat="47.23999" lon="-1.63265">
        <ele>30.8</ele>
        <time>2013-09-08T10:55:38Z</time>
      </trkpt>
      <trkpt lat="47.23989" lon="-1.63268">
        <ele>31.5</ele>
        <time>2013-09-08T10:55:44Z</time>
      </trkpt>
      <trkpt lat="47.23978" lon="-1.63271">
        <ele>32.4</ele>
        <time>2013-09-08T10:55:51Z</time>
      </trkpt>
      <trkpt lat="47.23969" lon="-1.63275">
        <ele>32.7</ele>
        <time>2013-09-08T10:55:56Z</time>
      </trkpt>
      <trkpt lat="47.23969" lon="-1.63288">
        <ele>33.1</ele>
        <time>2013-09-08T10:56:02Z</time>
      </trkpt>
      <trkpt lat="47.23979" lon="-1.63291">
        <ele>33.4</ele>
        <time>2013-09-08T10:56:10Z</time>
      </trkpt>
      <trkpt lat="47.23988" lon="-1.63286">
        <ele>33.2</ele>
        <time>2013-09-08T10:56:14Z</time>
      </trkpt>
      <trkpt lat="47.23999" lon="-1.6328">
        <ele>32.8</ele>
        <time>2013-09-08T10:56:18Z</time>
      </trkpt>
      <trkpt lat="47.24009" lon="-1.63276">
        <ele>32.5</ele>
        <time>2013-09-08T10:56:21Z</time>
      </trkpt>
      <trkpt lat="47.2402" lon="-1.63272">
        <ele>32.1</ele>
        <time>2013-09-08T10:56:24Z</time>
      </trkpt>
      <trkpt lat="47.24031" lon="-1.63269">
        <ele>29.8</ele>
        <time>2013-09-08T10:56:27Z</time>
      </trkpt>
      <trkpt lat="47.24043" lon="-1.63266">
        <ele>28.1</ele>
        <time>2013-09-08T10:56:30Z</time>
      </trkpt>
      <trkpt lat="47.24054" lon="-1.63263">
        <ele>27.3</ele>
        <time>2013-09-08T10:56:33Z</time>
      </trkpt>
      <trkpt lat="47.24066" lon="-1.63264">
        <ele>26.1</ele>
        <time>2013-09-08T10:56:36Z</time>
      </trkpt>
      <trkpt lat="47.24075" lon="-1.63278">
        <ele>26.2</ele>
        <time>2013-09-08T10:56:39Z</time>
      </trkpt>
      <trkpt lat="47.24081" lon="-1.63291">
        <ele>26</ele>
        <time>2013-09-08T10:56:41Z</time>
      </trkpt>
      <trkpt lat="47.24085" lon="-1.63305">
        <ele>25.3</ele>
        <time>2013-09-08T10:56:43Z</time>
      </trkpt>
      <trkpt lat="47.24089" lon="-1.63319">
        <ele>25.5</ele>
        <time>2013-09-08T10:56:45Z</time>
      </trkpt>
      <trkpt lat="47.24092" lon="-1.63334">
        <ele>26.1</ele>
        <time>2013-09-08T10:56:47Z</time>
      </trkpt>
      <trkpt lat="47.24096" lon="-1.6335">
        <ele>27.2</ele>
        <time>2013-09-08T10:56:49Z</time>
      </trkpt>
      <trkpt lat="47.24101" lon="-1.63365">
        <ele>27.9</ele>
        <time>2013-09-08T10:56:51Z</time>
      </trkpt>
      <trkpt lat="47.24106" lon="-1.6338">
        <ele>28.1</ele>
        <time>2013-09-08T10:56:53Z</time>
      </trkpt>
      <trkpt lat="47.24108" lon="-1.63394">
        <ele>28</ele>
        <time>2013-09-08T10:56:55Z</time>
      </trkpt>
      <trkpt lat="47.24106" lon="-1.63411">
        <ele>27.8</ele>
        <time>2013-09-08T10:56:58Z</time>
      </trkpt>
      <trkpt lat="47.24098" lon="-1.63422">
        <ele>27.7</ele>
        <time>2013-09-08T10:57:01Z</time>
      </trkpt>
      <trkpt lat="47.24088" lon="-1.63426">
        <ele>27.6</ele>
        <time>2013-09-08T10:57:04Z</time>
      </trkpt>
      <trkpt lat="47.24077" lon="-1.63427">
        <ele>27.7</ele>
        <time>2013-09-08T10:57:07Z</time>
      </trkpt>
      <trkpt lat="47.24066" lon="-1.63426">
        <ele>27.8</ele>
        <time>2013-09-08T10:57:10Z</time>
      </trkpt>
      <trkpt lat="47.24054" lon="-1.63424">
        <ele>27.8</ele>
        <time>2013-09-08T10:57:13Z</time>
      </trkpt>
      <trkpt lat="47.24042" lon="-1.63422">
        <ele>28</ele>
        <time>2013-09-08T10:57:16Z</time>
      </trkpt>
      <trkpt lat="47.24032" lon="-1.63418">
        <ele>28.2</ele>
        <time>2013-09-08T10:57:19Z</time>
      </trkpt>
      <trkpt lat="47.24023" lon="-1.63418">
        <ele>28.3</ele>
        <time>2013-09-08T10:57:22Z</time>
      </trkpt>
      <trkpt lat="47.24011" lon="-1.63421">
        <ele>28.4</ele>
        <time>2013-09-08T10:57:25Z</time>
      </trkpt>
      <trkpt lat="47.24" lon="-1.63427">
        <ele>28.7</ele>
        <time>2013-09-08T10:57:28Z</time>
      </trkpt>
      <trkpt lat="47.23991" lon="-1.63432">
        <ele>28.7</ele>
        <time>2013-09-08T10:57:31Z</time>
      </trkpt>
      <trkpt lat="47.23981" lon="-1.63439">
        <ele>28.7</ele>
        <time>2013-09-08T10:57:34Z</time>
      </trkpt>
      <trkpt lat="47.23973" lon="-1.63446">
        <ele>28.8</ele>
        <time>2013-09-08T10:57:37Z</time>
      </trkpt>
      <trkpt lat="47.23964" lon="-1.63453">
        <ele>29</ele>
        <time>2013-09-08T10:57:40Z</time>
      </trkpt>
      <trkpt lat="47.23953" lon="-1.63458">
        <ele>29.3</ele>
        <time>2013-09-08T10:57:43Z</time>
      </trkpt>
      <trkpt lat="47.23944" lon="-1.63461">
        <ele>29.4</ele>
        <time>2013-09-08T10:57:46Z</time>
      </trkpt>
      <trkpt lat="47.23934" lon="-1.63462">
        <ele>29.5</ele>
        <time>2013-09-08T10:57:49Z</time>
      </trkpt>
      <trkpt lat="47.23922" lon="-1.6346">
        <ele>29.7</ele>
        <time>2013-09-08T10:57:52Z</time>
      </trkpt>
      <trkpt lat="47.23913" lon="-1.63458">
        <ele>29.8</ele>
        <time>2013-09-08T10:57:55Z</time>
      </trkpt>
      <trkpt lat="47.23904" lon="-1.63454">
        <ele>29.9</ele>
        <time>2013-09-08T10:57:58Z</time>
      </trkpt>
      <trkpt lat="47.23896" lon="-1.63447">
        <ele>30.2</ele>
        <time>2013-09-08T10:58:02Z</time>
      </trkpt>
      <trkpt lat="47.23886" lon="-1.63442">
        <ele>30.5</ele>
        <time>2013-09-08T10:58:06Z</time>
      </trkpt>
      <trkpt lat="47.23877" lon="-1.63446">
        <ele>30.7</ele>
        <time>2013-09-08T10:58:09Z</time>
      </trkpt>
      <trkpt lat="47.23867" lon="-1.6345">
        <ele>31</ele>
        <time>2013-09-08T10:58:12Z</time>
      </trkpt>
      <trkpt lat="47.23857" lon="-1.63454">
        <ele>31.4</ele>
        <time>2013-09-08T10:58:15Z</time>
      </trkpt>
      <trkpt lat="47.23848" lon="-1.63458">
        <ele>31.7</ele>
        <time>2013-09-08T10:58:18Z</time>
      </trkpt>
      <trkpt lat="47.23839" lon="-1.63462">
        <ele>32</ele>
        <time>2013-09-08T10:58:21Z</time>
      </trkpt>
      <trkpt lat="47.23829" lon="-1.63462">
        <ele>32.4</ele>
        <time>2013-09-08T10:58:24Z</time>
      </trkpt>
      <trkpt lat="47.2382" lon="-1.63454">
        <ele>32.7</ele>
        <time>2013-09-08T10:58:28Z</time>
      </trkpt>
      <trkpt lat="47.23814" lon="-1.63442">
        <ele>33</ele>
        <time>2013-09-08T10:58:32Z</time>
      </trkpt>
      <trkpt lat="47.2381" lon="-1.63428">
        <ele>33.3</ele>
        <time>2013-09-08T10:58:36Z</time>
      </trkpt>
      <trkpt lat="47.2381" lon="-1.63413">
        <ele>33.4</ele>
        <time>2013-09-08T10:58:41Z</time>
      </trkpt>
      <trkpt lat="47.23808" lon="-1.63399">
        <ele>34</ele>
        <time>2013-09-08T10:58:48Z</time>
      </trkpt>
      <trkpt lat="47.23808" lon="-1.63414">
        <ele>33.1</ele>
        <time>2013-09-08T10:59:40Z</time>
      </trkpt>
      <trkpt lat="47.23798" lon="-1.63411">
        <ele>33.3</ele>
        <time>2013-09-08T10:59:49Z</time>
      </trkpt>
      <trkpt lat="47.23793" lon="-1.63399">
        <ele>33.4</ele>
        <time>2013-09-08T10:59:54Z</time>
      </trkpt>
      <trkpt lat="47.23788" lon="-1.63387">
        <ele>33.6</ele>
        <time>2013-09-08T10:59:58Z</time>
      </trkpt>
      <trkpt lat="47.23781" lon="-1.63374">
        <ele>34</ele>
        <time>2013-09-08T11:00:03Z</time>
      </trkpt>
      <trkpt lat="47.23776" lon="-1.63363">
        <ele>34.6</ele>
        <time>2013-09-08T11:00:08Z</time>
      </trkpt>
      <trkpt lat="47.23773" lon="-1.63349">
        <ele>35.4</ele>
        <time>2013-09-08T11:00:13Z</time>
      </trkpt>
      <trkpt lat="47.23774" lon="-1.63335">
        <ele>36</ele>
        <time>2013-09-08T11:00:17Z</time>
      </trkpt>
      <trkpt lat="47.23776" lon="-1.63318">
        <ele>36</ele>
        <time>2013-09-08T11:00:21Z</time>
      </trkpt>
      <trkpt lat="47.23781" lon="-1.63305">
        <ele>35.6</ele>
        <time>2013-09-08T11:00:24Z</time>
      </trkpt>
      <trkpt lat="47.23785" lon="-1.63294">
        <ele>35.3</ele>
        <time>2013-09-08T11:00:27Z</time>
      </trkpt>
      <trkpt lat="47.23791" lon="-1.63283">
        <ele>35</ele>
        <time>2013-09-08T11:00:30Z</time>
      </trkpt>
      <trkpt lat="47.238" lon="-1.63273">
        <ele>34.8</ele>
        <time>2013-09-08T11:00:33Z</time>
      </trkpt>
      <trkpt lat="47.23809" lon="-1.63266">
        <ele>34.7</ele>
        <time>2013-09-08T11:00:36Z</time>
      </trkpt>
      <trkpt lat="47.23818" lon="-1.63259">
        <ele>34.8</ele>
        <time>2013-09-08T11:00:39Z</time>
      </trkpt>
      <trkpt lat="47.23828" lon="-1.63255">
        <ele>35</ele>
        <time>2013-09-08T11:00:42Z</time>
      </trkpt>
      <trkpt lat="47.23839" lon="-1.63252">
        <ele>35.2</ele>
        <time>2013-09-08T11:00:46Z</time>
      </trkpt>
      <trkpt lat="47.23848" lon="-1.63252">
        <ele>35.3</ele>
        <time>2013-09-08T11:00:49Z</time>
      </trkpt>
      <trkpt lat="47.2386" lon="-1.6325">
        <ele>35.5</ele>
        <time>2013-09-08T11:00:53Z</time>
      </trkpt>
      <trkpt lat="47.2387" lon="-1.63246">
        <ele>35.8</ele>
        <time>2013-09-08T11:00:57Z</time>
      </trkpt>
      <trkpt lat="47.23881" lon="-1.63243">
        <ele>35.9</ele>
        <time>2013-09-08T11:01:01Z</time>
      </trkpt>
      <trkpt lat="47.2389" lon="-1.6324">
        <ele>35.9</ele>
        <time>2013-09-08T11:01:05Z</time>
      </trkpt>
      <trkpt lat="47.23901" lon="-1.63238">
        <ele>35.7</ele>
        <time>2013-09-08T11:01:10Z</time>
      </trkpt>
      <trkpt lat="47.23911" lon="-1.6324">
        <ele>35.5</ele>
        <time>2013-09-08T11:01:14Z</time>
      </trkpt>
      <trkpt lat="47.2392" lon="-1.63247">
        <ele>35.4</ele>
        <time>2013-09-08T11:01:19Z</time>
      </trkpt>
      <trkpt lat="47.2393" lon="-1.63257">
        <ele>35.3</ele>
        <time>2013-09-08T11:01:24Z</time>
      </trkpt>
      <trkpt lat="47.23937" lon="-1.63268">
        <ele>35.2</ele>
        <time>2013-09-08T11:01:27Z</time>
      </trkpt>
      <trkpt lat="47.23943" lon="-1.63282">
        <ele>34.9</ele>
        <time>2013-09-08T11:01:31Z</time>
      </trkpt>
      <trkpt lat="47.23949" lon="-1.63295">
        <ele>34.9</ele>
        <time>2013-09-08T11:01:35Z</time>
      </trkpt>
      <trkpt lat="47.23957" lon="-1.63302">
        <ele>34.9</ele>
        <time>2013-09-08T11:01:39Z</time>
      </trkpt>
      <trkpt lat="47.23968" lon="-1.63298">
        <ele>34.8</ele>
        <time>2013-09-08T11:01:42Z</time>
      </trkpt>
      <trkpt lat="47.23977" lon="-1.63294">
        <ele>34.7</ele>
        <time>2013-09-08T11:01:46Z</time>
      </trkpt>
      <trkpt lat="47.23968" lon="-1.63296">
        <ele>34.2</ele>
        <time>2013-09-08T11:01:58Z</time>
      </trkpt>
      <trkpt lat="47.23958" lon="-1.63299">
        <ele>34.1</ele>
        <time>2013-09-08T11:02:03Z</time>
      </trkpt>
      <trkpt lat="47.2395" lon="-1.63292">
        <ele>34.1</ele>
        <time>2013-09-08T11:02:08Z</time>
      </trkpt>
      <trkpt lat="47.23957" lon="-1.63282">
        <ele>33.8</ele>
        <time>2013-09-08T11:02:17Z</time>
      </trkpt>
      <trkpt lat="47.23967" lon="-1.63278">
        <ele>33.7</ele>
        <time>2013-09-08T11:02:22Z</time>
      </trkpt>
      <trkpt lat="47.23977" lon="-1.63273">
        <ele>33.5</ele>
        <time>2013-09-08T11:02:27Z</time>
      </trkpt>
      <trkpt lat="47.23986" lon="-1.63269">
        <ele>33.5</ele>
        <time>2013-09-08T11:02:31Z</time>
      </trkpt>
      <trkpt lat="47.23998" lon="-1.63265">
        <ele>33.4</ele>
        <time>2013-09-08T11:02:35Z</time>
      </trkpt>
      <trkpt lat="47.24003" lon="-1.63253">
        <ele>33.7</ele>
        <time>2013-09-08T11:02:43Z</time>
      </trkpt>
      <trkpt lat="47.24002" lon="-1.63238">
        <ele>34.1</ele>
        <time>2013-09-08T11:02:48Z</time>
      </trkpt>
      <trkpt lat="47.23999" lon="-1.63221">
        <ele>34</ele>
        <time>2013-09-08T11:02:52Z</time>
      </trkpt>
      <trkpt lat="47.23998" lon="-1.63205">
        <ele>33.7</ele>
        <time>2013-09-08T11:02:56Z</time>
      </trkpt>
      <trkpt lat="47.23996" lon="-1.63192">
        <ele>33.2</ele>
        <time>2013-09-08T11:03:00Z</time>
      </trkpt>
      <trkpt lat="47.23991" lon="-1.6318">
        <ele>32.4</ele>
        <time>2013-09-08T11:03:05Z</time>
      </trkpt>
      <trkpt lat="47.23986" lon="-1.63166">
        <ele>31.8</ele>
        <time>2013-09-08T11:03:10Z</time>
      </trkpt>
      <trkpt lat="47.23983" lon="-1.63153">
        <ele>31.5</ele>
        <time>2013-09-08T11:03:13Z</time>
      </trkpt>
      <trkpt lat="47.23981" lon="-1.63137">
        <ele>31</ele>
        <time>2013-09-08T11:03:18Z</time>
      </trkpt>
      <trkpt lat="47.23978" lon="-1.6312">
        <ele>30.4</ele>
        <time>2013-09-08T11:03:23Z</time>
      </trkpt>
      <trkpt lat="47.23977" lon="-1.63105">
        <ele>30</ele>
        <time>2013-09-08T11:03:27Z</time>
      </trkpt>
      <trkpt lat="47.23975" lon="-1.63092">
        <ele>29.8</ele>
        <time>2013-09-08T11:03:32Z</time>
      </trkpt>
      <trkpt lat="47.23973" lon="-1.63078">
        <ele>29.9</ele>
        <time>2013-09-08T11:03:36Z</time>
      </trkpt>
      <trkpt lat="47.23968" lon="-1.63065">
        <ele>30</ele>
        <time>2013-09-08T11:03:40Z</time>
      </trkpt>
      <trkpt lat="47.23961" lon="-1.63053">
        <ele>29.8</ele>
        <time>2013-09-08T11:03:45Z</time>
      </trkpt>
      <trkpt lat="47.23955" lon="-1.6304">
        <ele>29.7</ele>
        <time>2013-09-08T11:03:49Z</time>
      </trkpt>
      <trkpt lat="47.23949" lon="-1.6303">
        <ele>29.8</ele>
        <time>2013-09-08T11:03:54Z</time>
      </trkpt>
      <trkpt lat="47.23943" lon="-1.63019">
        <ele>29.6</ele>
        <time>2013-09-08T11:03:57Z</time>
      </trkpt>
      <trkpt lat="47.23935" lon="-1.63007">
        <ele>29.3</ele>
        <time>2013-09-08T11:04:01Z</time>
      </trkpt>
      <trkpt lat="47.23927" lon="-1.62994">
        <ele>29.4</ele>
        <time>2013-09-08T11:04:05Z</time>
      </trkpt>
      <trkpt lat="47.23923" lon="-1.62979">
        <ele>29.5</ele>
        <time>2013-09-08T11:04:09Z</time>
      </trkpt>
      <trkpt lat="47.2392" lon="-1.62962">
        <ele>29.7</ele>
        <time>2013-09-08T11:04:13Z</time>
      </trkpt>
      <trkpt lat="47.23918" lon="-1.62945">
        <ele>30</ele>
        <time>2013-09-08T11:04:17Z</time>
      </trkpt>
      <trkpt lat="47.23915" lon="-1.62931">
        <ele>30.1</ele>
        <time>2013-09-08T11:04:20Z</time>
      </trkpt>
      <trkpt lat="47.23911" lon="-1.62945">
        <ele>29.9</ele>
        <time>2013-09-08T11:04:32Z</time>
      </trkpt>
      <trkpt lat="47.23904" lon="-1.62955">
        <ele>29.8</ele>
        <time>2013-09-08T11:04:36Z</time>
      </trkpt>
      <trkpt lat="47.23895" lon="-1.62965">
        <ele>29.7</ele>
        <time>2013-09-08T11:04:40Z</time>
      </trkpt>
      <trkpt lat="47.23886" lon="-1.62975">
        <ele>29.8</ele>
        <time>2013-09-08T11:04:44Z</time>
      </trkpt>
      <trkpt lat="47.23875" lon="-1.62981">
        <ele>30</ele>
        <time>2013-09-08T11:04:48Z</time>
      </trkpt>
      <trkpt lat="47.23865" lon="-1.62979">
        <ele>30.5</ele>
        <time>2013-09-08T11:04:52Z</time>
      </trkpt>
      <trkpt lat="47.23856" lon="-1.62976">
        <ele>31</ele>
        <time>2013-09-08T11:04:58Z</time>
      </trkpt>
      <trkpt lat="47.23846" lon="-1.6298">
        <ele>31.3</ele>
        <time>2013-09-08T11:05:02Z</time>
      </trkpt>
      <trkpt lat="47.23835" lon="-1.62986">
        <ele>31.6</ele>
        <time>2013-09-08T11:05:06Z</time>
      </trkpt>
      <trkpt lat="47.23827" lon="-1.62993">
        <ele>31.8</ele>
        <time>2013-09-08T11:05:09Z</time>
      </trkpt>
      <trkpt lat="47.23818" lon="-1.63">
        <ele>31.9</ele>
        <time>2013-09-08T11:05:12Z</time>
      </trkpt>
      <trkpt lat="47.2381" lon="-1.63008">
        <ele>31.9</ele>
        <time>2013-09-08T11:05:15Z</time>
      </trkpt>
      <trkpt lat="47.23803" lon="-1.63018">
        <ele>32</ele>
        <time>2013-09-08T11:05:18Z</time>
      </trkpt>
      <trkpt lat="47.23796" lon="-1.63027">
        <ele>32.2</ele>
        <time>2013-09-08T11:05:21Z</time>
      </trkpt>
      <trkpt lat="47.23787" lon="-1.63037">
        <ele>32.4</ele>
        <time>2013-09-08T11:05:25Z</time>
      </trkpt>
      <trkpt lat="47.23777" lon="-1.63043">
        <ele>32.9</ele>
        <time>2013-09-08T11:05:29Z</time>
      </trkpt>
      <trkpt lat="47.23768" lon="-1.6305">
        <ele>33.6</ele>
        <time>2013-09-08T11:05:33Z</time>
      </trkpt>
      <trkpt lat="47.23758" lon="-1.63058">
        <ele>34.1</ele>
        <time>2013-09-08T11:05:37Z</time>
      </trkpt>
      <trkpt lat="47.23749" lon="-1.63065">
        <ele>34.3</ele>
        <time>2013-09-08T11:05:41Z</time>
      </trkpt>
      <trkpt lat="47.23741" lon="-1.63057">
        <ele>35</ele>
        <time>2013-09-08T11:05:48Z</time>
      </trkpt>
      <trkpt lat="47.23742" lon="-1.6304">
        <ele>35.3</ele>
        <time>2013-09-08T11:05:51Z</time>
      </trkpt>
      <trkpt lat="47.23742" lon="-1.63022">
        <ele>37.5</ele>
        <time>2013-09-08T11:05:54Z</time>
      </trkpt>
      <trkpt lat="47.23743" lon="-1.63008">
        <ele>38.5</ele>
        <time>2013-09-08T11:05:56Z</time>
      </trkpt>
      <trkpt lat="47.23744" lon="-1.62989">
        <ele>39.7</ele>
        <time>2013-09-08T11:05:59Z</time>
      </trkpt>
      <trkpt lat="47.23744" lon="-1.6297">
        <ele>40.2</ele>
        <time>2013-09-08T11:06:02Z</time>
      </trkpt>
      <trkpt lat="47.23744" lon="-1.62951">
        <ele>40.1</ele>
        <time>2013-09-08T11:06:05Z</time>
      </trkpt>
      <trkpt lat="47.23745" lon="-1.62936">
        <ele>38.5</ele>
        <time>2013-09-08T11:06:07Z</time>
      </trkpt>
      <trkpt lat="47.23747" lon="-1.6292">
        <ele>38.2</ele>
        <time>2013-09-08T11:06:09Z</time>
      </trkpt>
      <trkpt lat="47.23749" lon="-1.62904">
        <ele>37.7</ele>
        <time>2013-09-08T11:06:11Z</time>
      </trkpt>
      <trkpt lat="47.23751" lon="-1.62886">
        <ele>36.1</ele>
        <time>2013-09-08T11:06:13Z</time>
      </trkpt>
      <trkpt lat="47.23749" lon="-1.62869">
        <ele>35.7</ele>
        <time>2013-09-08T11:06:15Z</time>
      </trkpt>
      <trkpt lat="47.23741" lon="-1.6286">
        <ele>35.4</ele>
        <time>2013-09-08T11:06:17Z</time>
      </trkpt>
      <trkpt lat="47.23728" lon="-1.6286">
        <ele>36</ele>
        <time>2013-09-08T11:06:20Z</time>
      </trkpt>
      <trkpt lat="47.23716" lon="-1.62864">
        <ele>38.2</ele>
        <time>2013-09-08T11:06:23Z</time>
      </trkpt>
      <trkpt lat="47.23703" lon="-1.62868">
        <ele>39.6</ele>
        <time>2013-09-08T11:06:26Z</time>
      </trkpt>
      <trkpt lat="47.23692" lon="-1.62872">
        <ele>39.7</ele>
        <time>2013-09-08T11:06:29Z</time>
      </trkpt>
      <trkpt lat="47.23682" lon="-1.62877">
        <ele>39.8</ele>
        <time>2013-09-08T11:06:32Z</time>
      </trkpt>
      <trkpt lat="47.23673" lon="-1.62881">
        <ele>39.9</ele>
        <time>2013-09-08T11:06:35Z</time>
      </trkpt>
      <trkpt lat="47.23663" lon="-1.62885">
        <ele>40.1</ele>
        <time>2013-09-08T11:06:38Z</time>
      </trkpt>
      <trkpt lat="47.23654" lon="-1.62887">
        <ele>40.3</ele>
        <time>2013-09-08T11:06:41Z</time>
      </trkpt>
      <trkpt lat="47.23642" lon="-1.6289">
        <ele>40.5</ele>
        <time>2013-09-08T11:06:45Z</time>
      </trkpt>
      <trkpt lat="47.23633" lon="-1.62894">
        <ele>40.6</ele>
        <time>2013-09-08T11:06:48Z</time>
      </trkpt>
      <trkpt lat="47.23624" lon="-1.62901">
        <ele>40.6</ele>
        <time>2013-09-08T11:06:52Z</time>
      </trkpt>
      <trkpt lat="47.23616" lon="-1.62909">
        <ele>41</ele>
        <time>2013-09-08T11:06:56Z</time>
      </trkpt>
      <trkpt lat="47.23605" lon="-1.62914">
        <ele>41.2</ele>
        <time>2013-09-08T11:06:59Z</time>
      </trkpt>
      <trkpt lat="47.23596" lon="-1.62918">
        <ele>41.4</ele>
        <time>2013-09-08T11:07:02Z</time>
      </trkpt>
      <trkpt lat="47.23586" lon="-1.62918">
        <ele>41.5</ele>
        <time>2013-09-08T11:07:05Z</time>
      </trkpt>
      <trkpt lat="47.23578" lon="-1.6291">
        <ele>41.7</ele>
        <time>2013-09-08T11:07:08Z</time>
      </trkpt>
      <trkpt lat="47.2357" lon="-1.62902">
        <ele>42</ele>
        <time>2013-09-08T11:07:11Z</time>
      </trkpt>
      <trkpt lat="47.23561" lon="-1.62898">
        <ele>42.3</ele>
        <time>2013-09-08T11:07:15Z</time>
      </trkpt>
      <trkpt lat="47.23553" lon="-1.6289">
        <ele>42.8</ele>
        <time>2013-09-08T11:07:20Z</time>
      </trkpt>
      <trkpt lat="47.2355" lon="-1.62874">
        <ele>43.2</ele>
        <time>2013-09-08T11:07:24Z</time>
      </trkpt>
      <trkpt lat="47.23548" lon="-1.62859">
        <ele>43.3</ele>
        <time>2013-09-08T11:07:27Z</time>
      </trkpt>
      <trkpt lat="47.23545" lon="-1.62844">
        <ele>43.4</ele>
        <time>2013-09-08T11:07:30Z</time>
      </trkpt>
      <trkpt lat="47.23543" lon="-1.62829">
        <ele>43.5</ele>
        <time>2013-09-08T11:07:33Z</time>
      </trkpt>
      <trkpt lat="47.23541" lon="-1.62811">
        <ele>43.8</ele>
        <time>2013-09-08T11:07:36Z</time>
      </trkpt>
      <trkpt lat="47.23538" lon="-1.62794">
        <ele>43.9</ele>
        <time>2013-09-08T11:07:39Z</time>
      </trkpt>
      <trkpt lat="47.23534" lon="-1.62777">
        <ele>43.5</ele>
        <time>2013-09-08T11:07:42Z</time>
      </trkpt>
      <trkpt lat="47.23529" lon="-1.62759">
        <ele>42.4</ele>
        <time>2013-09-08T11:07:45Z</time>
      </trkpt>
      <trkpt lat="47.23524" lon="-1.62746">
        <ele>41.6</ele>
        <time>2013-09-08T11:07:47Z</time>
      </trkpt>
      <trkpt lat="47.23519" lon="-1.62735">
        <ele>40.7</ele>
        <time>2013-09-08T11:07:49Z</time>
      </trkpt>
      <trkpt lat="47.23512" lon="-1.62725">
        <ele>40</ele>
        <time>2013-09-08T11:07:51Z</time>
      </trkpt>
      <trkpt lat="47.23501" lon="-1.62708">
        <ele>40.2</ele>
        <time>2013-09-08T11:07:53Z</time>
      </trkpt>
      <trkpt lat="47.23492" lon="-1.62697">
        <ele>41.1</ele>
        <time>2013-09-08T11:07:55Z</time>
      </trkpt>
      <trkpt lat="47.23484" lon="-1.62688">
        <ele>41.1</ele>
        <time>2013-09-08T11:07:57Z</time>
      </trkpt>
      <trkpt lat="47.23476" lon="-1.62678">
        <ele>41.2</ele>
        <time>2013-09-08T11:07:59Z</time>
      </trkpt>
      <trkpt lat="47.23469" lon="-1.62667">
        <ele>41</ele>
        <time>2013-09-08T11:08:01Z</time>
      </trkpt>
      <trkpt lat="47.23463" lon="-1.62656">
        <ele>40.4</ele>
        <time>2013-09-08T11:08:03Z</time>
      </trkpt>
      <trkpt lat="47.23456" lon="-1.62645">
        <ele>40.2</ele>
        <time>2013-09-08T11:08:05Z</time>
      </trkpt>
      <trkpt lat="47.23448" lon="-1.62637">
        <ele>40.6</ele>
        <time>2013-09-08T11:08:07Z</time>
      </trkpt>
      <trkpt lat="47.23438" lon="-1.62626">
        <ele>40.6</ele>
        <time>2013-09-08T11:08:10Z</time>
      </trkpt>
      <trkpt lat="47.23433" lon="-1.62608">
        <ele>41</ele>
        <time>2013-09-08T11:08:13Z</time>
      </trkpt>
      <trkpt lat="47.23434" lon="-1.62594">
        <ele>40.9</ele>
        <time>2013-09-08T11:08:15Z</time>
      </trkpt>
      <trkpt lat="47.23435" lon="-1.62581">
        <ele>40.8</ele>
        <time>2013-09-08T11:08:17Z</time>
      </trkpt>
      <trkpt lat="47.23434" lon="-1.62564">
        <ele>40.5</ele>
        <time>2013-09-08T11:08:19Z</time>
      </trkpt>
      <trkpt lat="47.23431" lon="-1.6255">
        <ele>40.4</ele>
        <time>2013-09-08T11:08:21Z</time>
      </trkpt>
      <trkpt lat="47.23429" lon="-1.62537">
        <ele>40.1</ele>
        <time>2013-09-08T11:08:23Z</time>
      </trkpt>
      <trkpt lat="47.23425" lon="-1.62524">
        <ele>39.8</ele>
        <time>2013-09-08T11:08:25Z</time>
      </trkpt>
      <trkpt lat="47.23422" lon="-1.62511">
        <ele>39.6</ele>
        <time>2013-09-08T11:08:27Z</time>
      </trkpt>
      <trkpt lat="47.23417" lon="-1.62498">
        <ele>39.8</ele>
        <time>2013-09-08T11:08:29Z</time>
      </trkpt>
      <trkpt lat="47.23412" lon="-1.62483">
        <ele>39.5</ele>
        <time>2013-09-08T11:08:31Z</time>
      </trkpt>
      <trkpt lat="47.23405" lon="-1.62471">
        <ele>39.2</ele>
        <time>2013-09-08T11:08:33Z</time>
      </trkpt>
      <trkpt lat="47.23397" lon="-1.62457">
        <ele>40.5</ele>
        <time>2013-09-08T11:08:36Z</time>
      </trkpt>
      <trkpt lat="47.23394" lon="-1.62442">
        <ele>40.7</ele>
        <time>2013-09-08T11:08:39Z</time>
      </trkpt>
      <trkpt lat="47.23394" lon="-1.62427">
        <ele>40.5</ele>
        <time>2013-09-08T11:08:42Z</time>
      </trkpt>
      <trkpt lat="47.23391" lon="-1.62409">
        <ele>39.6</ele>
        <time>2013-09-08T11:08:45Z</time>
      </trkpt>
      <trkpt lat="47.23387" lon="-1.62391">
        <ele>39.8</ele>
        <time>2013-09-08T11:08:48Z</time>
      </trkpt>
      <trkpt lat="47.23384" lon="-1.62379">
        <ele>40</ele>
        <time>2013-09-08T11:08:50Z</time>
      </trkpt>
      <trkpt lat="47.2338" lon="-1.62365">
        <ele>39.4</ele>
        <time>2013-09-08T11:08:52Z</time>
      </trkpt>
      <trkpt lat="47.23376" lon="-1.62347">
        <ele>37.8</ele>
        <time>2013-09-08T11:08:55Z</time>
      </trkpt>
      <trkpt lat="47.23372" lon="-1.6233">
        <ele>35.2</ele>
        <time>2013-09-08T11:08:58Z</time>
      </trkpt>
      <trkpt lat="47.23367" lon="-1.62313">
        <ele>34.8</ele>
        <time>2013-09-08T11:09:01Z</time>
      </trkpt>
      <trkpt lat="47.23363" lon="-1.62299">
        <ele>35.7</ele>
        <time>2013-09-08T11:09:03Z</time>
      </trkpt>
      <trkpt lat="47.23358" lon="-1.62286">
        <ele>36.1</ele>
        <time>2013-09-08T11:09:05Z</time>
      </trkpt>
      <trkpt lat="47.23354" lon="-1.62273">
        <ele>36</ele>
        <time>2013-09-08T11:09:07Z</time>
      </trkpt>
      <trkpt lat="47.2335" lon="-1.62258">
        <ele>35.8</ele>
        <time>2013-09-08T11:09:09Z</time>
      </trkpt>
      <trkpt lat="47.23346" lon="-1.62243">
        <ele>36.3</ele>
        <time>2013-09-08T11:09:11Z</time>
      </trkpt>
      <trkpt lat="47.23342" lon="-1.62229">
        <ele>36.8</ele>
        <time>2013-09-08T11:09:13Z</time>
      </trkpt>
      <trkpt lat="47.23338" lon="-1.62216">
        <ele>36.9</ele>
        <time>2013-09-08T11:09:15Z</time>
      </trkpt>
      <trkpt lat="47.23335" lon="-1.62203">
        <ele>36.9</ele>
        <time>2013-09-08T11:09:17Z</time>
      </trkpt>
      <trkpt lat="47.23332" lon="-1.62189">
        <ele>37.1</ele>
        <time>2013-09-08T11:09:19Z</time>
      </trkpt>
      <trkpt lat="47.23327" lon="-1.62172">
        <ele>37.5</ele>
        <time>2013-09-08T11:09:22Z</time>
      </trkpt>
      <trkpt lat="47.23323" lon="-1.62155">
        <ele>38.1</ele>
        <time>2013-09-08T11:09:25Z</time>
      </trkpt>
      <trkpt lat="47.23318" lon="-1.62138">
        <ele>38.4</ele>
        <time>2013-09-08T11:09:28Z</time>
      </trkpt>
      <trkpt lat="47.23313" lon="-1.6212">
        <ele>39.3</ele>
        <time>2013-09-08T11:09:31Z</time>
      </trkpt>
      <trkpt lat="47.23309" lon="-1.62105">
        <ele>40</ele>
        <time>2013-09-08T11:09:34Z</time>
      </trkpt>
      <trkpt lat="47.23305" lon="-1.62089">
        <ele>40.7</ele>
        <time>2013-09-08T11:09:37Z</time>
      </trkpt>
      <trkpt lat="47.23303" lon="-1.62072">
        <ele>40.8</ele>
        <time>2013-09-08T11:09:40Z</time>
      </trkpt>
      <trkpt lat="47.23302" lon="-1.62057">
        <ele>40.8</ele>
        <time>2013-09-08T11:09:43Z</time>
      </trkpt>
      <trkpt lat="47.23301" lon="-1.6204">
        <ele>40.8</ele>
        <time>2013-09-08T11:09:46Z</time>
      </trkpt>
      <trkpt lat="47.233" lon="-1.62023">
        <ele>40.8</ele>
        <time>2013-09-08T11:09:49Z</time>
      </trkpt>
      <trkpt lat="47.23301" lon="-1.62005">
        <ele>40.7</ele>
        <time>2013-09-08T11:09:52Z</time>
      </trkpt>
      <trkpt lat="47.23302" lon="-1.61987">
        <ele>40.7</ele>
        <time>2013-09-08T11:09:55Z</time>
      </trkpt>
      <trkpt lat="47.23304" lon="-1.61968">
        <ele>40</ele>
        <time>2013-09-08T11:09:58Z</time>
      </trkpt>
      <trkpt lat="47.23307" lon="-1.61954">
        <ele>39.2</ele>
        <time>2013-09-08T11:10:00Z</time>
      </trkpt>
      <trkpt lat="47.2331" lon="-1.61939">
        <ele>38.3</ele>
        <time>2013-09-08T11:10:02Z</time>
      </trkpt>
      <trkpt lat="47.23314" lon="-1.61923">
        <ele>37.3</ele>
        <time>2013-09-08T11:10:04Z</time>
      </trkpt>
      <trkpt lat="47.23318" lon="-1.61907">
        <ele>36.5</ele>
        <time>2013-09-08T11:10:06Z</time>
      </trkpt>
      <trkpt lat="47.23316" lon="-1.61891">
        <ele>36.7</ele>
        <time>2013-09-08T11:10:08Z</time>
      </trkpt>
      <trkpt lat="47.23311" lon="-1.61879">
        <ele>37.2</ele>
        <time>2013-09-08T11:10:10Z</time>
      </trkpt>
      <trkpt lat="47.23308" lon="-1.61866">
        <ele>37.5</ele>
        <time>2013-09-08T11:10:12Z</time>
      </trkpt>
      <trkpt lat="47.23306" lon="-1.61853">
        <ele>37.8</ele>
        <time>2013-09-08T11:10:14Z</time>
      </trkpt>
      <trkpt lat="47.23299" lon="-1.61842">
        <ele>38.2</ele>
        <time>2013-09-08T11:10:18Z</time>
      </trkpt>
      <trkpt lat="47.2329" lon="-1.61832">
        <ele>38.8</ele>
        <time>2013-09-08T11:10:23Z</time>
      </trkpt>
      <trkpt lat="47.23291" lon="-1.61819">
        <ele>39.2</ele>
        <time>2013-09-08T11:10:27Z</time>
      </trkpt>
      <trkpt lat="47.23291" lon="-1.61803">
        <ele>39.3</ele>
        <time>2013-09-08T11:10:31Z</time>
      </trkpt>
      <trkpt lat="47.23287" lon="-1.61788">
        <ele>39.7</ele>
        <time>2013-09-08T11:10:35Z</time>
      </trkpt>
      <trkpt lat="47.23282" lon="-1.61776">
        <ele>40.2</ele>
        <time>2013-09-08T11:10:39Z</time>
      </trkpt>
      <trkpt lat="47.23273" lon="-1.61776">
        <ele>40.5</ele>
        <time>2013-09-08T11:10:44Z</time>
      </trkpt>
      <trkpt lat="47.23264" lon="-1.61782">
        <ele>40.6</ele>
        <time>2013-09-08T11:10:49Z</time>
      </trkpt>
      <trkpt lat="47.23255" lon="-1.61787">
        <ele>40.4</ele>
        <time>2013-09-08T11:10:52Z</time>
      </trkpt>
      <trkpt lat="47.23247" lon="-1.61792">
        <ele>40.2</ele>
        <time>2013-09-08T11:10:56Z</time>
      </trkpt>
      <trkpt lat="47.23256" lon="-1.6179">
        <ele>40.3</ele>
        <time>2013-09-08T11:11:08Z</time>
      </trkpt>
      <trkpt lat="47.23267" lon="-1.61782">
        <ele>40.3</ele>
        <time>2013-09-08T11:11:11Z</time>
      </trkpt>
      <trkpt lat="47.23279" lon="-1.61774">
        <ele>40.6</ele>
        <time>2013-09-08T11:11:14Z</time>
      </trkpt>
      <trkpt lat="47.23289" lon="-1.61766">
        <ele>40.9</ele>
        <time>2013-09-08T11:11:17Z</time>
      </trkpt>
      <trkpt lat="47.23302" lon="-1.61761">
        <ele>42.8</ele>
        <time>2013-09-08T11:11:20Z</time>
      </trkpt>
      <trkpt lat="47.23311" lon="-1.6176">
        <ele>43.6</ele>
        <time>2013-09-08T11:11:22Z</time>
      </trkpt>
      <trkpt lat="47.23324" lon="-1.61761">
        <ele>42.7</ele>
        <time>2013-09-08T11:11:25Z</time>
      </trkpt>
      <trkpt lat="47.23336" lon="-1.61757">
        <ele>41.4</ele>
        <time>2013-09-08T11:11:28Z</time>
      </trkpt>
      <trkpt lat="47.23348" lon="-1.61751">
        <ele>39.1</ele>
        <time>2013-09-08T11:11:31Z</time>
      </trkpt>
      <trkpt lat="47.23359" lon="-1.61743">
        <ele>37.1</ele>
        <time>2013-09-08T11:11:34Z</time>
      </trkpt>
      <trkpt lat="47.23371" lon="-1.61735">
        <ele>36.2</ele>
        <time>2013-09-08T11:11:37Z</time>
      </trkpt>
      <trkpt lat="47.2337" lon="-1.61721">
        <ele>36.1</ele>
        <time>2013-09-08T11:11:41Z</time>
      </trkpt>
      <trkpt lat="47.23363" lon="-1.61706">
        <ele>36</ele>
        <time>2013-09-08T11:11:44Z</time>
      </trkpt>
      <trkpt lat="47.23355" lon="-1.61691">
        <ele>35.7</ele>
        <time>2013-09-08T11:11:47Z</time>
      </trkpt>
      <trkpt lat="47.23349" lon="-1.61681">
        <ele>34.8</ele>
        <time>2013-09-08T11:11:49Z</time>
      </trkpt>
      <trkpt lat="47.23342" lon="-1.6167">
        <ele>34.3</ele>
        <time>2013-09-08T11:11:51Z</time>
      </trkpt>
      <trkpt lat="47.23336" lon="-1.61659">
        <ele>33.8</ele>
        <time>2013-09-08T11:11:53Z</time>
      </trkpt>
      <trkpt lat="47.2333" lon="-1.61648">
        <ele>33.5</ele>
        <time>2013-09-08T11:11:55Z</time>
      </trkpt>
      <trkpt lat="47.23321" lon="-1.61635">
        <ele>33.3</ele>
        <time>2013-09-08T11:11:58Z</time>
      </trkpt>
      <trkpt lat="47.23315" lon="-1.61625">
        <ele>33.5</ele>
        <time>2013-09-08T11:12:00Z</time>
      </trkpt>
      <trkpt lat="47.23308" lon="-1.61612">
        <ele>33.6</ele>
        <time>2013-09-08T11:12:03Z</time>
      </trkpt>
      <trkpt lat="47.23301" lon="-1.61601">
        <ele>34.8</ele>
        <time>2013-09-08T11:12:05Z</time>
      </trkpt>
      <trkpt lat="47.23294" lon="-1.61584">
        <ele>36.5</ele>
        <time>2013-09-08T11:12:08Z</time>
      </trkpt>
      <trkpt lat="47.23288" lon="-1.61572">
        <ele>36.6</ele>
        <time>2013-09-08T11:12:11Z</time>
      </trkpt>
      <trkpt lat="47.23283" lon="-1.61557">
        <ele>36.7</ele>
        <time>2013-09-08T11:12:14Z</time>
      </trkpt>
      <trkpt lat="47.23278" lon="-1.61541">
        <ele>36.7</ele>
        <time>2013-09-08T11:12:17Z</time>
      </trkpt>
      <trkpt lat="47.23274" lon="-1.61523">
        <ele>36.2</ele>
        <time>2013-09-08T11:12:20Z</time>
      </trkpt>
      <trkpt lat="47.23271" lon="-1.61509">
        <ele>35.9</ele>
        <time>2013-09-08T11:12:22Z</time>
      </trkpt>
      <trkpt lat="47.2327" lon="-1.61494">
        <ele>36.5</ele>
        <time>2013-09-08T11:12:24Z</time>
      </trkpt>
      <trkpt lat="47.23267" lon="-1.61479">
        <ele>37.3</ele>
        <time>2013-09-08T11:12:26Z</time>
      </trkpt>
      <trkpt lat="47.23265" lon="-1.61466">
        <ele>36.7</ele>
        <time>2013-09-08T11:12:28Z</time>
      </trkpt>
      <trkpt lat="47.23263" lon="-1.61451">
        <ele>36.1</ele>
        <time>2013-09-08T11:12:30Z</time>
      </trkpt>
      <trkpt lat="47.23261" lon="-1.61438">
        <ele>35.5</ele>
        <time>2013-09-08T11:12:32Z</time>
      </trkpt>
      <trkpt lat="47.23259" lon="-1.61425">
        <ele>35.4</ele>
        <time>2013-09-08T11:12:34Z</time>
      </trkpt>
      <trkpt lat="47.23253" lon="-1.61411">
        <ele>35.1</ele>
        <time>2013-09-08T11:12:37Z</time>
      </trkpt>
      <trkpt lat="47.23244" lon="-1.61401">
        <ele>34.8</ele>
        <time>2013-09-08T11:12:40Z</time>
      </trkpt>
      <trkpt lat="47.23238" lon="-1.61391">
        <ele>34.6</ele>
        <time>2013-09-08T11:12:43Z</time>
      </trkpt>
      <trkpt lat="47.23231" lon="-1.61379">
        <ele>34.2</ele>
        <time>2013-09-08T11:12:47Z</time>
      </trkpt>
      <trkpt lat="47.23224" lon="-1.61368">
        <ele>33.7</ele>
        <time>2013-09-08T11:12:51Z</time>
      </trkpt>
      <trkpt lat="47.23217" lon="-1.61359">
        <ele>33.5</ele>
        <time>2013-09-08T11:12:55Z</time>
      </trkpt>
      <trkpt lat="47.23209" lon="-1.61353">
        <ele>33.4</ele>
        <time>2013-09-08T11:12:58Z</time>
      </trkpt>
      <trkpt lat="47.23197" lon="-1.61343">
        <ele>30.3</ele>
        <time>2013-09-08T11:13:01Z</time>
      </trkpt>
      <trkpt lat="47.2319" lon="-1.61333">
        <ele>27.7</ele>
        <time>2013-09-08T11:13:03Z</time>
      </trkpt>
      <trkpt lat="47.23181" lon="-1.61321">
        <ele>27.7</ele>
        <time>2013-09-08T11:13:05Z</time>
      </trkpt>
      <trkpt lat="47.23173" lon="-1.61308">
        <ele>27.7</ele>
        <time>2013-09-08T11:13:08Z</time>
      </trkpt>
      <trkpt lat="47.23169" lon="-1.61296">
        <ele>27.4</ele>
        <time>2013-09-08T11:13:11Z</time>
      </trkpt>
      <trkpt lat="47.23165" lon="-1.61282">
        <ele>27.3</ele>
        <time>2013-09-08T11:13:15Z</time>
      </trkpt>
      <trkpt lat="47.2316" lon="-1.61269">
        <ele>27.3</ele>
        <time>2013-09-08T11:13:19Z</time>
      </trkpt>
      <trkpt lat="47.23155" lon="-1.61257">
        <ele>26.8</ele>
        <time>2013-09-08T11:13:23Z</time>
      </trkpt>
      <trkpt lat="47.23148" lon="-1.61246">
        <ele>26.3</ele>
        <time>2013-09-08T11:13:29Z</time>
      </trkpt>
      <trkpt lat="47.23143" lon="-1.61234">
        <ele>25.7</ele>
        <time>2013-09-08T11:13:35Z</time>
      </trkpt>
      <trkpt lat="47.23143" lon="-1.61219">
        <ele>26</ele>
        <time>2013-09-08T11:13:39Z</time>
      </trkpt>
      <trkpt lat="47.23141" lon="-1.61206">
        <ele>26.5</ele>
        <time>2013-09-08T11:13:43Z</time>
      </trkpt>
      <trkpt lat="47.23135" lon="-1.61195">
        <ele>26.6</ele>
        <time>2013-09-08T11:13:47Z</time>
      </trkpt>
      <trkpt lat="47.2313" lon="-1.61181">
        <ele>26.6</ele>
        <time>2013-09-08T11:13:51Z</time>
      </trkpt>
      <trkpt lat="47.23125" lon="-1.61166">
        <ele>26.8</ele>
        <time>2013-09-08T11:13:55Z</time>
      </trkpt>
      <trkpt lat="47.2312" lon="-1.61152">
        <ele>27.2</ele>
        <time>2013-09-08T11:13:59Z</time>
      </trkpt>
      <trkpt lat="47.23115" lon="-1.61139">
        <ele>27.6</ele>
        <time>2013-09-08T11:14:03Z</time>
      </trkpt>
      <trkpt lat="47.23109" lon="-1.61126">
        <ele>28</ele>
        <time>2013-09-08T11:14:07Z</time>
      </trkpt>
      <trkpt lat="47.23105" lon="-1.61112">
        <ele>28.2</ele>
        <time>2013-09-08T11:14:11Z</time>
      </trkpt>
      <trkpt lat="47.23101" lon="-1.61096">
        <ele>28.5</ele>
        <time>2013-09-08T11:14:15Z</time>
      </trkpt>
      <trkpt lat="47.231" lon="-1.6108">
        <ele>28.7</ele>
        <time>2013-09-08T11:14:19Z</time>
      </trkpt>
      <trkpt lat="47.23106" lon="-1.61066">
        <ele>28.9</ele>
        <time>2013-09-08T11:14:23Z</time>
      </trkpt>
      <trkpt lat="47.23111" lon="-1.61055">
        <ele>29.1</ele>
        <time>2013-09-08T11:14:26Z</time>
      </trkpt>
      <trkpt lat="47.23118" lon="-1.61045">
        <ele>29.1</ele>
        <time>2013-09-08T11:14:29Z</time>
      </trkpt>
      <trkpt lat="47.23128" lon="-1.61034">
        <ele>29.2</ele>
        <time>2013-09-08T11:14:32Z</time>
      </trkpt>
      <trkpt lat="47.23138" lon="-1.61025">
        <ele>29.2</ele>
        <time>2013-09-08T11:14:35Z</time>
      </trkpt>
      <trkpt lat="47.23145" lon="-1.61016">
        <ele>29.4</ele>
        <time>2013-09-08T11:14:38Z</time>
      </trkpt>
      <trkpt lat="47.23151" lon="-1.61006">
        <ele>29.6</ele>
        <time>2013-09-08T11:14:42Z</time>
      </trkpt>
      <trkpt lat="47.23145" lon="-1.60994">
        <ele>29.7</ele>
        <time>2013-09-08T11:14:45Z</time>
      </trkpt>
      <trkpt lat="47.23137" lon="-1.60984">
        <ele>30.1</ele>
        <time>2013-09-08T11:14:49Z</time>
      </trkpt>
      <trkpt lat="47.23147" lon="-1.60979">
        <ele>30.8</ele>
        <time>2013-09-08T11:15:09Z</time>
      </trkpt>
      <trkpt lat="47.23153" lon="-1.6099">
        <ele>31.2</ele>
        <time>2013-09-08T11:15:13Z</time>
      </trkpt>
      <trkpt lat="47.2316" lon="-1.60998">
        <ele>31.6</ele>
        <time>2013-09-08T11:15:16Z</time>
      </trkpt>
      <trkpt lat="47.23168" lon="-1.60991">
        <ele>31.9</ele>
        <time>2013-09-08T11:15:19Z</time>
      </trkpt>
      <trkpt lat="47.23175" lon="-1.60983">
        <ele>31.9</ele>
        <time>2013-09-08T11:15:22Z</time>
      </trkpt>
      <trkpt lat="47.23184" lon="-1.60975">
        <ele>31.7</ele>
        <time>2013-09-08T11:15:26Z</time>
      </trkpt>
      <trkpt lat="47.23192" lon="-1.60969">
        <ele>31.4</ele>
        <time>2013-09-08T11:15:30Z</time>
      </trkpt>
      <trkpt lat="47.23203" lon="-1.6097">
        <ele>31.9</ele>
        <time>2013-09-08T11:15:34Z</time>
      </trkpt>
      <trkpt lat="47.23204" lon="-1.60955">
        <ele>33</ele>
        <time>2013-09-08T11:15:41Z</time>
      </trkpt>
      <trkpt lat="47.23197" lon="-1.60943">
        <ele>33.5</ele>
        <time>2013-09-08T11:15:44Z</time>
      </trkpt>
      <trkpt lat="47.23191" lon="-1.60929">
        <ele>33.9</ele>
        <time>2013-09-08T11:15:47Z</time>
      </trkpt>
      <trkpt lat="47.23184" lon="-1.60915">
        <ele>34.3</ele>
        <time>2013-09-08T11:15:50Z</time>
      </trkpt>
      <trkpt lat="47.23179" lon="-1.60899">
        <ele>34.5</ele>
        <time>2013-09-08T11:15:53Z</time>
      </trkpt>
      <trkpt lat="47.23172" lon="-1.60886">
        <ele>34.5</ele>
        <time>2013-09-08T11:15:56Z</time>
      </trkpt>
      <trkpt lat="47.23166" lon="-1.60874">
        <ele>34.6</ele>
        <time>2013-09-08T11:15:59Z</time>
      </trkpt>
      <trkpt lat="47.23159" lon="-1.6086">
        <ele>34.7</ele>
        <time>2013-09-08T11:16:02Z</time>
      </trkpt>
      <trkpt lat="47.23155" lon="-1.60847">
        <ele>34.5</ele>
        <time>2013-09-08T11:16:05Z</time>
      </trkpt>
      <trkpt lat="47.23149" lon="-1.60832">
        <ele>34.5</ele>
        <time>2013-09-08T11:16:08Z</time>
      </trkpt>
      <trkpt lat="47.23144" lon="-1.60818">
        <ele>34.7</ele>
        <time>2013-09-08T11:16:11Z</time>
      </trkpt>
      <trkpt lat="47.23138" lon="-1.60804">
        <ele>34.9</ele>
        <time>2013-09-08T11:16:14Z</time>
      </trkpt>
      <trkpt lat="47.23135" lon="-1.6079">
        <ele>35.1</ele>
        <time>2013-09-08T11:16:17Z</time>
      </trkpt>
      <trkpt lat="47.2313" lon="-1.60776">
        <ele>35.1</ele>
        <time>2013-09-08T11:16:20Z</time>
      </trkpt>
      <trkpt lat="47.23125" lon="-1.60762">
        <ele>35.1</ele>
        <time>2013-09-08T11:16:23Z</time>
      </trkpt>
      <trkpt lat="47.2312" lon="-1.60747">
        <ele>35</ele>
        <time>2013-09-08T11:16:26Z</time>
      </trkpt>
      <trkpt lat="47.23114" lon="-1.60734">
        <ele>35</ele>
        <time>2013-09-08T11:16:29Z</time>
      </trkpt>
      <trkpt lat="47.23105" lon="-1.6073">
        <ele>35</ele>
        <time>2013-09-08T11:16:33Z</time>
      </trkpt>
      <trkpt lat="47.23095" lon="-1.60737">
        <ele>35.4</ele>
        <time>2013-09-08T11:16:37Z</time>
      </trkpt>
      <trkpt lat="47.23086" lon="-1.60745">
        <ele>36</ele>
        <time>2013-09-08T11:16:42Z</time>
      </trkpt>
      <trkpt lat="47.23076" lon="-1.60745">
        <ele>36.6</ele>
        <time>2013-09-08T11:16:47Z</time>
      </trkpt>
      <trkpt lat="47.23071" lon="-1.60732">
        <ele>37</ele>
        <time>2013-09-08T11:16:52Z</time>
      </trkpt>
      <trkpt lat="47.23071" lon="-1.60716">
        <ele>37.1</ele>
        <time>2013-09-08T11:16:55Z</time>
      </trkpt>
      <trkpt lat="47.23069" lon="-1.60698">
        <ele>38.1</ele>
        <time>2013-09-08T11:16:58Z</time>
      </trkpt>
      <trkpt lat="47.23069" lon="-1.6068">
        <ele>39.4</ele>
        <time>2013-09-08T11:17:01Z</time>
      </trkpt>
      <trkpt lat="47.23073" lon="-1.60668">
        <ele>39.3</ele>
        <time>2013-09-08T11:17:04Z</time>
      </trkpt>
      <trkpt lat="47.23077" lon="-1.60662">
        <ele>38.4</ele>
        <time>2013-09-08T11:17:42Z</time>
      </trkpt>
      <trkpt lat="47.23077" lon="-1.60662">
        <ele>38.4</ele>
        <time>2013-09-08T11:17:42Z</time>
      </trkpt>
    </trkseg>
  </trk>
</gpx>